GFSSE_con_mucape_009.txt.gz
CAPE
441 625 869 884 1198 1087 1004 1031 1205 1561 1724 1524 1470 1527 1385 1243 1035 1022 930 915 988 1123 1254 1157 1145 1436 1564 1803 1827 1630 1424 1680 1606 1301 1338 1671 1769 1950 1984 1757 1796 1098 672
638 777 909 1177 1374 1310 1249 1261 1401 1346 1562 1538 1470 1575 1562 1353 1281 1186 1025 961 901 971 1200 1455 1351 1832 2100 2099 1882 1807 1768 1904 2050 2015 1833 1625 1990 1972 2115 1828 1586 1023 1260
766 808 982 1304 1497 1530 1406 1366 1434 1591 1567 1519 1449 1302 1455 1584 1581 1321 969 836 865 1016 1168 1323 1551 1782 1736 1552 1354 1470 1554 1676 2012 2093 2209 418 969 1188 2174 1868 1679 1450 1309
883 1018 1188 1226 1698 1656 1667 1705 1803 1811 1679 1563 1537 1604 1635 1681 1592 1306 873 838 1041 1246 1401 1489 1483 1409 1423 1645 1601 1635 1463 1440 1753 1842 957 764 1015 1710 2265 2059 1737 1570 1112
731 1092 1169 1186 1476 1921 2120 2109 1971 1961 1870 1885 1886 1886 1903 1732 1478 1120 900 935 1057 1255 1335 1240 1074 827 660 867 1627 1555 1498 1610 1692 1379 1195 1565 1245 1372 1923 1891 1838 1747 1681
383 752 829 1135 1321 1441 1485 1594 1680 1771 1706 1558 1599 1704 1691 1435 954 746 890 1041 1182 1201 958 1013 1200 1201 1121 918 776 985 1156 1296 1590 1221 1280 1332 934 1772 1319 1168 1405 1229 1425
48 184 646 911 1144 1179 1155 1128 1250 1402 1516 1516 1627 1574 1383 1237 1086 969 959 873 619 546 499 519 577 673 771 928 1079 1089 841 903 1189 1214 1047 971 932 1151 993 749 832 1153 1180
51 135 95 503 885 938 949 987 1138 1237 1210 1205 1374 1350 1165 957 875 746 565 420 365 317 237 186 207 272 303 313 291 478 659 725 824 1229 1255 1068 749 1012 1076 1096 894 645 859
41 175 206 255 344 638 648 764 980 1087 950 835 658 740 795 619 487 372 227 127 107 73 54 16 0 4 23 23 10 35 138 255 779 1101 1070 1021 592 791 824 784 730 724 670
44 300 476 405 283 443 705 502 657 837 797 539 345 224 369 409 262 53 26 21 2 0 0 0 0 0 0 0 0 0 0 41 495 372 505 423 293 484 633 541 549 609 514
228 475 601 518 284 169 58 189 227 565 787 562 433 404 525 676 466 310 8 0 0 0 0 0 0 0 0 0 0 0 0 86 42 30 221 165 145 267 405 401 487 556 963
581 503 1046 941 604 253 0 206 179 46 380 552 716 808 652 679 559 265 42 8 0 0 0 0 0 0 0 0 0 0 0 0 0 0 62 6 14 71 219 332 373 425 532
639 468 949 1488 974 344 79 108 178 120 157 293 591 832 612 585 548 363 258 128 78 2 7 1 2 6 0 0 0 0 0 0 0 0 1 0 0 0 0 0 12 188 348
510 326 900 1530 904 523 330 175 203 175 184 199 411 434 441 303 274 239 35 5 8 8 7 9 5 6 0 0 0 0 0 0 0 0 0 0 0 0 0 0 0 0 0
347 359 753 1500 616 176 208 257 295 314 271 297 157 99 124 140 136 11 0 0 0 2 7 4 3 1 0 0 0 0 0 0 0 0 0 0 0 0 0 0 0 0 0
226 504 798 1259 664 81 89 176 198 77 25 11 0 1 16 54 61 18 0 0 0 0 0 0 0 0 0 0 0 0 0 0 0 0 0 0 0 0 0 0 0 0 0
299 392 924 1141 454 51 107 72 6 0 0 0 0 0 3 19 36 50 27 26 0 38 97 34 7 9 7 1 0 0 0 0 0 0 0 0 0 0 0 0 0 0 0
325 381 664 907 197 36 23 21 6 13 6 14 3 0 5 4 0 35 14 28 91 108 39 54 7 9 12 11 16 0 0 0 0 0 0 0 0 0 0 0 0 0 0
217 288 626 1022 11 4 45 50 36 20 15 0 0 0 0 0 0 10 17 71 226 120 190 171 121 138 65 30 7 20 6 0 5 0 0 0 0 0 0 2 0 0 0
109 279 591 649 3 34 63 59 1 0 0 0 0 0 0 0 0 0 2 37 69 29 73 130 266 108 240 193 9 42 74 35 0 7 3 0 0 3 0 0 0 0 0
440 559 537 94 35 15 5 0 0 0 0 1 3 0 0 0 0 0 0 0 0 0 25 89 120 148 173 219 276 233 171 90 86 3 5 6 9 12 19 5 10 0 0
166 121 92 55 20 0 0 0 0 0 0 1 3 0 0 0 0 0 0 0 0 0 4 54 95 72 110 193 254 277 197 133 168 125 68 33 15 2 10 31 43 11 0
0 0 14 30 7 0 0 0 0 0 0 0 0 0 0 0 0 0 0 0 0 0 0 25 26 39 34 50 223 261 159 114 225 187 328 161 167 127 27 21 32 2 0
0 0 0 0 0 0 0 0 0 0 0 0 0 0 0 0 0 0 0 0 0 0 0 0 2 6 30 11 56 31 220 289 147 154 205 249 170 71 220 133 84 1 0
0 0 0 0 0 0 0 0 0 0 0 0 0 0 0 0 0 0 0 0 0 0 0 6 16 17 19 33 24 50 42 22 64 25 15 66 183 100 39 54 161 21 1
0 0 0 0 0 0 0 4 15 3 0 0 0 0 0 0 0 0 0 0 0 8 11 12 28 38 19 34 31 13 12 0 3 2 2 14 105 49 61 17 0 27 14

GFSSE_con_mucape_012.txt.gz
CAPE
473 432 850 1147 1168 1104 1139 1255 1380 1416 1516 1587 1454 1364 1253 1126 1174 1172 1155 1200 1269 1242 1343 1453 1481 1783 1906 1978 1814 1725 1958 1993 1925 1805 1551 1334 1369 1839 1741 2067 1291 526 950
628 556 1017 1276 1307 1301 1308 1354 1456 1487 1492 1550 1574 1563 1439 1307 1160 1009 953 962 1074 1171 1271 1425 1641 1729 1722 1563 1477 1580 1701 1763 1815 1878 1990 1847 1681 1744 1687 1873 1675 654 740
592 678 869 1261 1474 1447 1428 1561 1583 1549 1516 1495 1468 1552 1412 1412 1239 1007 900 980 1095 1273 1357 1459 1481 1440 1402 1521 1436 1643 1629 1597 1589 1586 1817 1037 269 1250 1462 1955 1731 1605 1336
824 893 1025 1267 1505 1610 1668 1703 1704 1562 1427 1615 1492 1444 1473 1470 1373 992 798 918 1091 1145 1131 1038 965 804 689 683 1388 1458 1440 1523 1478 1456 970 621 919 957 832 1945 2137 1827 1870
980 853 962 1193 1504 1774 1843 1888 1856 1842 1733 1725 1754 1633 1607 1386 857 675 763 1051 1103 1038 881 927 1031 1009 955 856 818 1029 1288 1440 1390 1181 777 763 998 770 685 1152 2048 1998 1477
580 633 669 884 1122 1339 1464 1583 1666 1563 1462 1465 1610 1489 1306 973 679 759 932 872 584 492 465 512 518 590 641 803 932 895 872 776 884 672 635 842 476 813 544 1215 1171 1651 1451
298 430 505 708 991 1116 1133 1179 1280 1326 1351 1438 1299 1159 1063 877 794 631 475 383 270 187 145 132 174 255 299 391 330 528 768 825 465 413 762 526 203 0 227 647 1146 1232 1109
141 141 118 700 790 835 914 1030 1073 1062 1118 1173 1142 968 792 667 556 450 287 199 118 83 44 18 1 9 52 79 86 147 133 259 282 485 913 669 444 397 760 779 998 726 762
0 0 19 120 368 562 599 756 873 874 821 689 643 637 582 471 430 221 116 65 19 0 0 0 0 0 0 0 8 14 3 42 11 374 692 649 1174 1037 904 798 763 827 874
76 158 297 275 407 305 225 451 672 723 599 491 343 349 423 340 330 119 116 1 0 0 0 0 0 0 0 0 0 0 0 0 56 106 273 369 859 700 614 618 728 774 940
121 431 370 249 299 636 229 271 517 726 606 442 404 260 397 437 344 146 0 0 0 0 0 0 0 0 0 0 0 0 0 0 0 0 73 334 340 406 480 474 462 500 639
348 356 814 613 414 96 5 153 681 475 628 649 652 679 721 641 528 193 121 33 2 0 2 0 0 0 1 0 0 0 0 0 0 0 4 36 16 17 85 293 351 377 545
386 418 1091 1205 753 443 294 97 356 402 361 782 1294 555 871 465 919 468 363 216 46 10 20 0 10 0 4 0 0 0 0 0 0 0 0 0 0 0 0 0 18 80 201
343 315 1235 1108 876 651 551 534 642 433 198 435 381 616 561 324 392 139 33 0 0 0 1 10 0 2 3 0 0 0 0 0 0 0 0 0 0 0 0 0 0 0 8
334 392 898 1083 846 1053 331 921 758 640 380 349 238 252 193 200 232 122 34 6 0 0 0 0 0 0 0 0 0 0 0 0 0 0 0 0 0 0 0 0 0 0 0
304 657 1256 1247 738 408 552 378 633 242 336 243 71 4 73 75 109 96 35 35 10 2 5 0 0 0 0 0 0 0 0 0 0 0 0 0 0 0 0 0 0 0 0
209 395 1061 1102 741 467 370 325 257 13 8 35 32 25 25 59 62 113 56 52 55 80 54 23 10 0 0 0 0 0 0 0 0 0 0 0 0 0 0 0 0 0 0
244 236 263 673 633 345 409 66 79 90 61 52 82 48 11 18 17 66 56 77 115 115 86 60 39 24 1 0 0 0 0 0 0 0 0 0 0 0 0 0 0 0 0
140 409 632 998 420 114 207 87 77 52 43 14 0 14 0 1 2 6 2 43 73 35 36 30 2 29 14 0 0 0 0 1 0 0 0 0 0 0 0 0 2 0 0
476 341 755 766 210 88 164 108 13 2 5 20 6 0 0 0 0 0 0 1 27 0 0 0 0 0 0 0 0 0 0 0 0 0 0 0 0 0 0 0 1 0 0
570 223 276 224 32 33 56 5 0 0 1 1 1 0 0 0 0 0 0 0 0 0 0 0 0 0 0 0 0 0 0 0 58 50 0 0 0 0 0 0 0 0 0
199 210 63 64 74 53 17 0 0 0 0 0 4 0 0 0 0 0 0 0 0 0 0 0 0 0 0 0 0 0 0 0 0 3 32 53 24 24 1 1 0 0 0
27 75 69 41 55 64 31 5 0 0 0 0 0 0 0 0 0 0 0 0 0 0 0 0 0 0 0 0 0 0 0 0 0 0 0 8 56 36 26 4 5 0 0
0 0 0 0 0 0 0 0 0 0 0 0 0 0 0 0 0 0 0 0 0 0 0 0 0 0 0 0 0 0 1 3 0 0 0 0 0 40 39 57 19 0 9
0 0 0 0 0 0 0 0 0 0 0 0 0 0 0 0 0 0 0 0 0 0 0 6 0 0 0 0 0 2 0 0 0 3 0 0 0 0 3 44 34 29 0
0 0 0 0 0 0 0 0 0 0 0 0 0 0 0 0 0 0 0 0 1 14 21 8 13 12 12 10 4 13 6 9 3 0 0 0 0 0 0 0 10 4 2

GFSSE_con_mucape_015.txt.gz
CAPE
309 599 837 930 940 971 1039 1080 1137 1235 1301 1235 988 930 1028 917 877 948 945 1179 1293 1123 1213 1352 1565 1673 1598 1484 1411 1402 1552 1681 1774 1804 1665 1527 1545 1555 1509 1539 1486 994 910
388 630 809 967 1040 1119 1219 1199 1186 1327 1383 1169 1144 1155 1235 1038 796 787 839 937 1072 1096 1250 1323 1298 1192 1124 1321 1358 1420 1490 1716 1628 1721 1631 1302 1234 951 1141 1058 1281 1308 1399
518 705 854 945 1094 1251 1351 1345 1369 1351 1272 1146 1222 1303 1132 970 827 692 703 906 900 890 912 953 910 850 761 671 1039 1455 1499 1636 1597 1518 1527 691 472 1043 868 1124 1235 1186 1053
630 799 920 980 1167 1379 1393 1331 1302 1326 1226 1403 1360 1292 1251 1029 702 600 691 1116 935 751 687 767 820 821 843 885 818 841 1060 1335 1472 1433 647 711 1171 964 554 1233 728 1384 1459
701 904 1026 1106 1288 1429 1487 1477 1463 1476 1484 1518 1521 1232 861 584 537 676 857 1000 520 414 384 387 385 413 481 594 800 916 883 871 898 621 623 721 744 828 664 430 1064 1341 1137
640 820 954 1006 1043 1244 1399 1375 1265 1187 1256 1384 1341 964 726 619 685 678 423 305 163 108 80 67 70 106 162 281 327 353 543 714 658 238 640 629 651 591 155 107 446 947 1117
366 450 556 664 813 1035 1146 1070 1099 1129 1180 1189 1135 962 715 676 473 312 230 120 55 19 5 0 0 0 3 96 109 147 114 129 121 613 770 695 443 425 434 82 455 1071 1024
177 190 361 589 640 739 862 839 793 840 979 1069 1023 885 619 556 494 217 111 32 1 0 0 0 0 0 0 2 26 29 8 7 132 456 811 709 558 338 459 803 928 750 877
0 0 108 187 312 364 426 447 462 584 592 592 619 649 554 476 391 276 116 10 0 0 0 0 0 0 0 0 0 0 0 0 9 94 584 557 551 721 1063 1024 1107 924 915
0 0 1 6 64 29 114 265 282 307 264 184 303 410 283 296 237 235 94 33 0 0 0 0 0 0 0 0 0 0 0 0 0 8 298 666 1185 1085 839 844 816 928 1021
34 29 70 161 185 0 0 138 276 352 230 177 225 314 200 276 159 77 65 28 1 0 0 0 0 0 0 0 0 0 0 0 0 33 13 398 818 613 580 486 472 575 660
85 96 50 79 336 5 0 17 45 236 216 276 371 310 338 276 319 160 102 42 5 3 3 0 0 0 0 0 0 0 0 0 0 0 0 126 194 39 142 375 449 479 574
151 290 180 43 0 4 34 43 70 137 304 409 366 182 32 202 63 12 83 41 2 4 0 1 0 0 0 0 0 0 0 0 0 0 0 3 0 0 0 0 1 43 284
222 525 298 32 3 44 13 8 0 1 112 161 161 97 24 21 0 0 0 0 0 0 0 0 0 0 0 0 0 0 0 0 0 0 0 0 0 0 0 0 0 0 17
302 729 542 80 123 17 104 62 34 48 41 68 3 0 0 4 0 0 0 0 0 0 0 0 0 0 0 0 0 0 0 0 0 0 0 0 0 0 0 0 0 0 0
278 873 688 304 268 40 136 91 33 5 0 8 0 0 0 0 0 0 0 0 0 1 7 0 0 0 0 0 0 0 0 0 0 0 0 0 0 0 0 0 0 0 0
277 764 407 153 193 118 213 68 74 1 0 0 0 0 0 0 0 0 0 0 0 14 1 0 0 0 0 0 0 0 0 0 0 0 0 0 0 0 0 13 0 0 0
468 832 439 467 148 21 69 42 3 0 0 0 0 0 0 0 0 0 0 0 0 0 0 0 0 0 0 0 0 0 0 0 0 0 0 0 0 0 0 2 29 34 49
378 727 410 273 242 163 35 33 4 7 0 0 0 0 0 0 0 0 0 0 0 0 0 0 0 0 0 0 0 0 0 0 0 0 0 0 0 0 0 0 8 35 63
305 298 535 330 160 17 42 29 26 6 0 0 0 0 0 0 0 0 0 0 0 0 0 0 0 0 0 0 0 0 0 0 0 0 0 0 30 21 0 0 0 0 12
166 300 207 92 48 50 38 47 46 29 1 0 0 0 9 7 0 0 0 0 0 0 0 0 0 0 0 0 0 0 0 0 0 0 0 0 0 0 11 33 8 1 0
127 160 97 122 106 64 68 55 52 24 3 0 0 0 0 0 0 0 0 0 0 0 0 0 0 0 0 0 0 0 0 0 0 0 0 0 0 0 0 34 50 4 12
99 105 77 51 32 25 38 29 15 1 0 0 0 0 0 0 0 0 0 0 0 0 0 0 0 0 0 0 0 0 0 0 0 0 0 0 0 0 0 16 55 38 24
0 0 0 0 0 0 0 0 0 0 0 0 0 0 0 0 0 0 0 0 0 0 0 0 0 0 0 0 0 5 20 13 0 0 0 0 0 0 0 0 0 5 58
0 0 0 0 0 0 0 0 0 0 0 0 0 0 0 0 0 0 0 0 0 0 0 0 0 0 4 14 12 4 4 2 1 0 0 0 0 0 0 0 0 0 4
0 0 0 0 0 0 0 0 0 0 0 0 0 0 0 0 0 0 0 0 0 0 0 0 1 0 6 8 12 2 5 25 32 5 0 0 0 0 0 0 0 0 0

GFSSE_con_mucape_018.txt.gz
CAPE
509 600 668 861 951 952 978 1019 1013 1023 1050 854 783 754 714 710 735 778 843 1067 1244 1048 1124 1110 1025 971 1077 1150 1234 1268 1378 1315 1360 1368 1455 1279 1434 1409 1410 1313 1078 717 780
565 560 663 884 1068 1087 1084 1124 1170 1198 1145 925 906 847 756 689 662 658 725 780 774 815 822 783 753 722 633 596 957 1260 1305 1321 1371 1285 1306 1176 1149 1091 1053 1300 1149 1420 1162
577 595 665 893 1147 1216 1227 1245 1313 1213 1000 983 953 915 835 687 545 530 666 755 717 728 638 552 516 540 590 637 614 619 866 1158 1150 1108 1014 706 794 1111 772 1140 1182 1393 1599
595 611 692 993 1128 1198 1165 1189 1159 1056 1005 1021 1035 940 687 503 435 596 711 638 482 331 277 262 213 189 226 316 485 628 624 530 695 911 547 1005 1019 1097 981 881 955 1613 1510
633 695 840 987 1122 1190 1207 1270 1303 1293 1314 1318 1056 660 488 472 572 588 390 253 126 71 44 27 27 36 47 75 123 134 225 410 712 329 588 926 732 1089 1079 865 1114 1482 1643
697 788 937 1002 1156 1261 1217 1118 1116 1116 1111 1111 985 588 507 533 379 226 149 64 22 2 0 0 0 0 0 14 24 19 36 72 89 286 516 941 802 1196 548 261 638 1112 1481
732 832 835 850 976 1124 1084 940 1028 1018 1019 1004 931 810 539 344 206 104 49 14 0 0 0 0 0 0 0 0 1 21 28 26 109 466 634 600 544 632 285 557 733 940 1345
671 597 523 648 734 804 859 795 758 809 837 901 891 795 443 354 256 99 33 1 0 0 0 0 0 0 0 0 0 0 0 0 69 97 536 614 493 600 796 829 1010 1004 1125
195 202 276 353 444 454 425 400 435 587 660 721 734 625 527 378 299 201 44 0 0 0 0 0 0 0 0 0 0 0 0 0 0 0 150 507 487 734 953 1199 1373 1287 1211
0 14 17 59 74 88 157 230 276 292 286 375 372 271 217 205 190 162 64 13 0 0 0 0 0 0 0 0 0 0 0 0 0 91 328 406 898 1027 1000 1144 968 1121 1078
2 0 0 0 0 2 35 161 273 301 210 172 245 226 115 125 54 19 17 0 0 0 0 0 2 0 0 0 0 0 0 0 0 0 0 152 930 847 774 722 646 669 762
36 2 20 12 0 0 7 83 45 85 193 226 247 239 167 201 224 74 51 82 60 8 14 25 34 20 5 0 0 0 0 0 0 0 0 20 320 219 66 302 460 492 539
75 35 61 107 0 0 19 44 36 186 293 310 347 274 169 193 254 105 23 0 0 0 0 0 0 0 0 0 0 0 0 0 0 0 0 23 38 5 0 0 2 16 78
144 105 55 205 63 30 7 90 40 188 409 459 195 39 0 0 0 0 0 0 0 0 0 0 0 0 0 0 0 0 0 0 0 0 0 0 0 0 0 0 0 0 0
209 226 233 63 49 56 99 101 143 125 493 138 43 0 0 0 0 0 0 0 0 0 0 0 0 0 0 0 0 0 0 0 0 0 0 0 0 0 0 0 0 0 0
363 357 447 169 43 78 60 74 103 48 56 40 1 0 0 0 0 0 0 0 0 0 0 0 0 0 0 0 0 0 0 0 0 0 1 0 0 0 4 0 0 0 0
541 522 602 275 100 52 93 69 4 0 37 0 0 0 0 0 0 0 0 0 0 0 0 0 0 0 0 0 0 0 0 0 0 0 0 0 0 0 3 28 46 61 11
680 736 471 282 68 79 122 27 72 1 0 0 0 0 0 0 0 0 0 0 0 0 0 0 0 0 0 0 0 0 0 0 0 0 0 0 0 0 0 8 51 94 134
724 780 457 272 206 91 54 26 10 6 0 0 0 0 0 0 0 0 0 0 0 0 0 0 0 0 0 0 0 0 0 0 0 0 0 0 0 0 0 0 11 46 90
697 664 395 265 74 35 87 44 12 0 15 11 0 0 0 0 7 16 13 6 0 0 0 0 0 0 0 0 0 0 0 0 0 0 0 0 0 0 0 0 0 0 10
622 426 117 76 50 27 29 26 9 13 18 10 0 0 4 4 4 0 0 0 0 0 0 0 0 0 0 0 0 0 0 0 0 0 0 0 0 0 0 0 0 0 0
191 60 30 8 11 14 18 28 52 36 44 29 3 13 10 1 0 0 0 0 0 0 0 0 0 0 0 0 0 0 0 0 0 0 0 0 0 0 0 0 0 0 6
72 19 2 0 0 6 19 24 20 11 5 1 0 0 0 0 0 0 0 0 0 0 0 0 0 0 0 0 0 2 0 0 0 0 0 0 0 0 0 0 0 0 0
0 0 0 0 0 0 0 0 0 0 0 0 0 0 0 0 0 0 0 0 0 0 0 0 0 0 5 2 6 23 18 13 0 0 0 0 0 0 0 0 0 0 0
0 0 0 0 0 0 0 0 0 0 0 0 0 0 0 2 2 0 0 0 0 0 0 0 0 0 0 3 12 13 0 3 7 2 0 0 0 0 0 0 0 0 0
0 0 0 0 0 0 0 0 0 0 0 0 5 14 14 2 11 4 0 0 0 0 0 0 0 0 2 6 12 11 11 19 6 14 0 0 0 0 0 0 0 0 8

GFSSE_con_mucape_021.txt.gz
CAPE
455 524 762 927 1001 999 944 883 870 831 835 667 631 609 593 607 631 649 667 702 688 612 589 574 546 475 393 516 800 968 1051 981 1022 1053 1195 1259 1221 1368 1467 1598 1161 905 1420
454 494 712 891 1030 1059 981 996 1016 997 849 735 685 623 602 581 566 531 542 555 557 486 422 396 333 322 325 366 373 404 744 939 923 999 1090 993 1059 913 960 1571 1215 1322 1200
451 518 694 863 1068 1154 1122 1062 1091 881 735 775 742 702 606 478 435 554 541 386 197 120 86 47 22 22 28 89 240 383 371 327 456 704 775 468 683 873 788 1514 1342 1882 1515
450 534 720 927 1058 1183 1214 1194 1113 871 849 845 748 626 436 426 547 450 273 125 47 17 0 0 0 0 0 0 2 18 89 210 281 329 477 737 881 1000 828 713 1286 1422 1644
501 606 848 899 989 1125 1137 1105 1064 1115 1138 913 683 474 488 548 383 189 100 36 3 0 0 0 0 0 0 0 0 0 0 17 67 232 393 802 636 1051 1190 826 1050 1519 1759
588 754 826 874 973 1159 1197 1092 1067 1090 999 873 707 514 536 381 185 100 45 5 0 0 0 0 0 0 0 0 0 0 0 0 0 128 301 469 760 914 1138 669 646 1102 1025
661 756 891 906 937 1031 955 905 928 939 869 873 759 624 467 289 155 48 14 1 0 0 0 0 0 0 0 0 1 0 0 0 23 135 343 349 230 941 493 323 704 1110 1116
697 777 851 877 871 919 904 870 790 731 767 816 840 726 415 365 236 42 9 0 0 0 0 0 0 0 0 0 8 0 0 0 0 0 3 375 262 416 874 686 1052 1014 1237
733 639 611 607 619 590 512 488 486 562 608 640 698 706 557 413 249 164 31 0 0 0 0 0 0 0 0 0 0 0 0 0 0 67 142 352 380 736 809 1167 1380 1223 1059
294 197 142 179 222 174 179 233 289 349 354 445 475 344 205 180 152 128 35 13 0 0 0 9 11 5 0 0 0 0 0 0 0 0 0 147 722 668 511 757 1182 1265 1317
0 0 0 10 12 5 0 60 194 256 226 264 244 147 58 43 36 35 66 27 40 26 30 45 88 42 0 0 0 0 0 0 0 0 0 0 375 685 561 614 627 720 781
0 0 0 0 0 0 2 30 12 73 33 122 202 114 89 121 174 79 73 93 164 111 138 86 33 30 0 0 0 0 0 0 0 0 0 0 167 333 110 216 359 438 546
0 0 0 0 0 10 6 11 56 112 118 172 230 243 208 185 163 176 26 0 0 0 0 0 0 0 0 0 0 0 0 0 0 0 0 0 78 59 0 0 32 8 140
39 49 48 0 0 3 49 31 86 202 212 316 311 133 70 0 0 0 0 0 0 0 0 0 0 0 0 0 0 0 0 0 0 0 0 0 0 0 0 0 0 0 36
114 147 218 119 2 6 56 103 70 205 377 441 223 26 0 0 0 0 0 0 0 0 0 0 0 0 0 0 0 0 0 0 0 0 0 0 0 0 5 0 5 0 55
227 241 267 214 99 19 98 131 150 191 462 282 53 0 0 0 0 0 0 0 0 0 0 0 0 0 0 0 0 0 0 0 0 0 0 0 0 0 0 0 0 24 24
258 285 307 269 77 86 125 117 53 79 200 123 0 0 0 0 0 0 0 0 0 0 0 0 0 0 0 0 0 0 0 0 0 0 0 0 0 0 0 0 0 0 72
287 344 283 250 100 56 56 53 12 0 13 7 0 0 0 0 0 0 0 0 0 0 0 0 0 0 0 0 0 0 0 0 0 0 0 0 0 0 0 0 0 0 0
421 390 232 94 113 14 64 15 15 10 0 2 0 0 1 2 1 5 0 0 8 5 0 0 0 0 0 0 0 0 0 0 0 0 0 0 0 0 0 0 0 0 0
466 428 249 158 104 51 62 43 26 17 14 18 29 40 33 20 21 10 11 15 0 0 0 0 0 0 0 0 0 0 0 0 0 0 0 0 0 0 0 0 0 0 0
576 435 219 192 64 60 70 65 34 35 30 35 44 26 41 15 11 1 0 0 0 0 0 0 0 0 0 0 0 0 0 0 0 0 0 0 0 0 0 0 0 0 0
325 113 50 48 83 119 81 59 51 55 52 41 11 16 2 0 0 1 0 0 0 0 0 0 0 0 0 0 0 0 0 0 0 0 0 0 0 0 0 0 0 0 0
29 3 0 0 0 14 62 32 20 7 0 0 0 0 0 0 0 0 0 0 0 0 0 0 0 0 0 0 0 0 0 0 0 0 0 0 0 0 0 0 0 0 0
0 0 0 0 0 0 0 0 0 0 0 0 0 0 0 2 2 5 1 0 0 0 0 0 0 0 0 0 0 0 0 1 0 0 2 0 0 0 0 0 0 0 0
0 0 0 0 0 0 0 0 0 0 0 0 0 2 6 14 16 0 14 3 0 0 0 0 0 0 0 0 0 0 0 3 2 0 0 0 0 0 0 0 0 0 0
0 0 0 0 0 0 0 0 0 0 0 2 6 6 8 10 9 0 0 0 0 0 0 0 0 0 0 0 0 0 0 0 0 0 0 0 7 3 1 0 0 0 0

GFSSE_con_mucape_024.txt.gz
CAPE
298 569 812 1036 1043 942 841 752 757 740 720 589 549 538 510 514 512 494 458 622 485 352 317 269 214 181 199 232 271 379 587 657 711 776 840 868 1096 964 1126 1330 1021 1160 1424
397 657 822 979 1026 973 898 900 902 830 674 583 531 512 494 429 414 435 368 230 149 50 17 10 1 1 9 42 146 267 254 244 360 529 751 656 665 836 919 1297 1111 1214 1423
447 643 738 888 1045 1028 957 961 981 641 677 634 601 507 371 396 440 285 96 74 22 0 0 0 0 0 0 0 0 11 31 213 241 328 449 237 263 797 672 1389 1259 1719 1406
471 626 760 938 1043 1112 1097 1035 817 684 702 660 538 375 421 408 207 78 36 84 4 0 0 0 0 0 0 0 0 0 0 18 80 265 251 411 588 921 751 1015 1248 1293 1499
474 667 843 935 1011 1089 1022 990 963 968 865 645 459 412 454 225 59 19 9 54 1 0 0 0 0 0 0 0 0 0 0 0 0 88 198 506 393 567 1262 884 671 990 1156
543 755 829 842 922 1055 1045 1046 1102 1009 826 685 596 471 338 113 17 4 0 4 0 0 0 0 0 0 0 0 0 0 0 0 0 73 156 161 187 618 1133 622 696 892 935
572 686 721 784 894 1030 1028 960 999 859 772 719 722 595 274 114 30 5 0 0 0 0 0 0 0 0 13 37 3 0 0 0 0 0 11 168 83 197 765 733 604 1063 954
688 868 742 771 832 891 917 897 777 711 711 759 761 649 362 265 144 10 0 0 0 0 0 0 0 9 60 53 31 0 0 0 0 0 15 127 174 642 793 856 1173 1199 930
692 773 743 768 744 701 637 552 487 530 588 654 679 590 531 298 136 69 21 11 2 20 86 98 112 117 75 30 8 0 0 0 0 0 0 2 524 754 253 758 1186 1258 1279
708 766 763 685 606 421 306 292 321 390 411 446 540 422 254 125 66 56 0 8 101 126 152 146 195 165 104 49 15 0 0 0 0 0 0 0 194 538 276 175 325 805 995
518 398 338 262 105 10 8 141 314 343 339 342 345 214 56 0 0 0 6 76 156 129 154 180 86 57 0 0 0 0 0 0 0 0 0 0 1 274 299 255 641 649 546
50 11 3 0 0 0 0 23 7 62 117 151 123 121 81 108 75 13 13 8 2 0 0 0 0 0 0 0 0 0 0 0 0 0 0 0 0 27 0 32 324 306 314
0 0 0 0 0 0 0 0 0 20 116 144 186 193 162 155 156 101 0 0 0 0 0 0 0 0 0 0 0 0 0 0 0 0 0 0 0 0 0 0 70 102 25
0 0 0 0 0 0 0 0 44 101 158 254 265 279 170 87 4 0 0 0 0 0 0 0 0 0 0 0 0 0 0 0 0 0 0 0 0 0 0 0 0 59 77
19 65 25 0 0 0 0 9 92 172 250 418 369 122 62 2 0 0 0 0 0 0 0 0 0 0 0 0 0 0 0 0 0 0 0 0 0 0 0 0 0 0 0
79 133 194 115 4 0 11 57 80 200 379 539 351 77 11 2 0 0 0 0 0 0 0 0 0 0 0 0 0 0 0 0 0 0 0 0 0 0 0 0 0 0 0
131 161 275 261 49 5 6 63 107 245 344 531 232 21 0 0 0 0 0 0 0 0 0 0 0 0 0 0 0 0 0 0 0 0 0 0 0 0 0 0 0 0 0
211 257 273 288 58 14 51 29 105 111 169 201 103 1 0 4 7 5 8 9 12 5 3 4 0 0 0 0 0 0 0 0 0 0 0 0 0 0 0 0 0 0 0
240 287 284 247 53 24 22 63 39 49 21 54 34 21 35 34 12 24 22 3 3 0 1 0 0 0 0 0 0 0 0 0 0 0 0 0 0 0 0 0 0 0 0
183 271 263 171 61 54 86 68 39 51 42 21 40 39 40 12 0 1 4 0 0 0 0 0 0 0 0 0 0 0 0 0 0 0 0 0 0 0 0 0 0 0 0
209 302 186 183 99 95 72 66 75 57 40 33 14 1 1 0 0 0 0 0 0 0 0 0 0 0 0 0 0 0 0 0 0 0 0 0 0 0 0 0 0 0 0
289 233 53 35 23 28 27 36 23 22 7 6 1 0 0 0 0 0 0 0 0 0 0 0 0 0 0 0 0 0 0 0 0 0 0 0 0 0 0 0 0 0 0
6 0 0 9 10 0 0 0 0 0 0 0 0 0 0 0 0 0 0 1 1 0 0 0 0 0 0 0 0 0 0 0 0 0 0 0 0 0 0 0 0 0 0
0 0 0 0 0 0 0 0 0 0 0 0 0 0 1 3 0 2 3 2 0 0 0 0 0 0 0 0 0 0 0 0 0 0 0 0 0 0 0 0 0 0 0
0 0 0 0 0 0 0 0 0 0 0 0 0 2 7 4 0 2 0 0 0 0 0 0 0 0 0 0 0 0 0 0 0 0 0 0 0 0 5 0 0 0 0
0 0 0 0 0 0 0 0 0 0 0 0 0 3 1 0 0 0 0 0 0 0 0 0 0 0 0 0 0 0 0 0 0 0 0 0 0 0 0 11 0 0 0

GFSSE_con_mucape_027.txt.gz
CAPE
499 620 544 664 1009 855 780 759 698 677 657 561 511 491 468 448 394 508 463 512 344 67 19 3 2 4 34 99 172 196 208 258 316 438 609 727 756 759 879 1045 757 1015 1244
656 719 444 795 1011 895 883 863 782 726 623 471 446 421 375 368 331 227 282 210 74 0 0 0 0 0 0 0 1 21 75 162 237 347 477 413 300 850 840 1105 1170 1139 1159
821 838 564 656 1035 997 998 957 884 617 527 487 422 329 374 296 111 23 62 105 12 0 0 0 0 0 0 0 0 0 11 45 121 267 326 576 548 938 664 1120 1091 947 966
931 860 575 734 1065 1157 1095 858 803 639 575 508 380 397 295 82 13 7 3 53 11 0 0 0 0 0 0 0 0 0 0 0 0 36 424 820 686 779 1172 956 636 761 1066
911 853 877 846 1104 1181 1075 842 858 806 721 584 479 390 109 0 0 0 7 27 43 0 0 0 0 0 0 0 0 0 0 2 0 16 266 541 761 568 876 570 539 397 965
896 938 864 1010 1014 1112 1142 1069 999 865 694 622 608 393 38 0 0 0 23 44 4 0 0 0 0 0 10 20 0 0 0 0 0 0 285 386 159 442 819 799 840 736 1079
929 1058 1110 893 986 1139 1104 1026 996 785 698 703 714 512 241 0 0 0 28 39 13 0 0 0 0 3 34 48 0 0 0 0 0 0 290 555 605 824 733 740 966 967 958
817 994 1031 850 939 1017 1072 991 755 710 710 747 737 578 291 147 129 8 22 52 15 9 23 28 13 8 35 14 0 0 0 0 0 0 0 0 630 603 334 635 928 1245 1159
741 823 910 933 885 834 774 654 552 598 656 706 666 583 406 233 150 150 129 87 71 131 94 73 42 54 0 0 0 0 0 0 0 0 0 0 8 317 253 201 682 782 808
1087 1049 871 974 875 844 635 485 395 440 466 527 512 358 148 92 126 180 1 112 163 142 154 68 16 0 0 0 0 0 0 0 0 0 0 0 0 0 35 19 189 576 603
941 987 686 780 658 490 434 381 327 407 367 373 362 169 56 169 158 102 36 148 7 0 11 0 0 0 0 0 0 0 0 0 0 0 0 0 0 0 0 71 308 477 397
764 619 522 395 271 165 97 335 344 302 306 380 351 363 237 252 221 194 14 0 0 0 0 0 0 0 0 0 0 0 0 0 0 0 0 0 0 0 0 0 148 207 166
470 256 81 97 55 36 64 193 117 230 279 289 328 318 311 220 275 116 0 0 0 0 0 0 0 0 0 0 0 0 0 0 0 0 0 0 0 0 0 0 0 17 147
2 0 0 0 0 0 2 38 80 229 290 376 412 395 355 169 16 0 0 0 0 0 0 0 0 0 0 0 0 0 0 0 0 0 0 0 0 0 0 0 0 0 0
12 6 0 0 0 0 1 34 84 241 333 372 371 191 64 0 0 0 0 0 0 0 0 0 0 0 0 0 0 0 0 0 0 0 0 0 0 0 0 0 0 0 0
57 108 100 5 2 7 41 59 105 194 260 375 413 229 7 0 0 0 0 0 0 0 0 0 0 0 0 0 0 0 0 0 0 0 0 0 0 0 0 0 0 0 0
112 152 196 166 6 18 51 67 60 66 156 198 299 153 29 0 0 3 0 6 2 1 5 1 0 0 0 0 0 0 0 0 0 0 0 0 0 0 0 0 0 0 0
118 159 200 225 86 77 50 35 8 5 9 84 129 71 13 1 13 9 18 13 2 12 8 0 0 0 0 0 0 0 0 0 0 0 0 0 0 0 0 0 0 0 0
150 122 169 187 176 92 83 28 8 32 43 29 31 27 12 37 7 10 4 0 2 0 0 0 0 0 0 0 0 0 0 0 0 0 0 0 0 0 0 0 0 0 0
127 110 154 184 192 17 13 55 65 68 68 42 68 50 37 0 0 0 0 0 0 0 0 0 0 0 0 0 0 0 0 0 0 0 0 0 0 0 0 0 0 0 0
172 104 163 123 76 18 72 81 14 15 40 39 15 0 0 0 0 0 0 0 0 0 0 0 0 0 0 0 0 0 0 0 0 0 0 0 0 0 0 0 0 0 0
146 186 243 134 49 20 12 0 0 0 0 0 0 0 0 0 0 0 0 0 0 0 0 0 0 0 0 0 0 0 0 0 0 0 0 0 0 0 0 0 0 0 0
197 102 62 49 39 0 0 0 2 0 0 0 0 0 0 0 0 0 0 0 0 0 0 0 0 0 0 0 9 1 0 0 0 0 0 0 0 0 0 0 0 0 7
0 0 10 36 0 0 0 0 0 0 0 0 0 0 0 1 0 0 0 0 0 0 0 0 0 0 0 0 0 2 0 0 0 0 0 0 0 0 2 8 7 16 24
0 0 0 0 0 0 0 0 0 0 0 0 0 0 0 0 0 0 0 0 0 0 0 0 0 0 0 0 0 0 0 0 0 0 0 0 0 0 24 10 38 37 40
0 0 0 0 0 0 0 0 0 0 0 0 0 0 0 0 0 0 0 0 0 0 0 0 1 0 3 0 0 0 0 0 0 0 0 0 0 0 0 10 9 64 55

GFSSE_con_mucape_030.txt.gz
CAPE
512 414 730 843 934 843 779 736 716 719 743 563 530 498 461 406 409 385 362 280 148 0 0 0 0 0 0 0 6 51 94 152 237 338 434 489 610 654 1001 962 1097 888 1084
591 421 623 848 982 876 849 850 801 777 638 488 463 418 394 341 265 192 200 115 8 0 0 0 0 0 0 0 0 3 43 77 227 276 484 653 950 873 829 899 1167 871 978
747 490 468 753 965 994 922 756 728 578 495 449 366 378 239 78 0 0 99 42 2 0 0 0 0 0 0 0 0 1 21 17 27 136 622 432 806 1060 1021 817 837 743 729
777 598 564 719 1025 1167 1087 1047 886 565 490 367 376 237 71 0 0 0 1 25 17 0 0 0 0 0 0 0 0 0 18 3 0 108 419 629 561 782 940 541 248 328 803
779 771 812 802 1072 1004 1063 995 898 812 647 568 518 96 0 0 0 0 18 137 106 0 0 0 0 0 0 0 0 0 0 19 53 62 412 525 527 784 816 692 648 748 699
930 911 685 919 926 1100 1096 1100 898 802 680 674 514 222 0 0 0 0 137 183 22 0 0 0 0 0 0 0 0 0 0 0 16 6 181 441 676 798 736 563 1174 1093 983
879 1125 1111 763 818 1253 1206 1037 882 764 731 759 560 352 118 0 0 0 82 122 22 0 0 0 3 13 8 0 0 0 0 0 0 0 0 171 318 578 514 512 476 662 722
1175 1087 1015 700 891 1149 1221 1028 740 717 789 798 639 448 166 92 125 5 15 13 0 0 15 5 5 10 0 0 0 0 0 0 0 0 0 0 52 176 218 281 757 801 475
1040 1062 1051 1001 979 970 864 635 577 647 703 718 661 492 319 233 247 116 78 114 104 101 88 4 0 0 0 0 0 0 0 0 0 0 0 0 0 0 5 0 233 380 209
1006 1098 1032 846 788 822 626 475 462 482 529 567 498 263 155 177 179 39 167 118 10 88 11 0 0 0 0 0 0 0 0 0 0 0 0 0 0 0 0 0 0 72 161
989 925 1006 727 692 560 319 384 287 420 430 410 357 171 112 246 191 104 41 4 0 0 0 0 0 0 0 0 0 0 0 0 0 0 0 0 0 0 0 0 1 180 349
1048 1256 885 738 627 344 43 173 185 129 389 509 493 545 526 653 543 241 14 0 0 0 0 0 0 0 0 0 0 0 0 0 0 0 0 0 0 0 0 0 0 9 171
1195 655 617 579 347 63 74 134 162 528 684 817 833 847 919 851 873 324 16 6 0 0 0 0 0 0 0 0 0 0 0 0 0 0 0 0 0 0 0 0 0 0 0
396 211 141 155 208 153 85 185 466 635 739 778 925 1053 1049 986 610 94 10 0 0 0 0 0 0 0 0 0 0 0 0 0 0 0 0 0 0 0 0 0 0 0 0
54 63 25 70 97 217 346 537 688 844 938 1058 978 820 632 492 248 32 0 0 0 0 0 0 0 0 0 0 0 0 0 0 0 0 0 0 0 0 0 0 0 0 0
50 146 118 85 134 270 510 677 763 648 619 660 227 193 160 253 128 0 0 0 0 5 3 0 0 0 0 0 0 0 0 0 0 0 0 0 0 0 0 0 0 0 0
158 314 332 349 290 367 609 476 140 85 87 105 77 77 58 21 0 2 13 6 5 2 1 0 1 0 0 0 0 0 0 0 0 0 0 0 0 0 0 0 0 0 0
319 489 483 444 456 308 49 20 10 2 0 1 38 51 49 28 19 25 27 2 0 0 0 0 0 0 0 0 0 0 0 0 0 0 0 0 0 0 0 0 0 0 0
444 650 562 635 311 43 58 15 17 24 27 39 24 66 89 49 20 0 0 0 0 0 0 0 0 0 0 0 0 0 0 0 0 0 0 0 0 0 0 0 0 0 0
690 691 701 607 200 78 0 2 1 44 64 31 26 9 4 0 0 0 0 0 0 0 0 0 0 0 0 0 0 0 0 0 0 3 0 0 0 3 0 0 0 0 0
739 758 832 569 132 45 5 30 35 0 0 0 0 0 0 0 0 0 0 0 0 0 0 0 0 0 0 1 0 0 0 0 32 30 11 1 0 0 1 1 1 1 0
751 768 900 563 591 381 135 18 0 0 0 0 0 0 0 0 0 0 0 0 0 0 0 0 0 0 0 1 4 0 0 0 1 20 7 4 6 10 1 2 1 4 7
790 813 772 841 489 102 22 1 0 0 0 0 0 0 0 0 0 0 0 0 0 0 0 0 0 0 0 1 13 9 0 0 0 3 14 19 19 5 4 4 10 10 25
881 854 762 218 1 0 0 0 15 6 11 0 0 0 0 0 0 0 0 0 0 0 0 0 0 11 16 0 10 17 33 24 0 0 25 25 28 4 1 3 15 6 20
4 153 362 36 0 0 0 0 0 0 0 0 0 0 0 0 0 0 0 0 0 6 19 9 13 41 32 27 28 30 35 23 21 29 0 24 10 9 15 15 6 7 15
0 0 0 0 0 0 0 0 0 0 0 0 0 0 0 0 1 5 7 15 28 38 44 40 55 68 70 66 48 29 30 36 34 33 8 0 0 1 16 19 21 23 11

GFSSE_con_mucape_033.txt.gz
CAPE
254 131 655 826 766 748 702 630 665 719 718 554 537 464 393 379 296 324 240 163 64 0 0 0 0 0 0 0 7 33 55 146 291 336 454 578 808 792 760 718 1107 349 950
261 133 581 833 800 776 694 750 782 745 583 500 458 401 353 262 271 184 173 80 11 0 0 0 0 0 0 3 13 30 33 36 89 363 562 813 933 858 737 510 1085 593 838
370 221 302 756 903 873 735 679 694 514 453 413 402 273 144 57 0 29 96 67 0 0 0 0 0 0 0 0 0 24 45 13 26 347 968 364 575 820 516 745 657 562 742
473 292 302 757 996 1035 986 859 713 496 398 382 261 98 46 0 0 0 4 157 12 0 0 0 0 0 0 0 0 0 0 40 250 477 224 203 314 689 540 778 690 524 672
414 391 662 828 1047 1118 1079 888 772 644 596 529 278 38 0 0 0 0 165 202 124 0 0 0 0 0 0 0 0 0 0 0 16 18 138 247 259 543 498 286 409 553 609
573 673 541 721 944 1061 1134 918 623 580 686 479 266 92 0 0 0 43 270 246 30 0 0 0 0 0 0 0 0 0 0 0 0 9 37 202 277 436 580 178 505 497 699
775 873 782 694 748 1077 1047 730 607 656 736 530 327 165 4 0 0 18 69 57 4 0 0 0 0 0 0 0 0 0 0 0 0 0 1 0 2 148 189 265 176 108 130
595 581 787 643 745 1051 1068 743 636 694 744 622 426 269 36 53 109 29 48 52 48 46 8 0 0 0 0 0 0 0 0 0 0 0 0 0 2 14 0 0 341 399 87
538 608 849 667 776 761 562 488 512 633 661 676 560 363 274 315 326 243 190 139 105 91 1 0 0 0 0 0 0 0 0 0 0 0 2 0 0 0 0 0 15 144 50
702 1141 1028 858 625 625 486 397 457 504 514 505 323 198 150 116 68 196 172 10 81 22 0 0 0 0 0 0 0 0 0 0 0 0 7 0 0 0 0 0 0 0 294
875 614 751 506 548 469 256 301 381 547 502 346 143 124 46 121 138 164 0 14 5 0 0 0 0 0 0 0 0 0 0 0 0 0 0 0 0 0 0 0 0 0 0
935 673 666 585 487 269 0 48 36 154 189 325 304 287 578 434 555 125 0 0 0 0 0 0 0 0 0 0 0 0 0 0 0 0 0 0 0 0 0 0 0 0 0
888 430 516 534 344 25 87 88 165 403 534 597 660 773 844 560 695 592 84 48 49 0 3 0 0 0 0 0 0 0 0 0 0 0 0 0 0 0 0 0 1 0 0
407 338 291 202 116 118 25 127 359 522 709 797 846 887 773 1051 713 329 67 27 25 0 0 0 0 0 0 0 0 0 0 0 0 0 0 0 0 0 0 0 0 0 0
135 32 30 59 137 213 273 512 719 830 955 1052 1105 961 691 699 1174 329 93 21 15 1 1 1 0 0 0 0 0 0 0 0 0 0 0 0 0 0 0 0 0 0 0
73 78 51 90 220 454 664 783 969 992 894 897 803 735 350 276 525 253 86 4 4 0 0 0 0 0 0 0 0 0 0 0 0 0 0 0 0 0 0 0 0 0 0
183 220 191 322 472 725 714 294 101 42 37 118 308 259 174 255 110 165 67 12 7 0 1 0 0 0 0 0 0 0 0 0 0 0 0 0 0 0 0 0 0 0 0
381 358 422 397 636 552 166 29 17 45 78 101 50 39 38 17 50 28 28 0 0 0 0 0 0 0 0 0 0 0 0 0 0 0 0 1 1 0 0 0 0 0 0
599 625 591 672 527 194 29 8 12 30 0 5 1 17 31 23 7 0 0 0 0 0 0 0 0 0 0 0 0 0 0 0 0 0 0 3 7 4 8 0 20 4 0
651 912 784 746 407 149 35 21 0 0 0 8 15 9 0 0 0 0 0 0 0 0 0 0 0 0 0 0 0 0 0 0 0 1 10 12 7 13 9 18 17 11 44
987 1010 953 955 537 237 240 59 27 33 4 0 0 0 0 0 0 0 0 0 0 0 0 0 0 0 0 0 0 0 0 0 4 9 7 7 5 6 9 11 17 17 12
1084 1087 892 771 597 442 464 182 50 7 3 1 0 0 0 0 0 0 0 0 0 0 0 0 0 0 0 1 0 0 0 0 0 0 0 2 15 13 14 10 14 22 20
811 831 857 721 633 639 312 68 51 63 28 0 0 0 0 0 0 0 0 0 0 0 0 0 4 3 0 5 9 3 0 0 0 1 1 2 28 9 21 14 8 7 12
990 916 1047 931 721 255 43 33 57 52 18 28 9 1 0 0 0 0 0 0 0 0 2 8 10 17 25 0 15 12 18 16 0 0 7 15 19 28 63 18 16 9 4
1103 950 816 449 60 4 23 37 66 32 41 18 2 0 0 0 2 0 0 7 9 13 19 28 37 39 38 29 28 19 20 17 16 22 0 27 23 10 12 27 22 32 16
487 617 439 4 3 0 0 4 10 7 0 0 4 0 0 0 0 0 4 9 15 20 34 47 49 27 56 58 60 37 34 34 34 46 42 32 36 6 25 40 66 60 59

GFSSE_con_mucape_036.txt.gz
CAPE
225 254 648 783 780 697 635 633 653 646 654 613 497 479 372 277 216 185 147 66 24 0 0 0 0 0 0 15 38 47 56 75 195 458 701 730 636 557 368 661 743 226 1070
158 184 546 681 715 719 745 754 683 651 581 350 361 341 240 203 193 148 98 38 48 0 0 0 0 0 0 0 2 57 63 188 266 525 673 561 614 376 229 665 816 711 999
51 163 329 632 750 795 887 817 676 571 348 301 191 219 176 143 67 154 114 76 119 0 0 0 0 0 0 0 0 0 1 85 154 337 450 219 283 544 486 856 791 991 947
99 96 278 703 865 991 898 762 596 445 332 285 204 164 126 8 0 34 173 165 144 0 0 0 0 0 0 0 0 0 0 3 40 129 165 112 152 500 227 788 685 374 839
120 213 510 655 839 1004 898 757 586 613 374 227 176 58 0 0 47 57 272 235 135 0 0 0 0 0 0 0 0 0 0 5 36 94 40 86 75 523 165 34 1 103 649
233 441 482 597 875 1016 972 764 710 568 308 211 140 126 5 65 108 110 272 214 28 0 0 0 0 0 0 0 0 0 0 0 7 49 7 40 43 338 276 157 440 372 403
481 385 415 569 736 996 843 715 725 503 336 245 188 202 171 52 62 100 266 226 88 0 0 0 0 0 8 12 0 0 0 0 0 2 0 0 16 92 8 24 153 347 216
221 269 363 638 897 789 776 686 663 526 377 306 250 242 230 171 242 274 299 261 180 42 0 0 0 0 0 0 0 0 0 0 0 7 0 0 78 63 10 47 286 306 186
163 200 282 670 742 444 400 452 538 515 436 365 343 309 333 349 356 415 326 234 102 6 0 0 0 0 0 0 0 0 0 5 0 0 0 0 97 18 56 64 52 166 409
139 292 335 627 558 271 269 354 413 411 354 245 195 146 111 84 235 327 79 173 98 0 0 0 0 0 0 0 0 0 0 0 0 0 0 0 0 0 0 0 54 90 138
179 222 382 499 349 230 295 371 416 469 300 174 102 101 47 57 73 51 16 60 11 0 0 0 0 0 0 0 0 0 0 0 0 0 0 0 0 0 0 3 4 5 38
117 301 296 502 296 144 28 148 144 168 29 30 30 161 217 465 118 7 0 0 0 0 0 0 0 0 0 0 0 0 0 0 0 0 0 0 0 0 0 0 3 4 2
143 294 380 363 246 14 5 38 77 172 310 466 509 652 857 805 329 173 0 0 4 0 0 0 0 0 0 0 0 0 0 0 0 0 0 0 0 0 0 0 0 1 0
309 345 299 244 311 83 71 70 380 560 467 850 823 834 851 862 755 261 160 164 40 34 0 2 0 0 0 0 0 0 0 0 0 0 0 0 0 0 0 0 0 0 0
238 258 202 220 313 373 449 714 632 631 910 917 905 830 760 539 698 287 96 36 4 0 3 0 0 1 0 0 0 0 0 0 0 0 0 0 0 0 0 0 0 0 0
127 151 139 175 450 502 751 646 585 805 911 614 535 556 265 147 232 186 9 0 0 0 1 0 0 0 0 0 0 0 0 0 0 0 0 0 0 0 0 0 0 0 0
53 70 123 254 487 738 725 417 258 239 26 142 307 248 188 79 40 22 2 2 9 0 0 0 0 0 0 0 0 0 0 0 0 0 0 0 0 1 0 0 0 0 0
111 83 261 423 660 369 251 185 8 57 18 9 20 9 6 2 2 4 15 0 0 0 0 0 0 0 0 0 0 0 0 0 0 0 0 0 0 0 1 1 5 0 0
200 267 394 671 414 218 24 25 6 0 0 0 0 0 2 1 5 0 0 0 0 0 0 0 0 0 0 0 0 0 0 0 0 0 0 0 0 1 0 6 47 23 5
434 499 569 567 413 136 20 13 2 0 0 0 0 6 8 1 0 0 0 0 0 0 0 0 0 0 0 0 0 0 0 0 0 0 0 9 8 9 5 0 0 0 34
872 747 709 527 293 60 99 96 30 3 0 0 0 0 0 0 0 0 0 0 0 0 0 0 0 0 0 0 0 0 0 0 0 0 0 0 0 8 9 0 0 0 0
1013 904 691 530 283 218 312 216 82 2 0 0 0 0 0 0 0 0 0 0 0 0 0 0 0 0 0 0 0 0 0 0 0 0 0 0 0 2 0 0 0 0 0
1139 845 702 762 670 346 354 84 6 0 0 0 0 0 0 0 0 0 0 0 0 0 0 0 0 0 0 0 0 0 0 0 0 0 0 0 0 0 0 0 0 0 0
1076 837 796 559 625 663 315 11 0 0 0 0 0 0 0 0 0 0 0 0 0 0 0 0 0 0 0 0 0 0 0 0 0 0 0 0 0 0 0 0 0 0 0
700 691 669 719 693 317 56 2 28 84 25 3 0 3 7 0 0 0 0 0 0 0 0 0 11 24 15 7 0 1 0 0 0 0 0 0 0 0 0 0 0 0 0
840 886 943 597 164 48 0 12 39 27 0 0 0 0 0 0 0 0 0 0 0 0 0 0 0 7 2 7 16 9 0 0 0 0 0 0 0 0 0 0 0 0 0

GFSSE_con_mucape_039.txt.gz
CAPE
485 700 811 1002 914 788 713 676 627 523 481 411 281 225 176 128 77 12 32 89 94 0 0 0 0 0 0 0 5 9 12 54 473 678 524 427 353 186 193 428 630 432 768
522 628 668 805 811 793 820 763 613 481 372 221 221 153 121 98 60 44 139 89 36 0 0 0 0 0 0 0 0 0 0 19 213 621 573 398 477 427 339 450 679 712 890
529 503 528 578 806 885 915 787 605 453 266 190 155 113 68 83 64 138 138 66 39 0 0 0 0 0 0 0 0 0 32 36 23 319 533 100 85 235 214 691 604 842 617
416 351 398 594 787 869 791 627 488 287 225 184 130 60 140 85 58 141 170 89 61 0 0 0 0 0 0 0 0 1 20 139 276 440 41 89 144 195 0 0 0 55 362
199 315 587 668 683 750 657 581 371 263 210 139 104 111 67 41 45 47 205 95 61 0 0 0 0 0 0 0 0 0 12 51 277 44 54 37 60 145 178 3 0 0 58
199 356 504 512 594 775 756 551 318 229 125 116 165 219 91 100 84 79 211 155 6 0 0 0 0 0 0 0 0 0 0 53 0 0 0 48 41 86 33 1 219 110 185
313 340 328 326 538 750 796 474 311 215 163 179 244 246 219 72 55 76 243 201 28 0 0 0 0 0 0 0 0 0 0 23 0 0 0 8 31 75 53 45 69 92 27
214 189 141 244 443 526 598 391 265 219 213 232 248 275 232 220 246 234 287 243 56 0 0 0 0 0 0 0 0 0 0 8 0 0 0 11 167 85 81 51 132 281 475
67 92 154 343 371 385 351 249 222 212 218 256 267 251 253 257 287 326 326 241 27 2 0 0 0 0 0 0 0 0 0 0 0 0 0 0 81 6 0 9 56 134 170
112 99 366 223 195 203 239 212 170 158 166 162 138 110 124 141 164 87 188 201 39 0 0 0 0 0 0 0 0 0 0 0 0 0 0 0 0 0 0 0 7 14 14
124 132 149 173 161 150 154 160 136 145 84 85 88 57 26 5 6 0 0 11 0 0 0 0 0 0 0 0 0 0 0 0 0 0 0 0 0 0 0 0 0 4 3
87 201 206 186 100 81 88 48 37 33 4 22 61 70 71 58 15 0 0 0 0 0 0 0 0 0 0 0 0 0 0 0 0 0 0 0 0 0 0 0 0 1 1
30 169 236 207 38 1 1 1 3 3 0 12 116 144 173 73 4 0 0 0 0 0 0 0 0 0 0 0 0 0 0 0 0 0 0 0 0 0 0 0 0 0 2
110 123 198 160 4 0 0 13 147 169 157 221 309 427 252 285 200 135 4 1 0 0 0 0 0 0 0 0 0 0 0 0 0 0 0 0 0 0 0 0 0 0 0
149 194 214 72 0 0 12 158 196 348 352 475 468 420 398 314 156 16 0 0 0 0 0 0 0 0 0 0 0 0 0 0 0 0 0 0 0 0 0 0 0 0 0
242 243 191 17 3 172 347 322 366 431 475 549 574 495 335 197 155 32 4 0 0 1 0 0 0 0 0 0 0 0 0 0 0 0 0 0 0 0 0 0 0 0 0
90 9 15 25 246 373 326 263 313 321 334 361 122 36 55 12 1 0 6 0 0 0 0 0 0 0 0 0 0 0 0 0 0 0 0 0 0 10 10 0 0 0 0
12 0 29 205 432 343 250 159 163 87 0 5 0 8 4 0 7 0 0 0 0 0 0 0 0 0 0 0 0 0 0 0 0 0 0 0 0 0 9 17 0 0 0
14 3 114 431 468 288 222 128 41 0 0 0 0 4 4 2 0 0 0 0 0 0 0 0 0 0 0 0 0 0 0 0 0 0 0 0 0 0 1 2 1 0 0
118 125 430 505 471 315 166 35 10 0 0 0 0 0 0 6 8 1 0 0 0 0 0 0 0 0 0 0 0 0 0 0 0 0 0 0 0 0 0 3 1 2 0
181 259 475 451 332 117 59 32 60 9 1 0 0 0 0 0 0 0 0 0 0 0 0 0 0 0 0 0 0 0 0 0 0 0 0 0 0 0 0 3 4 6 2
335 412 477 516 275 143 44 52 76 7 0 0 0 0 0 0 0 0 0 0 0 0 0 0 0 0 0 0 0 0 0 0 0 0 0 0 0 0 0 0 3 2 0
456 517 520 558 401 130 48 70 27 0 0 0 0 0 0 0 0 0 0 0 0 0 0 0 0 0 0 0 0 0 0 0 0 0 0 0 0 0 0 0 0 0 0
656 715 675 558 461 162 195 203 3 0 0 0 0 0 0 0 0 0 0 0 0 0 0 0 0 0 0 0 0 0 0 0 0 0 0 0 0 0 0 0 0 0 0
812 814 638 569 410 207 329 35 0 0 0 0 0 0 0 0 0 0 0 0 0 0 0 0 0 0 0 0 0 0 0 0 0 0 0 0 0 0 0 0 0 0 0
841 821 745 572 336 456 485 4 0 0 0 0 0 0 2 2 0 0 0 0 0 0 0 0 0 0 0 0 0 0 0 0 0 0 0 0 0 0 0 0 0 0 0

GFSSE_con_mucape_042.txt.gz
CAPE
770 822 840 915 840 771 690 612 494 393 269 190 162 126 60 48 76 95 99 76 20 0 0 0 0 0 0 0 0 0 35 440 547 558 424 379 323 269 266 364 479 304 530
923 808 764 801 820 792 751 627 457 304 180 107 138 105 68 124 136 37 54 11 0 0 0 0 0 0 0 0 0 0 0 365 496 494 250 169 125 122 88 206 691 414 566
1025 742 607 622 784 837 788 644 385 234 69 59 85 138 112 136 20 104 59 24 7 0 0 0 0 0 0 0 10 476 125 311 488 491 227 0 0 0 0 24 59 148 434
762 598 525 633 724 802 662 476 254 117 65 126 114 128 202 151 20 64 116 71 45 0 0 0 0 0 0 0 3 300 504 518 256 36 3 0 1 45 0 0 0 0 0
581 470 623 579 615 687 565 325 200 154 137 207 214 184 139 53 31 27 153 96 72 0 0 0 0 0 0 0 0 24 42 31 18 2 10 0 0 7 0 0 0 0 0
462 529 585 574 531 629 501 321 208 140 155 230 264 260 124 52 36 65 169 125 40 0 0 0 0 0 0 0 0 4 16 0 0 0 0 1 0 0 0 0 0 0 0
533 458 364 451 540 493 421 314 214 185 238 268 275 271 205 49 36 71 155 106 48 0 0 0 0 0 0 0 0 0 0 0 0 0 0 0 1 20 0 9 5 81 85
186 131 194 259 355 312 285 258 200 228 282 273 262 237 237 222 184 191 139 108 51 9 0 0 0 0 0 0 0 0 0 0 0 0 0 0 67 0 0 2 88 111 94
95 88 51 176 349 278 228 207 161 190 220 228 199 199 219 225 258 281 194 72 27 0 0 0 0 0 0 0 0 0 0 0 0 0 0 0 0 0 0 1 8 12 18
21 39 118 79 170 281 180 156 163 164 167 133 131 145 148 182 207 232 156 57 5 0 0 0 0 0 0 0 0 0 0 0 0 0 0 0 0 0 1 0 1 2 7
60 125 120 66 206 242 120 96 129 173 123 121 123 81 8 0 0 2 4 6 0 0 0 0 0 0 0 0 0 0 0 0 0 0 0 0 0 0 1 1 0 0 1
4 4 104 138 190 155 86 42 22 32 18 8 5 0 9 0 0 0 0 0 0 0 0 0 0 0 0 0 0 0 0 0 0 0 0 0 0 0 0 0 1 0 0
66 45 131 166 131 70 34 4 0 0 23 47 39 14 21 13 0 0 0 0 0 0 0 0 0 0 0 0 0 0 0 0 0 0 0 0 0 0 4 0 0 0 0
48 118 169 106 40 7 0 0 0 0 27 120 122 115 117 25 58 3 0 0 0 0 0 0 0 0 0 0 0 0 0 0 0 0 0 0 0 0 1 0 0 0 0
25 103 151 33 11 3 0 0 5 8 42 181 319 318 286 204 121 0 0 0 0 0 0 0 0 0 0 0 0 0 0 0 0 0 0 0 0 0 11 0 0 0 0
41 90 240 70 4 3 34 151 148 188 340 404 390 322 209 181 42 7 3 0 0 0 0 0 0 0 0 0 0 0 0 0 0 0 0 0 1 28 6 0 0 0 0
167 240 250 40 5 124 163 202 320 444 433 488 427 308 255 177 64 42 0 0 0 0 0 0 0 0 0 0 0 0 0 0 0 0 0 0 0 17 22 0 0 0 0
259 257 199 106 147 231 231 333 455 335 370 296 0 0 27 43 0 0 0 0 0 0 0 0 0 0 0 0 0 0 0 0 0 0 0 0 0 0 9 0 0 0 0
340 278 137 255 264 315 362 311 311 191 84 0 0 0 0 0 0 0 0 0 0 0 0 0 0 0 0 0 0 0 0 0 0 0 0 0 0 0 0 0 0 0 0
207 54 220 357 341 383 381 280 110 31 0 0 0 0 0 0 0 0 0 0 0 0 0 0 0 0 0 0 0 0 0 0 0 0 0 0 0 0 0 0 0 0 0
131 102 237 392 392 357 299 204 84 40 3 0 0 0 0 0 0 0 0 0 0 0 0 0 0 0 0 0 0 0 0 0 0 0 0 0 0 0 0 0 0 0 0
195 229 219 347 425 446 309 168 35 50 7 1 0 2 8 0 0 0 0 0 0 0 0 0 0 0 0 0 0 0 0 0 0 0 0 0 0 0 0 0 0 0 0
244 295 291 423 482 485 217 78 56 73 28 16 2 0 0 0 0 0 0 0 0 0 0 0 0 0 0 0 0 0 0 0 0 0 0 0 0 0 0 0 0 0 0
265 297 359 457 465 270 175 70 46 81 32 11 0 0 0 0 0 0 0 0 0 1 0 0 0 0 0 0 0 0 0 0 0 0 0 0 0 0 0 0 0 0 0
295 349 423 486 467 387 290 130 58 63 2 0 0 0 0 0 0 0 0 0 0 2 1 0 0 0 0 0 0 0 0 0 0 0 0 0 0 0 0 0 0 0 0
330 411 607 602 649 586 250 203 196 81 1 0 0 0 0 3 6 0 0 0 0 5 3 0 0 0 0 0 0 0 0 0 0 0 0 0 0 0 0 0 0 0 0

GFSSE_con_mucape_045.txt.gz
CAPE
788 859 925 917 833 756 620 517 316 175 116 56 40 79 94 104 108 119 74 35 0 0 0 0 0 0 0 0 0 309 327 430 433 498 304 150 137 107 181 249 249 155 346
778 868 884 892 832 759 657 431 252 157 69 8 50 155 138 136 129 77 15 0 0 0 0 0 0 0 44 22 7 285 427 394 377 246 49 49 0 0 0 2 195 134 285
1063 880 776 735 827 732 600 411 201 103 8 5 29 128 142 130 97 56 39 23 25 7 0 0 0 68 245 264 240 447 499 364 314 233 33 0 0 0 0 0 0 0 2
993 789 658 734 745 704 502 298 141 37 23 78 170 118 127 17 87 113 97 62 36 46 3 0 0 0 24 259 433 452 255 103 79 0 0 0 0 0 0 0 0 0 0
860 610 602 660 632 599 418 184 110 134 160 172 230 130 142 52 46 57 134 72 42 38 1 0 0 0 0 41 59 105 35 0 0 0 0 0 0 3 2 0 0 0 0
801 569 384 483 541 514 378 289 219 251 219 234 262 228 179 71 45 106 142 80 57 28 0 0 0 0 0 0 0 0 0 0 0 0 0 0 0 8 11 8 10 9 13
756 526 405 372 492 534 357 277 302 318 307 346 342 250 204 151 83 153 162 111 53 21 0 0 0 0 0 0 0 0 0 0 0 0 0 0 0 4 9 23 22 19 18
482 395 160 186 283 428 365 264 311 401 393 370 326 244 236 179 156 131 123 87 64 24 11 0 0 0 0 0 0 0 0 0 0 0 0 0 0 0 7 10 7 5 7
274 163 14 48 215 374 330 244 293 399 414 359 301 287 252 197 149 136 92 49 39 10 0 0 0 0 0 0 0 0 0 0 0 0 0 0 1 3 1 1 0 1 4
13 22 17 8 188 251 230 243 275 349 356 338 309 242 216 247 190 137 86 33 0 0 0 0 0 0 0 0 0 0 0 0 0 0 0 0 0 11 6 0 0 1 1
4 60 18 17 135 190 166 209 329 372 303 219 212 171 47 29 18 0 3 0 0 0 0 2 0 0 0 0 0 0 0 0 0 0 0 8 0 11 11 3 0 0 0
1 4 7 19 49 165 83 102 138 127 70 36 20 16 2 0 0 0 0 11 0 0 0 0 0 0 0 0 0 0 0 0 0 0 0 0 0 9 20 2 0 0 0
16 0 110 45 200 182 85 81 61 39 8 3 6 5 1 0 0 0 0 0 0 0 0 0 0 0 0 0 0 0 0 0 0 0 0 0 0 1 14 3 0 0 0
2 8 76 82 216 161 75 27 15 0 7 18 21 47 34 0 0 0 0 0 0 0 0 0 0 0 0 0 0 0 0 0 0 0 0 0 0 0 22 4 0 0 0
3 41 146 162 181 102 36 6 0 27 87 157 134 163 119 39 43 3 1 0 0 0 0 0 0 0 0 0 0 0 0 0 0 0 0 0 0 0 21 7 0 14 0
51 106 134 116 78 30 6 1 0 29 102 268 385 314 327 195 93 27 0 0 0 0 0 1 4 0 0 0 0 0 0 0 0 0 0 0 0 24 5 0 0 4 2
29 164 114 189 60 1 0 1 16 146 260 359 406 317 182 194 97 66 20 0 0 0 0 2 0 0 0 0 0 0 0 0 0 0 0 0 0 0 0 0 0 0 0
41 122 208 307 45 6 19 29 136 329 473 480 421 285 254 215 219 90 38 11 0 0 0 0 0 0 0 0 0 0 0 0 0 0 0 0 0 0 0 0 0 0 0
70 176 266 331 33 17 54 206 283 476 529 449 292 37 54 153 68 16 0 3 2 0 0 0 0 0 0 0 0 0 0 0 0 0 0 0 0 0 0 0 0 0 0
203 315 332 316 15 30 145 263 427 456 429 262 2 0 0 5 2 0 0 1 0 0 0 0 0 0 0 0 0 0 0 0 0 0 0 0 0 0 0 0 0 0 0
369 396 409 370 61 121 293 338 406 385 272 54 0 0 0 6 0 0 0 0 0 0 0 0 0 0 0 0 0 0 0 0 0 0 0 0 0 0 0 0 0 0 0
490 436 315 165 200 355 390 374 381 275 102 29 9 0 0 0 0 0 0 0 0 0 0 0 0 0 0 0 0 0 0 0 0 0 0 0 0 0 0 0 0 0 0
501 428 259 176 295 364 422 416 363 230 71 53 30 9 3 0 0 0 0 0 0 0 0 0 0 0 0 0 0 0 0 0 0 0 0 0 0 0 0 0 0 0 0
435 321 153 118 270 318 399 383 319 199 41 48 65 50 33 18 0 0 0 0 0 0 0 0 0 0 0 0 0 0 0 0 0 0 0 0 0 0 0 0 0 0 0
442 165 164 192 186 327 396 441 321 113 57 58 69 55 19 0 0 0 0 0 0 3 18 14 8 0 0 0 0 0 0 0 0 0 0 0 0 0 0 0 0 0 0
319 107 106 179 257 250 487 439 221 147 61 65 17 4 0 0 0 0 1 10 14 1 1 5 2 0 0 0 0 0 0 0 0 0 0 0 0 0 0 0 0 0 0

GFSSE_con_mucape_048.txt.gz
CAPE
805 765 818 900 765 597 448 301 215 151 105 97 119 126 108 113 118 95 44 33 31 3 0 0 0 0 196 349 165 171 184 224 261 228 15 1 0 0 1 63 91 98 244
862 792 806 875 800 600 393 240 139 91 110 95 135 162 176 139 77 33 46 49 50 4 20 164 195 74 123 276 330 322 203 250 212 62 1 2 2 0 0 0 0 0 67
884 865 829 825 808 553 369 226 130 96 53 52 97 151 152 108 73 79 56 67 72 71 253 341 263 181 249 354 479 289 43 37 60 21 0 0 0 1 1 0 2 0 0
971 780 704 813 674 491 302 185 87 68 87 196 164 123 146 142 149 142 87 80 65 76 52 200 404 491 452 393 320 100 0 0 0 0 0 0 0 5 5 4 3 4 1
903 706 627 680 522 419 284 153 145 185 289 251 218 147 109 180 175 165 91 95 88 44 4 3 79 116 72 63 6 0 0 0 0 0 0 0 0 10 14 18 15 16 13
903 684 543 458 418 340 301 256 288 296 341 265 217 236 228 198 142 191 108 92 109 28 0 0 0 1 0 0 0 0 0 0 0 0 0 0 0 14 17 11 11 14 18
826 666 513 325 351 405 411 414 392 375 427 374 317 273 289 267 188 202 130 67 77 53 14 0 0 0 0 0 0 0 0 0 0 0 0 0 0 17 14 8 5 6 7
660 463 356 350 249 282 321 429 400 417 468 429 374 318 318 251 199 190 141 82 35 22 19 9 0 0 0 0 0 0 0 0 0 0 0 0 12 15 12 5 4 4 6
363 217 87 91 77 196 238 309 346 421 480 421 402 365 279 224 171 139 115 101 73 43 1 0 0 0 0 0 0 0 0 0 0 0 0 0 15 13 8 2 2 4 6
285 171 53 31 59 139 212 257 299 297 377 374 384 322 236 213 162 112 74 70 108 64 26 0 0 0 0 0 0 0 0 0 0 0 0 0 14 16 18 2 1 0 1
114 15 20 13 130 181 212 298 298 356 343 351 297 256 72 24 3 0 19 29 61 25 3 0 0 0 0 0 0 0 0 0 0 0 0 19 8 20 21 5 0 0 0
94 45 22 2 16 111 134 179 211 224 155 104 69 22 5 1 0 0 0 0 48 0 0 0 0 0 0 0 0 0 0 0 0 0 0 0 0 19 21 16 0 0 0
28 31 7 2 1 90 110 110 106 76 34 35 36 6 1 0 0 0 0 0 0 0 0 0 0 0 0 0 0 0 0 0 0 0 0 0 0 4 19 14 8 2 0
14 0 6 2 0 51 119 81 61 28 9 1 0 2 0 0 0 0 0 0 0 0 0 0 0 0 0 0 0 0 0 0 0 0 0 0 0 0 20 9 13 13 3
10 4 0 0 45 143 116 45 26 2 1 2 80 82 38 0 0 0 2 0 0 0 0 0 0 0 0 0 0 0 0 0 0 0 0 0 0 0 20 8 11 11 7
0 2 21 80 73 188 57 18 14 3 31 51 75 164 104 12 36 3 9 2 0 0 0 0 0 1 0 0 0 0 0 0 0 0 0 0 0 26 1 0 0 4 3
0 0 56 209 117 138 43 0 0 0 83 208 210 230 325 158 118 84 30 25 0 0 7 2 3 0 0 0 0 0 0 0 0 0 0 0 0 0 0 0 0 0 0
17 92 123 190 125 90 14 0 0 33 104 199 397 345 294 254 154 116 80 50 25 10 7 0 0 0 0 0 0 0 0 0 0 0 0 0 0 0 0 0 0 0 0
10 88 214 235 236 94 2 0 0 26 212 311 283 281 167 193 158 149 26 30 9 23 0 0 0 0 0 0 0 0 0 0 0 0 0 0 0 0 0 0 0 0 0
3 52 155 212 312 77 0 0 5 108 322 297 299 308 173 121 69 45 32 17 16 21 0 0 0 0 0 0 0 0 0 0 0 0 0 0 0 0 0 0 0 0 0
11 91 137 218 307 45 0 10 100 288 386 343 237 91 0 0 1 3 6 9 25 0 0 0 0 0 0 0 0 0 0 0 0 0 0 0 0 0 0 0 0 0 0
64 88 184 300 318 109 29 46 152 276 350 314 232 82 12 1 1 7 15 18 0 0 0 0 0 0 0 0 0 0 0 0 0 0 0 0 0 0 0 0 0 0 0
240 167 256 416 410 242 45 56 130 236 282 165 78 53 39 38 16 6 4 0 0 0 0 0 0 0 0 0 0 0 0 0 0 0 0 0 0 0 0 0 0 0 0
424 319 411 501 493 389 73 67 234 296 276 126 59 35 15 47 14 0 0 0 0 0 0 0 1 7 3 0 0 0 0 0 0 0 0 0 0 0 0 0 0 0 0
507 439 546 571 477 199 95 195 292 320 365 264 57 27 44 43 26 10 0 0 0 0 0 3 4 0 0 0 0 3 0 0 0 0 0 0 0 0 0 0 0 0 0
586 550 570 564 467 231 119 279 325 386 199 137 43 35 51 24 21 3 0 0 0 1 19 7 30 0 0 1 9 0 0 0 0 0 0 0 0 0 0 0 0 0 0

GFSSE_con_mucape_051.txt.gz
CAPE
816 811 802 884 843 653 486 384 278 191 179 168 139 120 132 128 114 97 105 93 127 129 63 185 600 448 146 73 56 0 12 79 179 133 5 1 0 0 0 0 61 105 260
851 792 766 865 795 637 442 296 170 137 158 170 204 188 164 126 121 112 132 173 256 159 152 172 423 296 229 23 35 9 0 88 0 0 0 0 2 2 0 0 0 0 1
924 805 754 783 716 555 367 265 222 252 196 168 233 226 147 129 139 152 149 348 774 589 460 215 450 382 173 53 62 0 0 0 0 0 0 0 1 5 5 2 1 2 0
1005 815 778 699 537 433 288 257 286 219 200 258 253 208 181 170 189 190 150 316 798 866 615 428 515 397 124 72 26 0 0 0 0 0 0 0 1 10 10 9 7 7 7
1050 839 751 520 413 335 223 239 276 299 258 224 231 235 246 226 232 203 141 132 341 723 624 607 425 113 13 42 40 0 0 0 0 0 0 3 10 26 25 19 17 19 16
977 817 511 362 453 386 261 355 352 271 181 145 193 291 292 279 265 200 115 83 192 372 346 278 4 0 9 0 0 0 0 0 0 0 0 6 13 20 17 19 13 16 19
845 723 557 359 385 345 421 509 419 263 201 221 250 278 243 260 202 195 141 98 82 114 88 4 2 1 0 0 0 0 0 0 0 0 0 5 12 7 6 5 8 14 13
563 504 413 356 310 393 436 436 322 282 272 279 305 311 280 210 142 164 167 135 90 24 0 0 9 7 0 0 0 0 0 0 0 0 0 3 11 9 6 3 4 5 6
497 354 258 214 124 265 307 332 322 299 310 335 370 293 251 177 110 105 126 115 81 36 14 0 0 0 0 0 0 0 0 0 0 0 0 1 9 8 6 2 4 5 3
369 374 183 97 20 1 269 315 405 292 273 286 275 215 195 167 129 135 159 135 48 20 0 0 0 0 0 0 0 0 0 0 0 0 0 4 14 12 7 1 0 0 1
147 224 175 70 69 0 249 328 420 405 246 209 189 172 74 22 1 0 24 108 92 4 0 0 0 0 0 0 0 0 0 0 0 0 0 3 11 19 17 2 0 0 0
69 150 70 3 3 37 140 276 321 314 223 152 115 87 74 56 6 0 11 59 23 0 0 0 0 0 0 0 0 0 0 0 0 0 0 0 0 18 21 12 5 1 1
89 58 35 73 11 1 69 142 198 243 170 101 85 66 53 49 41 0 2 0 0 0 0 0 0 0 0 0 0 0 0 0 0 0 0 0 0 13 13 9 10 6 0
43 42 78 5 10 6 113 196 181 115 83 76 64 81 32 17 10 0 0 0 0 0 0 0 0 0 0 0 0 0 0 0 0 0 0 0 0 2 10 4 7 7 6
4 14 5 4 2 36 118 120 91 96 79 96 78 117 1 0 0 0 0 0 0 0 0 0 0 0 0 0 0 0 0 0 0 0 0 0 0 0 13 0 17 7 5
5 4 2 0 2 60 175 101 121 105 60 74 99 151 28 0 0 0 1 2 1 0 0 0 0 0 0 0 0 0 0 0 0 0 0 0 0 20 0 0 1 1 1
0 0 0 0 21 160 190 69 77 39 17 27 64 105 101 2 25 19 32 41 14 10 0 4 9 0 0 0 0 0 0 0 0 0 0 0 0 0 0 0 0 0 0
2 0 3 23 107 149 189 46 10 34 105 110 75 100 135 127 78 48 60 58 23 14 29 20 9 0 0 0 0 0 0 0 0 0 0 0 0 0 0 0 0 0 0
2 7 21 193 306 157 133 28 30 55 123 172 131 189 210 207 125 96 65 44 16 17 31 34 2 0 0 0 0 0 0 0 0 0 0 0 0 0 0 0 0 0 0
13 43 126 295 282 141 67 6 12 29 69 43 96 122 214 110 86 82 64 14 10 31 29 15 0 0 0 0 0 0 0 0 0 0 0 0 0 0 0 0 0 0 0
27 69 112 280 267 286 129 27 30 33 47 80 147 125 146 124 81 51 50 41 17 19 9 0 0 0 0 0 0 0 0 0 0 0 0 0 0 0 0 0 0 0 0
72 97 138 227 273 283 231 44 34 35 15 73 169 187 100 28 10 1 2 2 4 11 4 0 0 0 0 0 0 0 0 0 0 0 0 0 0 0 0 0 0 0 0
142 118 122 209 273 268 249 49 44 23 60 157 235 132 41 45 9 12 14 2 4 2 0 0 0 0 0 0 0 0 0 0 0 0 0 0 0 0 0 0 0 0 0
389 162 130 185 203 233 329 50 49 48 80 176 162 110 26 49 23 39 55 1 0 0 0 0 0 0 3 0 3 0 0 0 0 0 0 0 0 0 0 0 0 0 0
719 565 266 199 162 300 432 328 80 51 83 113 193 107 36 38 37 95 53 0 0 0 0 0 0 4 0 2 0 0 0 0 0 0 0 0 0 0 0 0 0 0 0
683 673 541 355 308 389 504 519 444 149 150 153 128 155 94 49 39 60 27 3 3 0 0 0 0 0 18 6 0 0 0 0 0 0 0 0 0 0 0 0 0 0 0

GFSSE_con_mucape_054.txt.gz
CAPE
974 844 917 1003 1068 1004 921 756 565 402 318 256 213 207 231 200 218 229 238 279 609 839 572 291 319 38 0 14 37 32 0 20 118 98 1 2 4 3 0 20 85 150 247
1242 727 889 963 968 872 705 521 364 308 278 275 268 241 182 200 175 217 269 339 545 743 509 264 94 0 0 0 0 0 0 0 0 17 30 0 3 7 6 0 4 4 2
1346 809 869 844 776 673 559 412 358 339 320 206 281 201 217 215 299 378 615 590 638 783 536 341 23 9 0 0 1 0 0 0 0 0 7 1 3 9 9 8 18 8 8
1313 981 630 756 654 558 429 385 387 314 273 331 257 280 285 318 346 887 888 892 812 907 687 337 23 11 0 5 0 0 0 0 0 0 2 6 1 11 12 15 18 20 18
1127 1036 833 626 560 470 423 412 337 359 309 249 284 359 403 331 392 580 813 784 835 1089 597 255 5 0 1 47 6 0 0 0 0 0 0 5 7 13 12 8 15 9 13
1134 879 478 368 323 471 484 453 430 335 216 225 300 383 454 343 318 365 503 945 1095 961 365 1 0 0 7 0 0 0 0 0 0 0 5 8 5 8 9 6 11 9 8
1050 797 431 303 325 383 581 534 413 237 228 270 316 352 371 343 257 201 323 547 712 483 94 0 0 0 0 0 0 0 0 0 0 0 6 10 15 10 9 10 11 12 8
769 714 437 251 315 315 455 395 265 195 231 281 282 314 342 301 243 229 188 216 185 186 135 13 0 0 0 0 0 0 0 0 0 0 4 10 13 7 8 6 7 6 10
471 190 144 180 241 201 222 262 235 318 303 279 265 262 241 228 214 204 185 130 73 67 108 14 0 0 0 0 0 0 0 0 0 0 0 7 9 7 7 6 4 3 8
478 173 71 41 206 233 242 235 191 322 315 284 264 231 207 198 203 188 142 139 114 8 0 0 0 0 0 0 0 0 0 0 0 0 0 10 13 10 6 2 4 3 4
408 262 244 131 141 125 10 219 308 312 309 247 191 133 76 40 31 16 78 133 100 32 0 0 0 0 0 0 0 0 0 0 0 0 0 15 18 16 12 4 4 3 4
234 195 201 183 122 9 1 43 290 304 229 154 109 65 25 45 23 45 76 80 14 0 0 0 0 0 0 0 0 0 0 0 0 0 0 0 12 16 13 14 4 2 2
74 89 141 22 20 6 4 0 123 350 232 163 185 68 50 39 32 19 7 0 0 0 0 0 0 0 0 0 0 0 0 0 0 0 0 0 0 18 14 9 10 1 0
16 11 10 7 4 0 11 4 25 132 244 173 126 128 96 59 19 27 0 0 0 0 0 0 0 0 0 0 0 0 0 0 0 0 0 0 0 12 4 8 3 1 0
25 33 6 7 6 5 95 39 147 240 172 101 133 110 84 76 23 0 5 0 0 0 0 0 0 0 0 0 0 0 0 0 0 0 0 0 0 7 4 2 0 0 0
11 7 2 3 6 8 73 64 146 224 144 193 132 140 98 64 77 15 0 0 0 0 0 0 0 0 0 0 0 0 0 0 0 0 0 0 0 23 1 0 2 0 0
0 0 12 3 88 128 180 164 201 112 74 64 163 346 164 73 68 23 0 8 15 7 21 1 0 0 0 0 0 0 0 0 0 0 0 0 0 0 0 0 0 0 0
18 20 15 3 80 137 249 237 129 67 65 67 296 431 381 225 52 43 21 24 22 29 20 30 1 0 0 0 0 0 0 0 0 0 0 0 0 0 0 0 0 0 0
14 12 5 6 36 137 355 362 55 167 103 68 281 397 384 521 317 82 29 20 48 44 3 4 4 4 0 0 0 0 0 0 0 0 0 0 0 0 0 0 0 0 0
84 11 0 57 157 338 428 474 199 66 124 246 490 442 367 478 479 226 73 25 33 0 1 4 16 4 0 0 0 0 0 0 0 0 0 0 0 0 0 0 0 0 0
118 121 149 194 298 569 507 385 197 77 153 312 492 496 226 272 253 231 74 31 12 0 4 41 11 0 0 0 0 0 0 0 0 0 0 0 0 0 0 0 0 0 0
123 201 221 254 454 641 496 349 128 46 117 260 397 142 114 95 58 54 12 3 0 0 10 19 11 0 0 0 0 0 0 0 0 0 0 0 0 0 0 0 0 0 0
208 287 392 514 675 842 627 481 209 159 211 270 269 210 84 72 48 20 4 2 2 1 6 22 3 0 0 0 1 0 0 0 0 0 0 0 0 0 0 0 0 0 0
342 298 301 347 471 780 821 516 219 112 135 245 296 94 69 58 42 32 15 9 22 38 9 3 0 0 0 0 0 0 4 1 0 0 0 0 0 0 0 0 0 0 0
608 473 475 468 501 651 823 836 523 211 127 416 438 189 63 80 44 38 19 33 73 51 13 0 0 0 4 4 1 2 6 0 0 0 0 0 0 0 6 2 15 0 0
1416 1249 1063 722 580 690 770 884 943 688 552 703 460 274 115 50 49 55 56 67 74 38 20 6 2 0 0 1 1 4 0 0 0 0 0 0 0 0 0 0 0 0 0

GFSSE_con_mucape_057.txt.gz
CAPE
1225 870 1135 1389 1400 1274 1153 984 786 633 551 497 411 414 420 450 518 557 595 858 911 798 234 109 55 35 34 29 15 10 20 159 147 121 1 11 10 3 0 125 75 55 179
1160 874 1051 1342 1341 1272 1137 884 657 526 520 474 451 409 392 445 448 531 834 962 909 556 69 15 0 0 0 0 0 0 0 0 81 151 109 0 8 11 12 1 22 9 11
1241 914 1216 1172 1290 1212 1032 787 626 583 555 521 453 397 388 419 488 561 752 927 849 626 34 0 0 0 0 0 0 0 0 0 0 12 222 1 13 23 27 32 46 20 15
1429 924 1127 972 1017 990 806 663 611 543 492 461 431 446 511 587 782 781 838 887 924 647 1 7 0 0 0 0 0 0 0 0 0 45 18 5 6 32 28 24 24 37 39
1416 957 1051 770 758 726 608 570 490 525 430 397 459 600 651 1159 1200 1227 920 892 922 591 66 17 0 0 0 0 0 0 0 0 24 2 1 1 0 11 2 2 8 9 18
1400 914 595 399 461 538 563 522 522 441 354 371 476 590 814 1025 1165 1141 943 858 881 486 37 0 0 0 0 0 0 0 0 0 41 9 3 0 0 7 7 5 6 6 15
1142 794 675 235 345 550 601 608 487 380 370 459 513 495 528 664 917 1128 987 870 590 231 29 0 0 0 0 0 0 0 0 0 1 4 3 1 4 6 8 9 7 10 12
371 372 317 231 224 335 484 428 351 371 421 495 441 405 374 351 545 739 730 352 256 200 87 0 0 0 0 0 0 0 0 0 0 7 3 1 6 7 10 8 7 9 12
389 154 102 64 226 173 136 145 185 340 394 438 369 323 257 203 220 294 300 303 254 173 63 3 0 0 0 0 0 0 0 0 0 1 6 4 4 8 10 6 8 8 7
332 185 155 103 103 87 150 122 197 236 269 271 235 203 220 212 200 183 160 222 255 160 41 0 0 0 0 0 0 0 0 0 0 0 0 4 10 7 5 4 4 4 4
745 435 154 57 45 128 68 113 169 318 333 205 191 169 91 73 42 45 131 128 113 78 23 0 0 0 0 0 0 0 0 0 0 0 0 21 8 8 5 3 3 5 5
429 502 249 17 0 10 10 0 103 207 269 152 135 200 98 115 116 83 114 138 64 15 1 0 0 0 0 0 0 0 0 0 0 0 0 3 18 11 10 7 1 1 2
224 178 275 151 86 5 7 27 66 118 203 134 238 216 287 260 227 123 31 2 0 0 0 0 0 0 0 0 0 0 0 0 0 0 0 0 13 12 6 9 1 0 0
140 129 43 22 43 11 7 3 43 132 202 208 229 325 366 251 303 185 37 2 0 0 0 0 0 0 0 0 0 0 0 0 0 0 0 0 0 7 8 2 0 0 0
56 32 15 37 32 9 4 3 0 70 60 54 166 285 263 204 325 221 184 24 9 0 0 0 0 0 0 0 0 0 0 0 0 0 0 0 0 5 3 13 0 0 0
5 15 9 17 4 5 4 4 46 226 213 195 234 301 430 407 390 245 166 38 2 0 0 0 0 0 0 0 0 0 0 0 0 0 0 0 0 19 1 0 3 0 0
0 2 3 4 3 7 5 49 130 266 240 203 187 475 312 256 305 200 77 59 8 0 5 4 0 0 0 0 0 0 0 0 0 0 0 0 0 0 0 0 0 0 0
1 1 7 0 0 31 9 45 179 238 219 62 181 271 447 213 304 146 106 48 15 16 32 3 5 0 0 0 0 0 0 0 0 0 0 0 0 0 0 0 0 0 0
16 0 2 5 51 71 152 148 216 288 152 160 149 366 551 422 204 167 88 92 95 21 8 4 0 3 1 0 0 0 0 0 0 0 0 0 0 0 0 0 0 0 0
0 0 6 17 64 204 200 223 99 102 223 106 64 341 536 591 692 298 186 216 80 0 0 0 0 4 6 1 0 0 0 0 0 0 0 0 0 0 0 0 0 0 0
52 42 23 41 231 70 102 107 89 13 45 58 162 433 700 529 609 755 537 423 52 0 3 0 0 4 18 1 0 0 0 0 0 0 0 0 0 0 0 0 0 0 0
112 26 3 4 19 76 46 38 58 75 8 119 245 506 583 490 484 525 624 433 62 1 2 0 6 4 23 0 0 0 0 0 0 0 0 0 0 0 0 0 0 0 0
224 134 48 158 182 207 249 191 133 77 68 70 196 393 475 255 91 71 85 159 44 22 0 4 4 6 29 1 0 0 0 0 0 1 0 0 0 0 0 0 0 0 0
283 287 270 280 313 384 492 406 334 135 63 64 228 306 392 83 11 22 35 20 171 86 3 20 50 43 18 0 0 0 0 0 0 0 0 0 0 0 0 0 0 6 13
482 546 514 515 593 630 688 572 517 366 171 154 266 394 361 116 21 75 30 35 99 12 38 73 48 22 19 0 0 6 1 8 0 0 0 0 0 0 1 1 9 11 0
755 908 955 572 542 553 646 856 968 870 502 267 324 751 457 304 106 61 45 42 44 36 21 30 33 28 9 0 3 0 0 0 5 0 0 0 0 0 0 2 2 2 5

GFSSE_con_mucape_060.txt.gz
CAPE
811 1041 1383 1386 1246 1154 1081 969 856 750 713 673 627 620 618 659 644 709 861 810 667 411 65 34 0 0 0 0 0 3 154 166 111 125 50 7 6 2 0 94 70 5 100
631 1324 1458 1438 1380 1291 1147 992 830 726 674 699 657 619 653 691 740 1022 924 704 415 87 1 0 0 0 0 0 0 0 3 165 107 76 12 22 25 35 26 15 30 15 11
247 1434 1678 1465 1483 1422 1216 979 857 810 766 748 647 662 709 789 1050 1039 836 450 334 122 2 0 0 0 0 0 0 0 4 28 42 120 22 4 18 27 46 38 50 44 34
956 1324 1714 1533 1460 1350 1083 945 831 735 694 634 597 602 668 795 1033 1074 830 409 332 191 1 0 0 0 0 0 0 0 7 38 74 53 0 0 10 26 22 25 23 26 30
1244 1237 1610 1408 1218 1118 929 837 740 709 567 531 567 738 821 945 1145 1122 833 376 362 173 13 0 0 0 0 0 0 0 0 14 14 0 0 0 0 17 13 10 13 16 15
1246 1343 1101 1027 1091 911 905 835 737 499 470 506 602 1031 1246 1202 1182 1067 775 408 378 141 0 0 0 0 0 0 0 0 1 10 0 0 0 0 0 9 11 13 14 18 15
789 768 678 848 886 813 884 864 612 510 517 587 919 1194 1272 1352 1113 946 730 319 237 121 0 0 0 0 0 0 0 0 0 6 0 0 0 0 0 12 9 8 10 10 10
699 419 450 463 411 516 619 572 462 480 573 619 740 969 1259 1170 1021 907 384 230 171 84 6 0 0 0 0 0 0 0 0 1 0 0 0 0 3 6 7 7 7 8 8
306 187 0 53 166 185 97 209 340 428 468 450 398 506 661 692 572 378 271 204 135 74 19 1 0 0 0 0 0 0 0 0 0 0 0 0 3 3 6 10 11 11 9
295 125 25 0 15 7 4 98 184 233 254 275 210 324 493 452 333 270 209 173 106 55 2 0 0 0 0 0 0 0 0 0 0 0 0 0 3 6 6 7 9 8 9
352 230 76 37 0 0 2 61 129 242 250 243 196 130 206 211 100 77 177 154 113 58 5 0 0 0 0 0 0 0 0 0 0 0 0 18 8 10 3 2 4 4 6
236 194 189 109 15 1 0 2 3 99 110 201 97 28 3 32 30 83 118 103 85 35 0 0 0 0 0 0 0 0 0 0 0 0 0 15 6 5 4 0 0 1 0
239 148 197 110 58 6 0 0 2 58 81 124 238 163 115 67 59 92 23 10 1 0 0 0 0 0 0 0 0 0 0 0 0 0 0 0 12 7 8 3 0 0 0
59 75 47 111 31 14 10 27 1 0 102 142 223 251 248 191 103 46 33 4 0 0 0 0 0 0 0 0 0 0 0 0 0 0 0 0 12 16 10 7 0 0 0
12 67 60 19 13 26 8 11 3 12 112 163 202 263 278 226 165 76 41 4 0 0 0 0 0 0 0 0 0 0 0 0 0 0 0 0 0 7 4 6 0 0 0
2 16 18 51 35 14 10 0 3 1 36 89 253 250 249 217 355 121 172 59 19 0 0 0 0 0 0 0 0 0 0 0 0 0 0 0 0 2 1 6 3 2 0
0 25 13 49 43 6 6 27 23 6 66 169 273 293 253 283 341 220 189 195 52 0 0 0 0 0 0 0 0 0 0 0 0 0 0 0 0 0 0 0 0 0 0
0 2 0 0 0 0 0 7 18 10 135 147 231 243 227 328 309 280 136 150 44 6 0 1 7 3 0 0 0 0 0 0 0 0 0 0 0 0 1 0 0 0 0
0 0 0 0 1 0 2 0 1 77 99 84 53 229 304 306 295 220 208 95 122 2 0 8 3 5 0 0 0 0 0 0 0 0 0 0 0 0 0 1 0 0 0
0 0 4 4 0 0 0 0 38 74 79 100 91 304 413 368 179 243 170 165 132 14 12 9 12 12 4 3 5 0 0 0 0 0 0 0 0 0 0 0 0 0 0
0 1 1 0 2 0 0 0 18 62 111 102 62 167 427 393 417 333 197 204 140 50 25 5 10 0 3 6 14 9 0 0 0 0 0 0 0 0 0 0 0 0 0
0 0 0 0 0 3 10 4 43 1 19 88 43 141 445 552 419 359 344 301 181 63 38 0 14 14 8 7 9 12 0 1 1 0 0 0 0 0 0 0 0 0 0
0 0 0 0 0 0 72 35 17 0 0 0 37 68 386 405 419 391 477 403 139 121 40 1 6 26 32 10 8 8 0 0 0 0 6 1 0 0 0 0 0 0 0
34 11 0 0 7 5 17 34 7 21 11 2 34 77 347 404 294 198 189 100 84 15 11 0 15 6 43 15 3 12 0 0 0 0 3 1 0 0 0 0 0 0 0
205 94 0 0 11 80 74 235 148 151 39 44 69 154 396 330 170 39 14 1 17 7 20 39 7 2 21 21 22 10 0 1 1 0 0 2 0 0 0 0 0 0 0
261 303 197 238 241 236 188 252 579 546 351 113 139 178 369 271 131 13 2 1 41 36 32 37 19 30 9 0 2 22 2 0 0 0 0 0 0 0 0 0 0 0 0

GFSSE_con_mucape_063.txt.gz
CAPE
1347 1606 1439 1544 1581 1409 1233 1054 887 793 808 866 823 757 700 801 947 816 629 433 333 151 1 0 0 0 0 0 1 29 120 50 32 34 38 18 17 18 16 21 8 13 78
1109 1269 1333 1520 1597 1498 1360 1091 923 841 904 917 848 785 787 1037 956 790 507 351 198 2 0 0 0 0 0 0 0 63 77 56 44 16 12 32 45 35 28 23 28 6 17
495 586 691 662 1578 1555 1391 1151 1018 1004 1021 940 870 807 1066 1138 934 597 369 193 115 2 0 0 0 0 0 0 9 36 45 32 50 40 6 1 6 36 38 20 38 33 23
92 0 0 742 1053 1416 1287 1147 1048 1082 994 973 889 1010 1230 1050 732 471 271 158 165 5 0 0 0 0 0 0 7 14 0 4 1 0 0 0 2 21 19 21 16 18 20
27 403 716 728 1108 1305 1191 1080 980 939 843 852 872 1210 1282 1121 745 500 270 214 225 0 0 0 0 0 0 0 0 0 0 0 0 0 0 0 0 12 16 12 13 12 22
314 1212 938 824 969 1146 1120 996 924 749 697 755 844 1221 1431 1310 795 509 306 284 193 0 0 0 0 0 0 0 0 0 0 0 0 0 0 0 0 13 16 20 16 17 11
1186 1087 818 841 840 972 1076 1021 780 741 765 796 940 1171 1367 1235 734 492 327 203 92 0 0 0 0 0 0 0 0 0 0 0 0 0 0 0 1 16 20 17 18 16 18
756 512 437 566 706 682 819 704 615 710 883 1110 1147 1211 1297 1065 636 431 261 112 60 0 0 0 0 0 0 0 0 0 0 0 0 0 0 0 7 11 11 9 9 14 20
439 352 97 30 37 196 108 207 191 515 636 908 1073 976 938 714 340 278 170 118 65 10 0 0 0 0 0 0 0 0 0 0 0 0 0 0 5 9 11 11 10 12 15
472 142 52 0 2 0 29 2 97 185 366 527 646 576 522 292 220 141 115 88 52 28 0 0 0 0 0 0 0 0 0 0 0 0 0 0 5 7 9 9 12 16 13
320 202 75 17 8 0 0 2 8 222 237 341 330 314 278 248 52 22 80 83 71 39 18 0 0 0 0 0 0 0 0 0 0 0 0 9 4 8 9 9 9 13 13
182 99 56 30 66 13 0 0 1 29 71 194 167 211 157 201 57 52 102 125 68 43 24 0 0 0 0 0 0 0 0 0 0 0 0 10 7 7 6 7 6 8 7
110 53 69 45 29 1 0 0 0 0 0 43 86 77 112 74 38 26 24 8 3 12 0 0 0 0 0 0 0 0 0 0 0 0 0 10 5 5 4 2 2 1 1
123 67 19 56 4 4 0 0 1 0 29 54 50 31 26 27 5 1 0 0 1 2 6 0 0 0 0 0 0 0 0 0 0 0 0 0 8 5 8 3 0 0 0
52 70 25 22 10 11 16 16 13 1 42 58 84 92 63 47 0 4 0 0 0 1 0 0 0 0 0 0 0 0 0 0 0 0 0 0 2 14 11 9 0 0 0
12 51 19 33 28 15 14 2 7 4 9 33 53 100 131 101 31 13 0 0 0 0 0 0 0 0 0 0 0 0 0 0 0 0 0 0 0 3 1 2 2 2 1
0 13 2 12 9 12 12 7 4 4 15 10 61 99 167 169 70 35 19 31 3 0 0 0 0 0 0 0 0 0 0 0 0 0 0 0 0 0 0 0 0 0 0
6 25 17 6 5 4 14 8 1 3 0 1 70 134 134 149 164 80 99 61 17 4 0 0 0 0 0 0 0 0 0 0 0 0 0 0 0 0 0 0 0 0 0
0 0 8 7 7 0 0 4 10 2 0 1 65 98 82 117 161 80 47 23 14 4 0 0 0 0 0 0 0 0 0 0 0 0 0 0 0 0 0 0 0 0 0
0 0 0 3 4 0 1 4 8 5 28 34 24 31 55 51 144 81 61 90 19 5 1 7 0 6 2 3 0 1 0 0 0 0 0 0 0 0 0 0 0 0 0
0 0 0 0 0 2 0 0 0 0 8 2 17 0 75 126 96 88 119 88 43 11 7 12 0 16 25 25 5 2 2 2 0 0 0 0 0 0 0 0 0 0 0
0 0 0 0 0 0 0 0 0 0 0 1 9 5 117 184 208 114 84 109 115 52 47 42 31 5 20 36 28 19 0 3 0 0 0 0 0 2 0 0 0 0 0
0 0 0 0 0 0 0 0 0 0 9 8 0 0 34 143 161 274 253 161 83 98 53 42 29 1 0 22 25 29 14 2 0 0 0 0 2 0 2 0 0 0 0
0 0 0 0 0 0 0 0 0 0 0 0 0 0 64 269 315 326 299 268 170 152 126 78 19 26 14 6 2 14 13 18 0 0 0 4 2 0 2 0 0 0 0
0 0 0 0 0 0 0 0 0 0 0 0 0 0 17 155 258 291 283 261 239 189 102 31 40 31 35 22 0 3 2 0 0 0 0 0 0 0 0 0 0 0 0
0 0 0 0 0 0 0 2 9 0 1 4 3 0 15 143 215 248 269 210 181 92 19 23 41 50 41 29 7 0 2 0 0 0 0 0 0 1 1 0 0 0 0

GFSSE_con_mucape_066.txt.gz
CAPE
1670 1498 1505 1705 1685 1496 1340 1133 1039 994 927 929 1072 1047 978 899 770 616 464 363 290 138 0 3 68 35 9 7 5 29 59 52 45 49 33 28 26 20 13 10 25 22 140
1605 1666 1391 1732 1717 1648 1226 1114 978 970 983 934 1081 1129 966 792 653 535 396 234 106 4 0 5 11 13 16 18 44 61 38 33 12 36 51 43 34 22 26 20 22 17 62
1735 1717 1656 1632 1634 1525 1307 1167 1151 1187 1062 1044 1266 1205 1027 806 609 482 319 123 29 0 0 3 5 4 18 27 39 65 47 28 8 15 3 5 6 21 22 32 44 31 47
1501 1149 1495 1503 1281 1153 693 1198 1257 1197 1124 1175 1398 1331 1003 781 559 414 269 130 46 0 0 0 0 0 0 0 0 29 3 0 0 0 0 0 3 17 10 14 9 26 44
680 330 770 1167 1067 974 909 1058 1214 1142 986 1222 1442 1272 992 760 610 465 270 125 40 0 0 0 0 0 0 0 0 0 0 0 0 0 0 0 1 17 16 13 12 36 24
327 300 495 885 912 1007 260 1016 1142 1006 868 1222 1324 1177 998 806 691 520 264 113 11 0 0 0 0 0 0 0 0 0 0 0 0 0 0 0 1 19 17 16 25 28 31
887 1001 735 548 211 671 919 996 868 806 790 1207 1282 1032 882 765 667 453 182 19 0 0 0 0 0 0 0 0 0 0 0 0 0 0 0 0 2 18 20 21 18 13 8
959 753 634 557 161 3 425 666 299 476 730 1120 1157 921 824 676 488 270 72 1 0 0 0 0 0 0 0 0 0 0 0 0 0 0 0 0 13 18 20 18 16 12 11
927 550 299 109 10 30 17 129 374 469 627 833 826 712 555 298 171 67 23 0 0 0 0 0 0 0 0 0 0 0 0 0 0 0 0 0 16 17 17 19 19 19 19
540 319 141 82 75 29 0 10 5 211 610 538 426 323 190 83 73 32 0 0 0 0 0 0 0 0 0 0 0 0 0 0 0 0 0 0 9 9 10 17 17 18 12
274 175 137 79 64 0 0 17 0 97 316 253 277 170 57 0 0 0 4 0 0 0 0 0 0 0 0 0 0 0 0 0 0 0 0 9 4 7 8 14 13 13 9
322 203 178 80 11 31 0 0 0 121 130 158 173 149 70 0 0 0 2 4 9 6 0 0 0 0 0 0 0 0 0 0 0 0 0 8 2 5 5 7 10 6 2
199 173 73 45 15 79 0 0 0 7 10 70 158 174 103 2 0 3 1 0 0 0 1 0 0 0 0 0 0 0 0 0 0 0 0 11 5 4 4 5 8 6 0
188 46 60 88 35 4 0 0 0 13 43 43 50 113 28 1 0 0 0 0 0 0 0 0 0 0 0 0 0 0 0 0 0 0 0 0 5 2 4 5 4 0 0
27 33 12 12 99 10 6 0 0 28 2 20 31 48 5 2 0 0 0 0 0 1 0 0 0 0 0 0 0 0 0 0 0 0 0 0 0 2 4 6 8 0 0
28 11 32 53 73 23 8 8 0 7 0 6 22 4 0 0 0 0 0 0 0 0 0 0 0 0 0 0 0 0 0 0 0 0 0 0 0 0 8 5 0 0 0
18 20 27 18 33 13 14 1 12 2 0 10 21 12 10 2 0 0 0 0 0 0 0 0 0 0 0 0 0 0 0 0 0 0 0 0 0 0 11 3 0 0 3
5 23 26 6 30 30 28 18 4 5 6 36 66 58 23 25 14 0 0 2 1 6 0 0 0 0 0 0 0 0 0 0 0 0 0 0 0 0 0 10 0 0 0
2 6 5 20 18 19 53 15 14 4 15 48 43 83 74 80 48 21 66 63 30 6 0 0 0 0 0 0 0 0 0 0 0 0 0 0 0 0 0 0 0 0 0
0 3 15 13 15 18 2 3 3 15 3 3 12 74 64 76 111 55 82 75 38 16 1 0 0 0 0 0 0 0 0 0 0 0 0 0 0 0 0 0 0 0 0
0 5 0 9 9 1 0 0 0 3 2 0 3 23 35 8 104 93 56 70 29 3 2 0 0 0 0 0 0 0 1 0 0 0 0 0 0 0 0 0 0 0 0
0 0 0 0 0 0 0 0 4 3 0 0 0 0 0 7 24 108 76 42 36 20 23 7 2 4 1 1 3 4 8 1 0 0 0 0 0 0 0 0 0 0 0
0 0 0 0 0 0 0 0 0 0 0 0 0 0 0 7 43 50 69 48 49 34 28 15 26 25 19 28 6 13 7 0 1 0 2 1 0 0 0 1 0 0 0
0 0 0 0 0 0 0 0 0 0 0 0 0 0 0 10 92 95 64 53 11 45 57 43 38 46 29 26 17 26 6 2 4 0 0 0 0 0 8 1 9 2 0
0 0 0 0 0 0 0 0 0 0 0 0 0 0 0 0 44 75 118 157 132 111 22 41 48 65 43 28 24 32 38 6 6 3 2 0 0 3 7 5 9 7 4
0 0 0 0 0 0 0 0 0 0 0 0 0 0 0 0 26 78 99 141 200 192 148 94 93 78 27 7 30 42 52 5 7 3 0 0 0 0 10 2 8 1 1

GFSSE_con_mucape_069.txt.gz
CAPE
1605 1386 1608 1535 1627 1366 1324 1308 1247 1143 1155 1143 1059 1035 988 919 788 727 589 436 305 253 21 20 27 17 18 25 21 20 38 40 39 40 26 23 26 22 17 43 67 38 130
1648 1434 1604 1686 1681 1491 1367 1422 1310 1390 1507 1399 1225 1066 945 768 692 571 440 275 238 230 49 38 25 21 14 10 8 11 9 38 51 69 56 44 31 17 9 28 136 54 73
1791 1513 1667 1628 1679 1554 1427 1441 1442 1529 1663 1495 1319 1092 914 776 592 437 285 200 335 300 60 26 17 31 15 4 18 1 0 0 12 26 24 1 14 37 46 54 72 48 43
1754 1644 1695 1679 1665 1486 1270 1264 1251 1465 1673 1536 1326 1118 939 775 564 333 172 172 341 315 35 15 11 11 15 79 11 0 0 0 0 0 0 2 9 36 46 53 46 30 40
1565 1702 1723 1637 1432 1248 895 831 636 851 1526 1471 1242 1112 866 730 579 343 114 114 312 244 12 1 0 0 1 72 9 0 0 0 0 0 0 1 3 18 29 38 36 39 34
1330 1433 1465 1344 923 804 682 695 907 830 1060 1387 1138 1021 882 787 615 329 93 91 277 161 1 0 0 0 0 0 0 0 0 0 0 0 0 3 4 20 32 24 26 27 19
1184 947 628 479 461 235 161 388 940 540 960 1296 1074 836 824 749 534 239 49 20 27 4 0 0 1 0 0 0 0 0 0 0 0 0 0 0 3 20 23 14 16 21 14
915 548 382 203 136 61 86 47 332 235 853 1046 868 767 756 577 314 111 4 0 0 0 0 0 0 0 0 0 0 0 0 0 0 0 0 0 9 24 18 20 17 8 14
767 704 366 103 14 40 9 31 263 41 400 756 561 549 485 282 80 3 0 0 0 0 0 0 0 0 0 0 0 0 0 0 0 0 0 0 11 17 21 17 15 15 19
742 404 217 139 17 0 4 0 33 13 482 490 449 350 200 105 10 0 0 0 0 0 0 0 0 0 0 0 0 0 0 0 0 0 0 1 12 15 14 13 14 12 10
523 280 175 138 77 27 42 0 5 46 403 369 325 187 70 0 0 0 0 0 0 0 0 0 0 5 4 0 0 0 0 0 0 0 0 12 5 11 11 11 10 9 8
487 417 399 191 83 44 6 0 0 1 67 180 161 100 21 0 0 0 0 0 0 0 0 0 0 0 0 0 0 0 0 0 0 0 0 13 7 9 13 9 8 9 0
166 155 27 43 0 18 2 0 0 0 3 89 128 68 14 0 0 0 0 0 0 0 0 0 0 0 0 0 0 0 0 0 0 0 2 13 10 10 10 10 3 0 0
134 72 46 5 0 3 0 0 0 46 50 63 73 30 6 0 0 0 0 0 0 0 0 0 0 0 0 0 0 0 0 0 0 0 0 11 11 6 5 6 5 0 0
51 103 14 13 14 31 0 0 0 0 23 8 53 49 5 2 2 1 0 0 0 0 0 0 0 0 0 0 0 0 0 0 0 0 0 0 7 6 4 4 0 0 0
16 20 7 14 20 25 0 0 0 0 2 34 49 16 0 3 2 4 1 0 0 0 0 0 0 0 0 0 0 0 0 0 0 0 0 0 0 1 0 1 0 0 0
6 4 1 32 14 39 4 11 3 4 19 52 43 1 0 0 3 2 1 0 0 0 2 0 0 0 0 0 0 0 0 0 0 0 0 0 0 0 4 8 0 0 0
2 8 5 29 18 16 4 11 44 53 51 47 34 34 3 1 0 0 0 0 0 0 0 0 0 0 0 0 0 0 0 0 0 0 0 0 0 0 0 15 28 3 0
0 4 0 1 29 9 32 11 18 5 67 45 45 13 8 0 0 0 0 0 0 6 1 0 0 0 0 0 0 0 0 0 0 0 0 0 0 0 0 0 0 0 0
3 2 0 6 10 21 24 14 13 7 76 75 62 42 23 8 4 2 10 22 16 13 2 7 11 0 0 0 0 0 0 0 0 0 0 0 0 0 0 0 0 0 0
1 1 3 10 17 8 13 15 25 6 5 87 102 101 90 65 55 29 85 99 85 55 48 13 12 8 0 0 0 0 0 0 0 0 0 0 0 0 0 0 0 0 0
0 3 0 0 1 13 15 9 10 2 14 23 32 76 76 62 83 137 83 105 73 47 26 45 10 0 1 2 6 4 1 0 0 1 2 0 0 6 0 0 0 0 0
0 0 0 0 6 2 0 18 18 30 5 0 0 4 37 53 58 44 116 71 59 52 42 22 15 18 27 20 18 24 27 0 9 4 8 4 6 5 2 1 0 6 0
0 0 0 0 0 0 0 0 0 0 0 1 2 0 3 8 2 44 50 89 89 41 58 54 41 30 35 46 37 26 35 29 23 0 13 18 23 11 3 0 3 14 10
0 0 0 0 0 0 0 0 0 0 0 0 0 0 0 0 0 13 54 39 49 39 61 49 53 50 46 44 45 50 41 22 28 14 0 12 4 9 5 3 0 13 11
0 0 0 0 0 0 0 0 0 0 0 0 0 0 0 0 0 0 12 58 68 77 87 62 56 58 45 45 52 37 34 19 24 1 3 7 0 4 6 4 6 13 5

GFSSE_con_mucape_072.txt.gz
CAPE
1117 1569 1560 1488 1577 1502 1362 1190 1154 1418 1490 1483 1350 1366 1338 1285 1183 1059 930 760 673 645 298 122 255 87 74 51 14 16 21 28 39 52 37 31 24 83 81 81 69 56 100
1452 1618 1484 1511 1626 1616 1424 1320 1228 1302 1544 1510 1443 1388 1320 1217 1040 838 647 544 513 352 28 9 17 27 40 30 18 31 36 54 52 52 45 26 18 35 74 67 82 47 58
1752 1624 1644 1617 1681 1749 1646 1566 1524 1546 1604 1561 1512 1322 1209 1117 921 689 591 500 466 380 38 25 23 20 20 14 12 6 2 19 32 32 18 6 35 55 53 49 42 24 25
1730 1600 1448 1590 1676 1713 1657 1689 1726 1706 1599 1590 1428 1254 1116 995 781 619 562 445 431 396 79 22 39 15 5 3 2 0 0 0 1 1 0 12 32 68 50 43 38 41 35
1694 1481 1286 1552 1279 1399 1564 1659 1721 1608 1479 1393 1236 1247 1070 836 636 627 500 411 534 567 309 197 103 25 3 3 3 2 0 0 0 0 1 2 19 41 47 33 28 25 13
1789 1647 1152 636 449 637 764 436 810 1354 1301 1187 1144 1102 884 667 554 600 480 473 454 276 21 29 28 133 2 1 2 0 0 0 0 0 0 6 4 32 29 16 19 20 22
1359 1632 1235 516 244 313 209 101 73 724 1006 1093 1077 883 751 679 489 398 471 365 141 3 1 29 17 3 0 0 0 0 0 0 0 0 0 6 2 25 14 23 12 19 15
1373 1354 1075 761 571 398 146 135 88 336 751 907 873 788 751 520 305 367 365 79 0 36 146 28 5 0 0 0 0 0 0 0 0 0 0 6 8 23 24 15 19 14 18
881 1011 889 497 302 249 213 77 52 326 502 589 504 661 452 270 214 152 32 0 0 60 99 2 0 0 0 0 0 0 0 0 0 0 0 1 19 17 17 15 13 14 14
549 633 815 439 215 133 88 10 13 161 393 281 337 418 255 142 120 0 0 0 0 0 25 0 0 0 0 0 0 0 0 0 0 0 0 9 23 22 21 13 13 13 12
575 654 496 271 138 23 0 0 0 157 212 199 285 257 166 45 1 0 0 0 0 0 12 12 0 0 0 0 0 0 0 0 0 0 0 30 21 18 11 9 10 6 7
556 382 287 192 124 69 54 1 28 94 30 35 102 146 100 4 0 0 0 0 0 0 15 11 0 0 0 0 0 0 0 0 0 0 0 21 13 11 8 8 7 5 0
433 411 406 284 124 69 62 6 27 58 71 77 79 136 21 2 3 0 0 0 0 0 0 4 0 0 0 0 0 0 0 0 0 0 3 16 12 10 8 9 6 6 0
133 87 82 0 20 42 37 0 0 11 54 29 40 65 0 0 0 0 0 0 0 0 0 0 0 0 0 0 0 0 0 0 0 0 2 12 15 10 13 6 5 0 0
25 26 46 15 2 18 2 0 0 2 15 42 40 12 0 0 1 3 0 0 0 0 0 0 0 0 0 0 0 0 0 0 0 0 0 10 14 10 9 12 0 0 0
19 35 11 24 17 10 14 0 0 1 21 41 50 1 0 9 15 14 0 0 0 0 0 0 0 0 0 0 0 0 0 0 0 0 0 0 0 10 11 8 7 0 0
21 23 12 24 61 13 23 1 0 49 44 34 37 17 3 14 18 4 0 3 3 3 0 2 1 0 0 0 0 0 0 0 0 0 0 0 0 0 3 6 3 0 0
2 15 3 17 40 12 6 2 0 3 31 3 65 17 5 10 7 1 11 19 16 13 0 14 6 0 0 0 0 0 0 0 0 0 0 0 0 0 0 3 9 2 0
0 1 4 16 29 23 4 2 2 2 3 38 21 25 9 3 3 13 11 11 1 1 6 14 6 0 0 0 0 0 0 0 0 0 0 0 0 0 0 0 2 13 27
0 1 0 4 11 12 6 7 15 2 71 42 2 2 2 1 6 13 13 8 3 1 16 34 19 10 1 0 0 0 0 0 0 0 0 0 0 0 0 0 0 0 0
0 0 0 11 2 6 14 9 2 4 51 42 15 5 1 1 0 0 0 2 8 29 46 33 29 29 9 0 0 0 0 0 0 0 0 3 2 0 0 0 8 0 0
2 0 0 0 1 0 11 17 25 23 23 5 26 19 29 26 10 6 15 59 69 102 81 56 22 10 12 12 0 0 0 0 0 3 12 9 19 14 12 7 24 10 0
0 0 0 0 5 3 16 25 12 8 34 0 51 52 46 66 66 72 52 92 136 139 94 54 24 15 26 19 16 25 11 13 2 4 24 0 7 19 24 32 19 13 5
0 0 0 0 0 1 1 2 4 11 0 2 3 15 33 59 57 90 123 126 125 85 59 35 23 28 32 18 16 26 26 25 25 0 2 11 9 15 17 9 25 8 11
0 0 0 0 0 0 0 1 5 0 0 0 3 7 4 41 31 36 25 51 52 81 87 74 48 34 29 33 43 45 51 49 30 45 20 8 4 17 1 3 12 9 19
0 0 0 0 0 0 0 0 1 0 0 0 0 0 0 0 1 4 0 15 47 81 101 102 103 84 83 49 54 48 57 42 30 48 20 3 4 21 1 4 18 14 16

GFSSE_con_mucape_075.txt.gz
CAPE
1278 1409 1522 1720 1679 1597 1699 1667 1503 1480 1548 1517 1386 1260 1239 1337 1318 1341 1302 1231 938 692 600 408 574 298 134 85 88 94 146 194 155 165 257 102 102 112 79 98 93 35 68
1284 1567 1469 1650 1737 1647 1735 1842 1709 1672 1685 1639 1465 1425 1439 1388 1401 1293 1198 1127 913 736 382 283 282 124 21 12 19 64 40 15 28 56 81 75 74 79 54 31 57 20 15
1833 1749 1556 1687 1762 1747 1848 1989 1921 1910 1852 1706 1653 1584 1491 1420 1262 1062 879 796 780 645 170 160 95 100 21 19 26 68 46 46 44 34 34 32 56 41 22 5 10 6 10
1855 1866 1602 1672 1775 1753 1755 1888 2012 2027 1921 1773 1736 1670 1516 1257 1062 974 788 647 583 434 12 13 24 39 23 28 25 10 4 8 10 16 21 34 35 38 25 14 14 17 20
1810 1680 1427 1628 1462 1301 1595 1835 1945 1927 1779 1673 1591 1644 1455 1146 1030 877 652 597 598 484 129 22 36 33 19 26 14 5 0 0 1 6 25 32 27 25 25 13 17 12 23
1631 1533 1105 1021 930 717 788 1217 1320 1753 1577 1473 1432 1477 1337 1119 1012 794 590 508 470 384 272 43 18 7 6 3 0 0 0 0 0 6 19 25 18 20 21 18 23 14 21
1192 1401 951 992 777 722 703 675 650 1018 959 1153 1340 1214 1057 1038 861 663 579 512 588 712 513 323 9 1 0 0 0 0 0 0 1 11 22 21 20 25 19 24 14 19 17
1001 769 987 770 706 547 293 238 242 388 316 835 867 980 846 794 559 535 447 261 154 287 350 341 7 1 1 0 0 0 0 0 0 15 17 15 33 24 27 15 20 17 14
1116 690 611 588 399 262 205 129 100 450 566 589 683 707 493 429 309 366 125 33 120 326 263 126 3 0 0 0 0 0 0 0 3 9 2 15 20 19 19 18 13 11 8
918 478 328 377 280 202 125 86 61 277 432 442 507 386 176 217 252 89 0 135 330 239 125 3 0 0 0 0 0 0 0 0 1 3 7 11 21 16 17 13 8 8 8
351 472 442 321 195 150 172 225 110 307 320 285 271 180 62 91 76 20 0 82 247 149 40 0 0 0 0 0 0 0 0 0 0 4 6 27 22 17 12 10 8 7 7
290 310 474 402 277 198 166 134 53 18 266 191 121 77 16 14 32 10 14 24 156 110 26 4 0 0 0 0 0 0 0 0 0 1 6 29 19 14 11 7 6 4 3
270 281 521 308 312 174 109 79 41 34 88 57 62 78 15 11 15 4 5 0 100 102 0 2 3 0 0 0 0 0 0 0 1 3 8 21 15 12 8 4 2 2 0
98 223 175 169 167 89 93 56 17 1 3 4 3 8 13 0 0 0 0 0 0 54 78 18 1 0 0 0 0 0 0 0 0 0 4 14 15 6 10 8 6 0 0
13 20 20 1 0 6 38 12 37 20 5 12 51 0 4 0 0 0 0 0 0 0 0 0 0 0 0 0 0 0 0 0 0 0 0 5 16 14 9 12 8 0 0
22 10 19 7 3 1 14 17 38 26 23 3 5 4 0 0 1 0 0 0 0 0 0 0 0 0 0 0 0 0 0 0 0 0 1 3 5 19 23 9 6 0 0
4 19 40 20 18 17 16 23 54 19 20 11 18 32 2 0 0 12 2 0 0 0 0 0 0 0 0 0 0 0 0 0 0 0 0 2 3 8 16 22 7 4 0
4 20 64 6 27 25 26 23 11 24 3 11 44 10 3 2 23 0 0 1 0 1 0 0 0 0 0 0 0 0 0 0 0 0 0 0 2 3 3 18 16 1 0
7 9 2 7 5 19 26 10 4 13 5 22 20 2 6 24 16 16 2 10 5 0 6 15 12 13 1 0 0 0 0 0 0 0 0 0 0 0 1 0 7 13 20
3 3 7 17 10 24 10 11 1 21 46 48 20 7 15 17 24 13 10 28 8 137 6 6 26 49 23 1 0 0 0 0 0 0 0 0 1 2 0 0 0 0 0
2 3 0 13 3 0 5 3 1 0 19 26 42 4 17 29 18 32 11 8 8 17 20 9 23 31 35 29 6 0 0 0 0 0 0 2 8 8 4 8 1 1 6
3 5 0 0 4 0 0 1 5 3 12 33 43 8 14 7 4 12 8 34 12 54 20 15 42 33 35 25 16 20 2 0 2 3 4 4 8 6 11 3 2 13 0
1 2 0 0 0 0 0 2 4 6 5 3 5 0 0 1 3 1 34 77 74 59 59 53 58 50 34 27 33 27 35 27 19 10 26 9 10 18 15 5 8 9 7
0 1 0 0 0 0 2 4 4 6 0 0 0 0 0 0 17 39 52 59 125 103 112 92 103 81 38 21 24 39 29 28 25 21 9 7 10 18 7 2 1 8 5
0 3 0 0 0 0 0 0 8 26 9 1 0 0 0 0 1 36 68 148 172 144 187 116 99 70 52 22 22 11 11 21 20 29 7 0 14 3 1 10 13 5 1
0 2 0 0 0 0 0 0 7 15 7 0 0 3 9 5 5 49 68 126 191 254 253 236 138 87 74 60 26 39 45 29 24 32 9 8 32 9 0 1 3 6 0

GFSSE_con_mucape_078.txt.gz
CAPE
1447 1283 1253 1674 1688 1774 1888 1765 1580 1516 1593 1667 1510 1330 1213 1254 1264 1353 1383 1274 1094 1006 638 590 456 356 363 276 226 172 355 353 297 381 419 214 126 125 73 137 153 72 86
1562 1396 1473 1776 1815 1874 2112 1869 1696 1708 1787 1757 1565 1411 1464 1464 1465 1542 1459 1200 983 816 566 521 405 317 177 56 40 119 169 197 260 308 303 105 69 70 53 36 61 27 26
1785 1653 1509 1791 1823 1991 2231 2080 2020 2064 1978 1790 1621 1669 1716 1733 1754 1618 1314 1095 887 669 561 367 174 75 36 13 135 53 47 16 140 318 309 66 47 40 21 17 20 17 13
1819 1999 1632 1674 1775 1977 2189 2201 2161 2225 2025 1813 1860 1859 1918 1830 1717 1596 1268 1032 910 710 381 231 103 34 17 8 4 0 3 17 3 68 80 43 32 26 15 12 9 10 10
1582 2304 1827 1708 1784 1856 1775 2057 2095 2079 1888 1818 1839 1911 1895 1764 1577 1356 963 717 667 710 294 154 80 24 6 0 5 6 5 1 4 57 40 40 19 15 11 4 6 4 8
1559 1858 1500 1610 1591 1624 1485 1628 910 1665 1798 1749 1817 1844 1798 1707 1494 1144 732 572 525 505 282 49 42 18 10 2 5 0 4 0 20 34 6 11 9 23 10 8 6 6 9
1439 1551 1401 1286 1058 1000 1160 1190 883 970 1245 1457 1516 1656 1634 1590 1360 1041 711 474 400 352 223 30 22 11 2 0 0 0 0 0 4 11 8 8 15 24 11 12 11 11 11
1352 1389 1571 1010 1067 911 784 597 544 1035 835 1261 846 1256 1493 1366 1127 929 634 528 597 296 164 47 13 5 0 0 0 0 0 0 5 5 4 13 26 17 14 14 12 13 14
946 1246 1248 1509 751 559 315 403 593 737 892 809 715 615 885 831 858 778 613 633 455 430 120 10 7 2 0 0 0 0 0 3 4 1 3 15 24 13 15 13 13 13 14
948 859 585 1028 699 594 358 118 172 494 347 427 472 502 422 462 546 404 285 480 463 325 100 3 2 1 0 0 0 0 0 0 0 1 1 7 22 18 19 17 13 13 12
524 738 427 258 373 335 171 111 70 168 313 286 313 252 242 444 231 201 181 325 240 142 64 3 3 1 0 0 0 0 0 0 1 1 0 21 27 19 18 13 13 12 10
118 229 439 255 206 123 71 80 193 240 422 325 338 200 190 136 138 223 341 214 123 20 0 1 0 0 0 0 0 0 0 1 8 6 9 28 20 16 14 12 8 7 9
315 211 179 238 172 120 133 66 77 285 256 216 146 47 133 102 214 287 390 285 106 0 0 0 0 0 0 0 0 0 0 0 11 7 9 27 21 15 11 8 7 7 4
511 365 169 314 177 73 153 83 44 204 218 238 52 6 25 60 155 246 296 163 67 1 0 0 0 0 0 0 0 0 0 0 4 6 12 24 28 16 11 9 4 5 0
319 456 270 125 61 52 50 50 64 66 84 54 24 2 28 98 73 65 181 217 130 89 37 6 7 0 0 0 0 0 0 0 0 11 12 21 25 21 15 11 6 0 0
209 55 102 25 10 17 6 6 5 28 13 18 4 5 55 72 50 33 23 70 114 190 89 42 24 0 0 0 0 0 0 0 3 8 7 15 18 20 19 11 7 2 0
14 23 26 51 25 2 2 10 30 43 4 13 10 15 0 36 45 4 4 5 13 66 41 32 7 0 0 0 0 0 0 0 2 6 6 6 4 9 18 19 8 4 0
10 31 28 48 5 10 16 22 31 24 13 16 8 3 1 25 26 16 3 0 0 2 7 6 4 0 0 0 0 0 0 0 0 1 4 5 4 1 5 22 22 15 0
6 25 42 21 4 14 6 12 17 12 23 6 6 6 5 18 18 27 14 9 0 0 0 0 0 0 0 0 0 0 0 0 0 0 0 0 2 3 2 4 12 13 32
4 17 44 17 13 0 30 9 2 12 3 5 3 0 0 7 78 43 2 2 0 0 0 0 0 0 0 0 0 0 0 0 0 0 0 0 0 0 0 0 0 0 0
7 19 26 1 1 3 5 0 0 4 2 4 0 1 1 0 17 39 56 24 3 2 2 9 9 7 0 3 0 0 0 0 0 0 0 0 0 0 0 1 2 2 13
7 14 17 0 0 0 0 3 2 0 2 3 1 10 5 3 7 12 36 54 47 52 10 9 7 9 29 26 13 10 20 6 7 0 0 2 5 10 4 0 0 2 5
6 7 1 0 0 0 0 0 3 4 0 0 0 0 8 1 7 6 17 44 22 61 45 55 15 11 62 21 13 53 33 52 37 17 12 6 15 2 3 0 0 5 2
3 5 0 0 0 0 0 0 4 3 0 0 2 1 0 7 11 34 15 95 91 86 115 152 93 145 166 129 29 29 60 38 39 159 3 14 17 16 25 9 2 1 0
2 4 1 0 0 0 1 0 7 10 9 2 0 0 2 0 29 11 35 45 82 195 177 234 203 165 194 225 186 148 38 7 14 20 144 122 0 1 6 3 2 0 0
1 12 11 1 0 0 0 0 3 13 14 3 1 0 1 2 3 8 13 106 126 256 233 329 382 336 296 230 292 157 71 28 103 128 138 175 83 12 6 10 3 0 0

GFSSE_con_mucape_081.txt.gz
CAPE
1468 1344 1525 1560 1415 1607 1945 1725 1541 1575 1653 1752 1605 1326 1373 1450 1532 1426 1309 1156 1075 999 567 562 691 658 611 479 317 574 527 477 388 405 375 185 140 161 112 296 167 24 55
1685 1616 1454 1779 1816 2094 2154 1848 1672 1721 1831 1860 1565 1453 1479 1596 1677 1572 1488 1306 1254 1166 791 719 639 556 399 326 446 546 535 385 336 323 292 115 93 50 19 44 101 15 8
1832 1727 1477 1731 1920 2199 2267 1991 1870 1953 2020 1900 1667 1558 1668 1820 1848 1723 1492 1314 1144 981 842 746 538 276 150 93 329 435 461 405 271 203 159 31 20 21 14 4 15 15 18
1923 1740 1805 1679 1892 2160 2225 2042 1984 2104 2038 1878 1732 1834 1883 2012 2016 1767 1389 1137 1055 892 732 564 395 190 67 83 111 108 111 275 314 157 21 20 15 27 17 16 15 10 12
1881 2019 2016 1625 1754 1945 2154 2053 2033 1940 1843 1749 1776 2057 2102 2184 1788 1708 1268 1025 913 878 611 470 218 32 6 5 3 0 0 9 27 16 20 27 16 18 13 9 9 9 17
1682 2112 1718 1406 1616 1824 1998 1850 1691 1398 1101 1659 1831 2103 2238 2165 1996 1637 1263 1034 1033 1044 570 268 53 10 1 0 0 0 0 0 33 15 21 31 22 22 9 2 10 10 12
1775 1901 2104 1423 1432 1359 1299 808 651 692 723 1039 1859 1952 1956 1962 1614 1208 1023 967 750 801 599 109 19 1 0 0 0 0 0 0 10 5 7 12 19 21 11 9 10 12 12
1509 1864 1867 1254 948 743 528 296 386 449 0 474 1336 1209 1436 1489 1199 1006 821 746 504 442 278 110 17 0 0 0 0 0 0 0 6 3 5 11 22 19 20 14 12 10 11
1287 1711 1863 1541 928 363 114 76 284 198 28 347 647 827 710 781 873 799 686 680 461 180 114 40 8 0 0 0 0 0 0 2 3 7 1 8 15 15 15 13 11 11 14
832 1153 1661 1241 858 522 244 127 147 305 243 261 545 428 399 450 598 568 430 473 332 183 76 13 4 0 0 0 0 0 0 0 2 4 6 8 21 15 13 12 11 14 13
148 342 621 800 805 447 417 96 145 182 283 225 392 297 212 271 180 352 253 311 263 149 52 10 3 0 0 0 0 0 0 7 6 10 1 27 21 14 14 13 14 15 14
366 140 377 427 441 406 203 312 334 406 568 494 459 446 244 275 160 295 318 261 172 89 18 3 0 0 0 0 0 0 4 8 11 5 6 36 28 22 19 17 16 14 8
390 322 119 245 170 334 146 206 269 678 971 967 595 286 72 174 160 88 332 284 179 41 0 0 0 0 0 0 0 1 5 17 20 3 9 32 30 24 19 13 9 10 4
490 273 105 72 90 165 137 80 205 306 492 425 478 125 103 84 57 153 194 178 179 0 0 0 0 3 0 0 0 2 1 25 24 3 12 27 32 15 17 11 7 4 4
497 563 226 74 54 159 34 32 12 240 248 330 288 201 20 13 79 57 114 262 124 39 0 0 0 0 1 0 0 2 4 28 22 6 10 24 27 20 10 5 7 6 0
329 323 305 109 50 52 75 113 71 29 81 186 11 41 59 2 28 6 37 134 228 161 61 17 10 1 0 0 1 3 7 23 28 9 3 9 18 24 18 9 7 5 0
346 212 121 101 11 22 19 15 0 0 0 1 9 6 6 5 41 93 83 162 298 235 251 140 39 0 0 0 0 5 6 16 16 27 1 3 4 12 27 27 12 6 0
250 77 109 41 33 38 25 2 4 7 2 1 6 3 5 6 58 60 77 131 269 266 184 120 38 0 2 0 0 3 5 5 18 27 21 12 5 9 10 24 23 10 1
120 25 54 79 45 62 67 14 9 4 2 3 3 6 4 0 0 5 48 121 145 106 100 112 94 79 13 3 1 0 2 0 19 6 23 25 20 17 15 3 9 11 0
114 8 11 44 30 39 8 31 20 1 2 3 4 4 2 12 1 2 32 63 59 15 57 98 102 65 35 3 0 0 0 0 1 15 3 3 9 2 9 16 0 0 0
23 3 15 25 0 11 0 15 3 5 0 9 0 6 4 0 40 37 70 73 62 16 10 68 30 46 5 4 0 0 0 0 0 0 1 0 0 0 0 0 0 0 0
16 4 7 23 0 0 6 1 0 0 0 2 3 3 3 3 36 141 158 147 45 24 67 64 52 56 15 17 0 0 0 0 0 0 0 0 0 0 0 0 5 10 0
60 4 7 8 2 0 7 2 0 2 0 0 1 0 0 0 85 154 158 131 94 191 140 233 225 206 146 22 17 106 146 169 114 15 7 6 9 0 0 7 4 2 4
102 3 8 5 1 0 0 0 0 2 0 2 2 2 0 0 61 78 113 112 170 170 206 191 179 194 158 111 5 19 108 178 104 30 29 15 15 20 9 1 0 0 0
117 3 7 7 9 0 0 1 0 1 4 4 0 0 2 2 2 13 56 99 86 105 253 233 192 131 191 243 180 140 130 141 118 66 30 113 5 11 11 4 2 11 2
147 2 5 14 0 0 0 0 27 15 7 2 1 2 0 1 0 31 59 24 59 79 199 269 313 230 230 278 267 333 232 147 91 20 6 110 195 60 19 10 23 2 0

GFSSE_con_mucape_084.txt.gz
CAPE
1519 1226 1523 1679 1783 1987 1682 1573 1546 1549 1668 1680 1381 1292 1474 1555 1443 1229 1111 1004 994 1016 635 566 1009 878 659 599 588 749 633 543 461 562 580 308 201 188 73 201 61 16 265
1542 1353 1535 1674 1830 2076 1865 1698 1644 1676 1822 1809 1434 1474 1556 1634 1535 1338 1233 1142 1079 1079 908 905 798 607 412 526 747 646 569 436 354 418 456 224 118 118 34 35 52 44 23
2027 1570 1387 1623 1956 2126 2105 1906 1807 1889 1992 1831 1622 1653 1730 1815 1720 1591 1408 1291 1303 1365 966 840 619 608 423 663 664 592 420 360 343 234 138 12 21 52 42 26 36 26 24
1962 1979 1814 1588 1929 2273 2204 1972 1903 2022 2107 1867 1769 1809 1901 1972 1885 1735 1498 1215 1104 1468 1016 762 547 344 373 650 548 473 363 294 154 46 11 15 19 52 34 26 23 24 24
1895 1967 2000 1630 1758 2159 2174 2014 1873 1959 1946 1768 1630 1947 2103 2135 1897 1620 1382 1153 1171 1450 1072 718 441 229 242 198 260 347 406 278 85 3 3 3 4 26 21 20 9 14 28
1644 2196 1795 1544 1534 1903 1968 2081 1790 1663 1640 1663 1575 1989 2225 2132 1938 1574 1229 984 1099 1208 1154 668 230 50 16 0 30 34 14 15 21 3 1 9 6 29 20 17 19 18 31
1870 2010 1919 1434 1362 1566 1500 1686 970 552 284 290 470 1646 2163 1952 1615 1315 1088 929 793 1016 880 225 50 12 0 0 5 0 0 4 1 1 0 1 3 17 17 11 13 16 17
1603 2134 2032 1551 1178 962 867 721 520 301 104 14 24 58 1488 1729 1469 1193 958 894 749 752 407 135 58 10 0 0 0 0 0 13 1 0 0 1 17 5 24 28 18 14 13
1247 1727 1487 1782 1043 736 328 229 243 176 47 3 2 13 1114 1002 972 911 679 811 696 434 183 40 7 6 2 0 0 0 0 39 0 0 0 4 9 16 26 20 14 13 11
777 1191 1471 1442 1110 663 384 155 186 102 50 67 33 109 385 393 428 371 478 435 441 235 69 17 1 0 0 0 0 0 0 7 0 0 0 16 25 28 24 18 13 13 11
107 681 702 877 722 552 372 132 43 220 222 158 36 133 200 272 261 189 344 254 190 130 65 8 0 0 0 0 0 0 0 5 0 0 0 37 20 26 21 16 12 13 10
283 453 323 688 526 480 409 51 90 107 251 179 2 121 175 183 117 125 200 179 131 71 11 3 0 0 0 0 0 0 0 15 0 0 0 34 26 20 16 13 11 15 14
246 302 119 259 315 453 124 294 398 243 336 332 131 119 134 134 128 92 108 122 60 32 2 0 0 0 0 0 0 0 2 11 0 0 6 29 25 18 19 14 11 11 9
370 126 451 40 139 410 173 65 224 293 213 241 199 111 101 51 77 22 46 89 40 0 0 0 0 0 0 0 0 0 12 1 0 0 7 22 26 19 13 14 13 6 5
310 268 166 121 19 27 89 119 60 208 189 148 215 88 61 46 24 94 113 72 57 0 0 0 0 0 0 0 0 3 21 1 0 0 0 11 22 24 14 11 8 7 3
359 594 359 221 41 0 9 46 59 50 185 151 148 191 69 23 29 50 69 59 44 0 1 0 0 0 0 0 0 0 16 2 0 0 0 0 11 24 20 11 7 5 5
192 560 372 200 75 7 52 8 9 9 6 77 98 95 9 15 18 54 12 45 35 17 0 4 2 2 1 0 0 3 14 19 0 0 0 0 1 14 20 19 7 3 2
160 300 279 111 16 22 8 8 0 6 0 0 0 45 15 12 43 20 6 9 91 154 81 23 4 0 0 0 0 1 6 29 8 0 0 0 0 0 16 16 15 10 1
143 111 170 56 27 27 25 5 4 4 2 4 9 11 11 27 30 30 14 9 53 98 90 64 27 0 0 1 0 2 1 13 22 5 0 0 0 0 0 5 6 5 1
74 81 116 55 18 37 35 1 4 7 0 0 1 1 6 8 3 7 5 15 37 55 98 64 13 5 1 0 0 9 21 20 0 8 31 7 2 0 0 0 0 0 0
215 12 5 12 14 17 0 0 0 3 0 0 0 3 12 6 4 6 12 22 66 68 86 25 10 0 0 0 0 0 19 25 5 3 0 0 5 2 6 0 0 0 0
74 0 0 6 11 0 0 0 0 6 0 0 4 3 3 5 8 4 11 2 4 49 60 53 14 6 0 0 0 0 0 0 0 1 1 0 0 0 0 0 0 0 0
28 0 1 5 6 0 0 1 0 0 28 6 0 1 3 1 1 4 3 1 0 10 33 34 3 0 0 0 0 17 18 2 0 0 0 0 2 2 5 3 9 6 1
66 0 0 1 2 0 0 0 1 0 0 0 0 2 2 0 0 0 0 3 39 32 45 11 25 1 55 0 4 36 70 69 50 24 16 23 22 8 14 13 3 0 0
117 0 0 2 7 0 0 0 0 0 3 0 2 4 0 0 0 0 2 36 26 114 98 88 96 71 95 90 20 35 41 84 83 57 19 4 0 5 23 19 7 3 20
98 0 0 1 4 4 0 0 0 0 3 2 1 0 6 7 1 0 50 60 77 94 93 102 95 88 58 86 126 119 66 71 92 47 32 11 3 4 6 15 10 5 5

GFSSE_con_mucape_087.txt.gz
CAPE
1151 1414 1688 1846 1779 1609 1566 1535 1532 1605 1719 1524 1563 1680 1548 1435 1307 1238 1216 1124 1079 1104 756 1037 1273 941 875 835 1115 967 848 716 611 570 276 456 88 94 43 160 92 24 251
1378 1333 1539 1883 1979 1790 1747 1689 1700 1788 1861 1597 1702 1731 1571 1438 1369 1294 1220 1151 1145 1076 767 1031 1228 633 632 770 825 733 661 578 529 509 596 483 136 92 33 29 41 48 147
1595 1448 1436 1578 2031 1964 1940 1862 1875 2015 1974 1741 1794 1828 1741 1575 1518 1415 1284 1198 1326 1428 1064 805 492 622 597 874 754 624 504 297 154 172 110 11 22 63 37 30 36 35 47
1715 1612 1412 1529 1868 2139 1975 1871 1930 2078 2076 1808 1889 1978 1941 1816 1706 1595 1407 1362 1368 1466 1215 1009 914 686 848 696 554 554 342 143 64 32 10 19 39 62 35 26 28 11 21
1857 1822 1749 1496 1781 2175 2032 1920 1915 2018 2016 1830 1881 2125 2071 2007 1871 1781 1425 1163 1252 1429 1152 1096 781 916 759 473 385 293 215 27 0 0 6 10 22 54 41 27 7 16 12
1838 1913 1725 1556 1656 2169 2144 2053 1984 1998 1774 1069 774 1392 2300 2160 2037 1679 1225 1168 1253 1373 1313 862 795 785 537 460 458 301 70 5 0 0 0 10 5 36 25 20 29 21 11
1811 1876 1619 1367 1414 1914 2195 2179 2017 1714 984 406 180 222 351 1710 1797 1501 1123 1105 1058 1190 1250 741 619 317 150 85 24 0 0 6 0 0 1 6 16 33 11 6 17 6 15
1535 1781 1796 1452 1239 1391 1664 1867 1164 1171 764 404 143 96 46 514 1294 1232 1055 968 827 958 677 459 212 129 9 3 0 0 1 0 0 0 0 6 26 27 9 4 15 21 21
1063 1187 1171 1407 1188 919 905 988 793 643 501 157 20 0 2 13 713 1037 925 885 824 597 415 210 87 40 0 0 0 0 0 0 0 0 0 3 24 8 18 0 8 21 19
775 737 1051 1065 1101 910 687 390 319 202 105 39 56 5 9 16 344 468 606 667 475 393 224 100 27 0 0 0 0 0 0 0 0 0 4 22 24 11 9 22 15 20 15
11 191 731 964 904 637 535 347 248 121 73 89 68 39 1 120 214 239 374 396 374 205 122 66 9 0 0 0 0 0 0 0 0 0 7 43 20 17 8 22 20 14 13
135 5 236 664 866 363 280 203 65 48 95 47 0 31 25 142 109 182 186 213 202 120 58 3 0 0 0 0 0 0 0 0 0 0 1 30 24 17 23 20 17 12 8
178 55 39 438 543 530 179 68 0 19 54 39 5 58 126 91 106 93 95 89 66 12 0 0 0 0 0 0 0 0 0 0 0 0 5 30 34 22 23 18 12 8 6
196 53 0 139 228 283 215 128 160 95 144 62 38 65 71 98 61 57 31 42 12 1 0 0 0 0 0 0 0 1 0 0 0 0 3 21 16 17 17 11 10 5 5
165 24 0 0 98 150 99 81 43 65 117 113 48 40 63 42 15 32 14 2 13 0 0 0 0 0 0 0 0 0 0 0 0 0 0 12 19 25 14 9 7 5 4
161 54 13 7 40 74 25 0 4 13 9 95 81 54 39 37 26 24 24 12 1 0 0 0 0 0 0 0 0 0 0 0 0 0 0 0 8 16 15 9 7 7 4
217 141 25 8 0 21 14 4 4 6 5 2 45 64 32 35 25 56 24 16 5 0 0 0 0 0 0 0 0 0 0 2 0 0 0 0 0 3 14 12 9 7 5
256 248 102 56 3 12 64 24 6 0 0 12 63 46 34 44 64 35 38 28 12 1 0 0 0 0 0 0 2 0 7 2 0 0 0 0 0 0 2 10 13 11 5
137 273 81 33 2 1 22 4 0 0 3 3 5 55 73 62 80 64 40 25 16 6 4 9 5 4 0 0 1 3 8 4 0 0 0 0 0 0 0 1 4 8 7
52 165 8 0 0 7 3 6 2 0 2 0 0 3 45 20 35 65 50 62 23 0 7 26 20 0 0 0 3 1 10 6 4 0 0 0 0 0 0 0 0 0 0
36 14 0 0 0 1 0 0 0 0 0 0 0 8 22 22 30 19 6 8 15 0 41 53 14 0 0 13 14 17 15 50 19 1 21 1 0 0 0 0 0 0 0
95 8 0 0 0 2 0 0 0 0 0 0 0 0 8 13 31 4 1 5 3 21 48 56 38 6 16 9 6 21 9 6 1 18 14 18 5 0 0 0 0 0 0
135 13 0 0 0 0 11 8 0 0 0 0 0 0 5 21 35 4 3 21 19 38 57 72 46 4 4 6 13 0 0 0 2 6 1 2 4 0 0 0 0 0 0
164 26 0 0 0 0 12 7 0 0 0 0 2 5 7 11 16 13 11 11 15 20 49 45 0 1 5 0 0 10 11 11 0 0 0 0 0 0 0 5 11 2 1
159 32 0 0 0 4 0 7 0 0 0 0 9 0 11 15 4 3 3 9 12 1 0 0 5 11 12 0 0 0 48 33 17 5 2 1 14 5 2 13 18 2 3
162 60 0 0 1 4 0 4 0 0 0 0 0 0 9 5 2 0 0 0 5 4 1 3 23 15 48 22 2 12 37 35 29 42 13 3 0 0 0 0 0 0 8

GFSSE_con_mucape_090.txt.gz
CAPE
1176 1619 1610 1753 1703 1661 1608 1541 1541 1557 1556 1759 1685 1597 1546 1523 1461 1416 1438 1390 1436 1552 1134 1098 1399 1346 1329 1010 1039 977 937 831 736 624 696 350 251 224 164 109 165 31 231
1195 1619 1660 1746 1742 1785 1761 1707 1690 1729 1718 1893 1761 1620 1508 1499 1475 1419 1373 1367 1455 1625 1129 1025 978 976 971 1031 1012 893 806 639 521 535 612 141 116 150 74 83 147 82 90
1259 1488 1822 1761 1812 1887 1870 1816 1958 1948 1823 1916 1853 1697 1622 1556 1505 1399 1358 1283 1393 1605 1165 984 962 959 787 1001 853 784 668 463 377 343 217 16 27 41 31 116 134 49 37
1403 1272 1588 1872 1849 1950 1904 1947 2069 2056 1824 2001 1944 1801 1746 1690 1644 1578 1422 1323 1415 1577 1111 579 1029 787 925 814 637 503 392 242 158 82 0 17 27 39 14 13 25 27 25
1590 1484 1223 1713 1957 1941 1887 1919 2029 2100 1891 1935 2016 1987 1905 1820 1759 1609 1567 1547 1638 1555 1245 859 926 825 813 632 390 289 109 36 12 2 2 19 20 48 32 23 20 29 24
1719 1673 1622 1451 1976 2006 1976 1986 2042 2081 1795 1848 1993 2095 2073 1983 1841 1747 1465 1485 1565 1479 1394 1262 1149 802 565 389 295 83 0 0 0 1 14 23 13 34 10 13 27 19 9
1834 1763 1644 1469 1674 2069 2182 2080 1989 1991 1649 1370 1224 921 450 436 918 1328 1340 1378 1292 1336 1207 1031 715 573 402 282 52 0 0 0 0 0 3 5 11 30 18 3 6 10 14
1765 1664 1531 1328 1387 1925 2140 2102 1922 1799 1404 911 492 318 142 238 512 714 997 1254 1126 1012 903 687 625 482 275 5 0 0 0 0 0 0 3 6 34 28 22 8 11 6 15
1636 1588 1060 1344 1086 1268 1619 2021 1924 1692 1199 667 277 182 163 87 62 167 570 803 738 615 584 504 311 165 26 0 0 0 0 0 0 0 1 12 35 30 12 10 3 4 17
1226 849 884 873 1272 940 1067 1743 1428 1334 989 626 180 72 77 51 35 17 293 534 632 579 430 328 97 35 14 0 0 0 0 0 0 0 0 20 43 31 9 5 4 14 7
633 591 994 717 533 748 700 695 732 650 596 203 75 22 29 31 1 45 198 364 422 291 230 135 24 6 17 0 0 0 0 0 0 0 1 32 17 23 27 17 9 14 15
107 276 725 719 474 506 548 521 404 102 12 21 4 10 3 0 3 82 176 218 230 168 109 40 0 1 2 0 0 0 0 0 0 0 1 34 15 24 18 6 13 11 15
136 87 224 619 547 455 287 275 145 0 0 0 7 40 11 31 131 129 101 105 110 39 2 1 0 0 5 0 0 0 0 0 0 0 6 29 30 21 4 10 14 10 17
232 126 20 212 396 279 126 80 24 0 20 60 8 8 41 62 51 89 68 62 71 51 0 0 0 0 7 0 0 0 0 0 0 0 7 15 29 22 17 17 14 12 12
242 74 0 223 245 299 262 112 102 100 215 27 16 28 82 87 33 53 51 51 52 15 0 0 0 0 4 0 0 0 0 0 0 0 0 15 26 26 15 12 13 13 11
216 45 0 92 77 152 190 204 196 85 163 178 31 2 70 37 35 26 12 17 14 0 0 0 0 0 0 0 0 0 0 0 0 0 0 1 11 17 18 11 13 14 10
161 28 0 0 51 114 127 90 52 45 32 151 89 31 12 14 30 14 13 24 4 0 0 0 0 0 1 0 0 0 0 0 0 0 0 0 0 6 18 21 12 8 6
132 47 0 11 35 33 51 43 41 13 31 75 77 48 40 7 33 26 27 19 28 0 0 0 0 0 0 0 0 0 0 0 0 0 0 0 0 0 5 16 15 12 6
163 76 14 21 0 0 2 39 24 14 27 32 93 51 78 87 35 42 10 18 38 9 21 0 0 0 0 0 0 0 2 0 0 0 0 0 0 0 0 8 9 8 7
161 126 65 38 16 0 4 6 7 4 6 3 3 43 53 54 52 33 60 70 19 1 13 0 0 0 0 0 0 7 12 10 2 0 0 0 0 0 0 0 0 0 0
149 157 74 46 9 0 0 0 0 0 0 4 1 3 50 67 85 21 73 7 35 7 3 0 0 0 0 0 0 21 13 26 8 10 2 0 0 0 0 0 0 0 0
126 137 73 42 1 0 0 0 0 0 0 0 0 0 7 46 73 67 37 25 13 7 6 9 8 1 9 13 7 12 24 46 54 36 20 6 23 16 1 0 0 0 0
103 102 102 52 0 0 0 2 3 1 0 0 0 0 0 10 62 62 55 27 7 11 5 0 0 22 23 20 31 21 11 4 32 29 16 11 45 27 21 6 1 0 0
119 136 132 30 0 0 0 1 0 0 0 0 0 0 3 5 17 11 18 16 2 4 0 0 8 64 41 31 30 27 16 2 16 0 2 41 59 55 43 27 9 0 0
143 144 126 27 0 0 0 0 0 0 0 0 0 0 2 0 0 2 4 2 3 0 0 35 63 46 31 30 30 5 18 5 0 0 0 31 36 37 25 25 17 5 0
184 193 153 37 0 0 0 1 0 1 0 0 0 0 3 17 7 20 16 23 13 42 12 47 33 33 37 30 37 28 40 36 23 34 29 11 2 6 0 0 0 3 2

GFSSE_con_mucape_093.txt.gz
CAPE
1054 1308 1505 1690 1676 1612 1499 1484 1493 1599 1720 1833 1862 1831 1760 1716 1670 1664 1578 1585 1505 1486 1109 1476 1467 1395 1167 1006 961 950 995 792 685 678 723 592 544 456 362 346 278 139 577
1036 1358 1492 1722 1773 1658 1514 1599 1563 1751 1824 1890 1863 1810 1798 1792 1774 1755 1697 1789 1702 1574 1012 1273 1708 1447 967 969 1075 790 847 702 571 609 590 425 352 214 211 149 242 183 318
1263 1510 1499 1581 1788 1832 1717 1671 1802 1979 2013 1946 1872 1859 1867 1886 1890 1782 1733 1749 1798 1288 1009 1269 1453 1184 1110 1087 1016 911 772 684 472 402 135 4 20 108 90 91 276 90 94
1286 1574 1493 1543 1755 1894 1872 1939 1984 1970 1999 2017 1921 1896 1917 1892 1844 1780 1688 1677 1651 1549 1452 1287 1247 1165 1035 1020 820 723 585 404 260 134 0 1 13 73 72 44 50 50 42
1158 1525 1687 1562 1664 1892 1912 1976 2037 2013 2093 2011 1939 1927 1887 1892 1822 1766 1554 1608 1721 1761 1659 1346 1265 1008 914 654 533 445 319 161 46 0 4 6 10 32 33 38 33 34 34
1166 1161 1537 1692 1638 1892 1959 2017 2165 2023 1944 1961 1903 1982 1943 1909 1883 1746 1563 1605 1775 1547 1501 1623 1236 862 577 370 234 107 25 9 0 0 7 25 2 35 19 16 29 34 31
1451 1338 1204 1681 1798 1916 2086 2118 2120 1949 1875 1971 1990 1705 1911 1659 1550 1603 1332 1351 1406 1463 1307 1263 902 704 453 221 67 1 0 0 0 0 0 3 5 21 11 16 21 12 18
1595 1627 1522 1352 1714 1999 2064 2019 2005 1851 1634 1598 1356 996 859 815 560 537 589 1121 1029 980 804 680 613 586 307 86 3 0 0 0 0 0 1 7 26 21 20 19 13 16 13
1692 1686 1479 1349 1319 1797 2021 2005 1840 1673 1355 1082 899 679 763 379 312 294 435 656 721 682 587 542 467 311 123 18 0 0 0 0 0 0 3 7 36 25 29 16 17 15 13
1513 1497 1130 974 935 1016 1440 1898 1635 1446 1226 968 618 367 305 353 442 427 319 289 559 661 691 465 344 63 0 0 0 0 0 0 0 0 3 13 38 24 34 19 11 7 8
1201 1184 892 714 702 721 903 1253 1254 1030 866 835 580 395 202 102 92 89 148 204 209 337 322 359 148 0 0 0 0 0 0 0 0 0 1 27 33 34 27 22 10 19 8
796 659 719 565 538 451 580 1045 1100 838 722 725 511 206 57 41 31 38 77 105 236 192 176 160 46 4 4 2 0 0 0 0 0 0 0 29 39 42 32 8 10 9 15
219 346 653 650 425 361 171 320 681 453 338 133 43 23 1 0 9 9 63 126 133 139 72 80 39 6 14 0 0 0 0 0 0 0 2 24 30 33 18 18 11 5 13
38 69 340 557 481 271 168 286 327 200 27 2 0 0 10 19 14 98 101 118 75 42 59 39 18 9 2 0 0 0 0 0 0 0 5 26 19 18 23 14 10 11 6
180 184 56 382 413 277 186 104 105 79 14 46 0 0 34 42 27 78 59 40 19 42 68 56 0 0 0 0 0 0 0 0 0 0 0 23 29 31 15 9 15 8 11
287 218 23 71 252 169 142 74 19 37 21 1 0 1 55 26 42 40 77 55 21 73 69 63 1 0 0 0 0 0 0 0 0 0 0 3 14 26 26 15 18 21 15
359 249 17 62 137 150 162 95 126 167 199 220 5 1 136 44 40 51 60 47 72 72 40 11 5 0 0 0 0 0 0 0 0 0 0 0 5 10 25 35 29 16 14
377 251 15 35 33 51 84 108 123 117 139 264 98 37 49 81 20 32 39 27 37 55 5 0 0 0 0 0 0 0 0 0 0 0 0 0 0 0 10 19 23 21 14
341 235 34 0 31 15 57 25 4 28 86 131 96 42 36 60 51 27 35 32 44 30 0 0 0 6 0 0 0 0 0 0 0 0 0 0 0 0 0 10 9 12 15
291 235 50 0 9 30 28 0 0 6 28 33 41 67 43 57 83 49 38 30 40 6 10 0 0 3 0 0 0 0 0 0 0 0 0 0 0 0 0 0 1 0 2
307 204 80 28 0 19 0 0 1 0 6 8 7 10 69 40 71 33 53 28 27 26 8 11 9 0 0 0 3 3 4 2 0 0 0 0 0 0 0 0 0 0 0
291 198 93 39 10 2 0 0 0 0 0 0 0 0 0 16 31 45 60 43 55 28 18 5 2 0 5 2 1 13 8 11 12 4 4 0 0 0 0 0 0 0 0
248 193 113 52 37 7 0 0 0 0 0 0 0 0 0 6 18 35 44 50 50 32 16 3 5 1 2 9 8 11 11 0 18 23 27 7 6 0 0 6 2 1 0
254 166 139 68 69 5 0 0 0 0 0 0 0 0 0 2 24 44 32 27 17 27 25 4 3 4 49 7 38 46 64 46 70 30 17 29 20 29 41 34 52 43 25
247 196 123 79 102 7 0 0 0 0 0 0 0 0 0 0 0 25 19 36 8 18 12 8 8 0 24 51 48 71 93 35 71 46 39 31 32 42 68 85 90 70 54
209 203 122 106 110 9 0 0 0 0 0 0 0 0 0 0 4 6 18 10 4 18 17 10 5 0 0 56 62 59 68 31 24 13 6 13 19 64 89 86 73 69 52

GFSSE_con_mucape_096.txt.gz
CAPE
879 1050 1414 1642 1626 1597 1449 1429 1575 1747 2027 2049 1938 1883 1905 1915 1888 1844 1768 1608 1599 1661 1761 1737 1744 1719 1578 1173 1178 1104 1057 877 805 857 907 776 701 570 580 540 610 389 781
975 1160 1392 1674 1687 1638 1580 1537 1614 1852 2113 2208 2077 2001 1958 1962 1926 1878 1850 1793 1783 1925 1882 1921 1766 1586 1255 1081 1026 1074 975 812 701 662 745 647 523 532 408 406 556 499 734
1028 1144 1387 1611 1725 1679 1704 1697 1781 2009 2151 2251 2214 2139 2100 2091 1992 1943 1945 1839 1782 1837 1618 1855 1618 1493 1223 1163 1092 1032 896 785 681 625 355 91 122 380 290 381 630 607 385
1015 1197 1352 1537 1737 1799 1743 1770 1924 2013 2150 2213 2251 2254 2236 2174 2045 2022 1950 1769 1686 1829 1728 1378 1354 1349 1281 1138 1009 925 723 492 277 84 5 10 34 199 151 135 196 174 168
1256 1207 1317 1489 1652 1834 1807 1850 1983 1983 2014 2029 2092 2250 2283 2234 2108 1998 1878 1666 1509 1641 1828 1448 1302 1363 1198 945 767 644 444 170 25 0 0 8 27 153 216 126 109 118 54
1229 1362 1375 1451 1569 1837 1903 1952 1967 2028 1910 1886 2003 2122 2214 2051 2168 1857 1608 1507 1579 1661 1673 1526 1429 1249 892 661 542 401 167 24 0 0 0 3 7 22 39 37 42 32 39
1037 1314 1497 1432 1465 1815 2026 2054 2048 1981 1866 1884 1945 1855 1676 872 786 1191 1310 1264 1106 1178 1499 1383 1245 955 672 458 343 126 29 5 0 0 0 0 0 14 19 32 30 28 34
1024 987 1101 1634 1531 1722 1895 1907 1899 1719 1643 1804 1731 1683 1309 720 608 869 1093 764 801 839 957 1195 933 729 450 288 90 32 14 0 0 0 0 0 15 20 8 19 21 32 22
1321 1257 1216 1201 1638 1775 1833 1775 1725 1580 1556 1438 1189 1261 965 722 610 724 617 489 446 678 843 974 713 493 291 182 95 17 5 0 0 0 0 0 32 21 13 20 20 8 9
1577 1532 1518 1302 1166 1506 1775 1889 1717 1533 1204 999 889 766 425 194 245 121 88 237 445 547 654 827 486 283 196 143 51 7 0 0 0 0 0 5 48 25 17 11 27 17 14
1496 1528 1419 1283 1068 908 1160 1511 1442 1320 1318 987 599 540 422 155 99 78 54 145 530 331 355 586 236 174 109 35 16 0 0 0 0 0 0 42 39 21 22 15 9 17 24
1321 1326 1181 897 718 647 688 892 1045 951 1175 595 671 598 467 159 121 135 84 232 258 266 284 214 112 36 0 0 0 0 0 0 0 0 0 38 39 24 29 29 22 33 34
1073 1095 951 709 510 409 486 572 821 992 682 603 512 712 304 192 130 136 104 130 133 151 161 108 73 5 0 0 0 0 0 0 0 0 13 35 66 35 36 28 28 35 33
707 738 663 764 493 336 237 433 729 798 531 592 433 334 204 67 13 41 52 53 110 135 95 65 52 34 0 0 0 0 0 0 0 0 11 26 45 42 39 25 33 37 32
267 155 384 726 485 269 150 104 120 526 334 209 75 0 0 0 9 12 40 67 95 96 62 66 81 26 1 0 0 0 0 0 0 0 1 18 40 47 17 35 37 39 26
6 0 100 294 407 297 104 36 97 171 153 37 2 0 0 1 1 33 13 64 65 43 70 52 71 56 24 7 0 0 0 0 0 0 0 8 26 43 40 36 36 33 26
86 40 130 105 310 285 109 0 14 46 15 18 67 6 2 6 30 21 25 40 36 20 69 58 85 76 5 0 0 0 0 0 0 0 0 8 13 15 28 44 29 26 21
255 95 241 128 84 168 55 12 0 5 19 57 78 67 7 5 3 20 14 30 15 39 64 61 62 32 0 0 0 0 0 0 0 0 0 0 5 8 16 32 33 30 15
306 143 323 164 6 101 72 0 13 53 73 188 234 55 15 38 0 27 38 14 23 60 48 62 63 19 0 0 0 0 0 0 0 0 0 0 0 3 5 13 18 20 19
197 195 347 194 34 32 34 0 19 29 11 87 106 129 68 37 11 12 6 15 25 61 35 26 9 0 0 0 0 0 4 3 0 0 0 0 0 0 0 0 2 1 3
109 173 363 256 45 3 0 0 0 3 2 15 92 167 58 34 59 28 16 16 20 1 30 20 0 0 5 0 0 7 17 17 1 0 0 0 0 0 0 0 0 0 0
87 127 313 294 72 23 0 0 5 3 0 3 20 29 35 123 34 33 25 30 31 4 70 17 2 0 8 6 11 18 12 13 3 1 0 0 0 0 0 0 0 0 0
68 82 292 300 97 43 4 0 0 2 1 1 0 0 1 1 63 49 27 32 45 23 60 22 2 4 6 12 20 17 4 8 1 0 0 0 0 0 0 0 0 0 0
105 114 276 284 132 60 17 0 0 0 0 0 0 0 0 0 0 5 13 27 77 47 48 21 10 3 2 0 3 51 32 1 20 7 7 0 0 0 0 0 0 0 0
156 160 281 256 157 80 37 0 0 0 0 0 0 0 0 0 0 9 13 30 16 38 29 29 16 8 0 1 0 59 70 51 52 38 19 17 55 26 28 44 41 34 31
131 177 248 210 169 90 64 16 0 0 0 0 0 0 0 0 0 14 10 5 25 5 45 25 18 10 6 0 0 82 99 84 19 0 34 55 81 39 38 35 35 56 84

GFSSE_con_mucape_099.txt.gz
CAPE
1067 1110 924 1073 1540 1409 1421 1570 1717 1846 1827 1909 1956 1983 2016 2091 2078 2086 1918 1879 1990 1942 1813 1671 1841 1648 1245 1202 1345 1349 1269 1170 989 1064 1033 933 874 802 720 855 756 534 905
1166 1245 1032 1483 1601 1499 1469 1619 1797 2071 2070 2096 2078 2082 2078 2090 2096 2042 1942 1944 1954 2086 1747 1712 1998 1591 1370 1322 1358 1188 1084 908 814 762 922 826 784 663 685 858 732 703 915
1409 1389 1346 1298 1554 1609 1534 1618 1901 2270 2374 2295 2233 2224 2193 2166 2141 2006 2043 2060 2007 2085 1964 1752 1633 1575 1381 1314 1282 1131 993 842 794 818 886 693 699 620 598 733 778 771 801
1430 1300 1470 1350 1510 1651 1594 1695 2043 2307 2420 2376 2361 2331 2303 2259 2163 2153 2059 1998 2051 2094 2220 1753 1636 1547 1454 1352 1171 1082 934 733 542 536 570 444 381 466 401 436 495 447 420
1311 1298 1530 1409 1466 1633 1636 1716 1932 2210 1840 2298 2335 2475 2464 2336 2233 2118 1704 1548 1955 1953 2041 1851 1690 1641 1380 1113 968 798 594 293 177 270 376 406 335 319 337 378 414 287 232
1361 1367 1287 1393 1471 1642 1753 1819 1914 1983 1910 1824 2220 2454 2529 2328 2252 1705 1322 1115 1903 1978 1896 1808 1674 1465 1103 857 707 485 219 126 49 99 141 278 229 314 283 175 292 189 108
1525 1270 1289 1331 1458 1651 1821 1942 1944 1814 1799 1907 2132 2277 2230 1416 1253 769 595 772 1106 1484 1600 1416 1363 1173 883 686 509 240 93 25 33 48 49 34 86 126 82 57 44 64 39
1635 1651 1704 1321 1390 1608 1672 1670 1679 1740 1670 1702 1694 1670 1511 1280 966 732 733 983 1194 998 956 1037 1004 811 739 563 279 69 19 25 17 12 5 13 21 34 41 41 31 33 28
1403 1513 1747 1941 1606 1512 1564 1512 1529 1567 1591 1435 1264 1291 1118 932 700 695 805 1070 993 798 949 874 881 571 536 317 131 45 11 14 27 11 3 14 43 23 27 26 24 18 20
1265 1422 1405 1989 2110 2074 2105 1543 1500 1537 1433 1440 1136 962 712 566 608 705 852 736 586 651 752 585 513 371 338 247 120 56 6 6 45 12 11 23 55 34 20 10 19 21 29
1360 1408 1352 1466 1646 1988 2140 1776 1613 1480 1217 1240 868 869 626 652 532 766 390 399 554 470 466 468 346 215 275 254 156 41 4 42 20 8 10 17 52 39 34 21 17 30 26
1445 1531 1550 1415 1329 1356 1297 1544 1571 1349 1189 1126 800 803 1099 642 601 277 104 80 300 281 374 348 229 173 222 165 101 33 56 17 33 21 30 30 51 45 41 27 24 34 36
1063 1388 1459 1320 1151 958 751 1103 1314 1086 924 1026 710 564 506 418 581 208 346 272 474 250 246 158 102 243 237 169 49 12 8 2 15 35 36 43 54 47 26 31 38 33 25
828 1298 1168 1060 862 747 692 753 840 764 708 689 952 485 566 410 360 246 308 354 316 314 104 80 150 235 100 37 0 0 0 0 13 25 28 42 42 74 33 38 39 32 32
661 798 792 750 658 523 475 498 466 454 648 514 583 585 424 245 204 283 176 123 118 150 49 59 42 54 55 26 0 0 0 0 1 33 36 22 42 79 33 36 39 32 32
581 485 559 402 512 430 341 323 280 272 345 414 582 423 335 243 168 14 94 85 128 145 81 61 54 49 81 1 0 0 0 0 0 17 22 31 27 51 58 38 33 31 32
545 340 255 232 780 390 290 182 111 71 44 121 183 174 28 8 58 12 1 49 28 69 38 62 63 66 61 37 19 0 0 0 0 6 19 10 31 24 36 45 45 34 31
411 282 142 107 537 641 329 163 52 21 68 64 26 68 26 219 63 41 24 36 23 49 22 43 60 51 59 66 43 3 0 0 0 0 9 26 31 25 28 43 47 44 34
229 144 161 107 147 309 285 139 74 0 34 54 32 27 54 32 148 84 83 13 45 33 18 3 42 52 72 81 74 19 0 6 13 1 16 24 37 27 37 22 24 21 27
190 154 191 68 153 160 157 78 20 0 22 312 28 30 58 150 101 110 33 6 6 13 18 38 60 45 89 70 51 22 2 14 10 8 10 14 26 28 35 27 25 12 9
91 141 126 108 182 189 49 59 15 0 0 7 25 36 64 82 39 44 33 8 2 5 30 34 52 60 0 48 56 18 7 2 10 7 9 15 15 25 24 34 19 19 11
4 130 123 143 228 225 48 4 26 2 4 1 32 41 45 172 69 85 35 47 18 7 6 26 35 4 13 24 23 8 5 6 7 3 8 10 24 25 1 10 13 6 7
0 107 169 225 257 278 103 0 0 3 6 20 5 20 46 50 85 89 34 46 12 25 5 12 16 22 3 4 3 4 0 9 3 1 12 14 21 22 24 10 16 15 4
12 95 179 216 236 307 152 19 6 0 0 0 1 0 1 18 17 16 24 34 60 37 22 6 4 12 1 0 0 1 16 3 0 8 5 6 15 9 16 5 3 1 3
23 122 196 190 171 283 201 53 24 2 0 0 0 0 3 0 0 20 8 31 13 73 36 50 9 12 0 0 2 0 0 17 38 28 11 0 7 9 22 15 0 0 4
94 179 230 130 103 264 230 89 47 4 0 0 0 0 0 0 0 0 40 0 6 12 23 57 11 22 0 0 2 1 0 0 0 0 18 63 82 72 35 16 22 21 14

GFSSE_con_mucape_102.txt.gz
CAPE
1415 1309 1009 1314 1518 1526 1678 1763 1886 2027 2016 2013 2086 2129 2112 2139 2178 2165 2234 2345 2296 2197 1947 1709 1855 1582 1382 1266 1326 1490 1510 1325 1154 1188 1240 1223 1071 930 851 1021 947 794 947
1542 1518 909 1257 1551 1510 1639 1828 1954 1976 2078 2168 2192 2198 2196 2250 2289 2284 2261 2325 2221 2217 1810 1724 1903 1849 1595 1628 1694 1505 1335 1130 1044 1120 1174 1141 1137 807 765 991 916 828 909
1722 1568 1231 1000 1593 1596 1691 1868 2183 2230 2320 2366 2302 2301 2357 2390 2399 2239 2226 2259 2218 2190 1896 1836 1800 1783 1605 1652 1478 1334 1168 1049 1030 1109 1131 861 965 902 875 954 919 955 903
1594 1721 1610 1161 1550 1586 1754 2000 2295 2566 2528 2446 2431 2480 2456 2435 2335 2273 2247 2147 2200 2294 2181 1897 1799 1798 1695 1561 1360 1221 1139 1025 1015 865 870 765 763 789 746 679 905 686 552
1483 1573 1794 1149 1445 1600 1583 1906 2187 2464 2444 2429 2464 2605 2563 2499 2269 2109 1993 1956 1752 1575 1935 1705 1797 1664 1630 1300 1189 1096 925 747 726 810 694 648 649 659 694 617 536 660 524
1480 1518 1492 1218 1374 1618 1624 1771 2102 2121 2071 2266 2419 2600 2607 2370 1600 1748 1524 1513 1224 1360 1535 1856 1792 1647 1264 1024 918 665 491 445 476 797 816 597 432 572 537 612 477 363 271
1757 1740 1952 1283 1375 1644 1778 1851 1911 1943 1745 1967 2303 2484 2416 1756 1659 1203 1164 1227 1200 1198 1201 1274 1346 1167 1061 841 630 483 443 306 765 554 513 453 506 565 319 179 164 267 147
2182 2118 2084 1361 1374 1478 1714 1759 1659 1679 1775 1684 2171 2016 1612 1507 1182 1065 905 749 581 685 1086 1097 995 966 874 636 472 444 356 188 213 296 228 268 360 325 212 51 42 42 38
2445 2426 2379 2096 1834 1338 1328 1439 1495 1523 1641 1712 1747 1570 1206 1221 1052 892 856 815 501 851 974 1202 931 667 617 417 398 343 220 63 325 203 93 15 211 230 99 28 28 21 24
2422 2457 2502 2420 2246 2248 2086 1281 1293 1466 1480 1474 1461 1402 1087 820 832 874 767 846 1108 864 750 816 699 476 361 250 271 216 68 60 310 213 88 7 74 56 33 29 23 20 19
2159 2256 2347 2377 2343 2085 2118 1840 1379 1413 1454 1345 1186 957 989 1334 1122 823 597 765 826 714 613 648 402 195 183 163 178 146 41 321 166 119 61 40 88 30 25 32 23 25 25
2086 2222 2232 2299 2279 2248 1888 2236 2353 2285 2071 1856 1547 1346 1228 1113 1103 615 466 522 556 445 412 220 153 129 151 313 217 125 369 214 194 49 27 72 105 33 29 27 31 36 28
1646 1994 2114 2282 2273 2133 1883 1701 1762 2002 1748 1794 1411 1495 1409 1360 1085 796 922 621 550 326 710 145 93 152 175 583 376 389 286 306 116 47 6 56 138 46 41 21 27 41 33
1449 1720 1933 2017 2159 2101 1630 1620 1492 1117 1300 1341 1223 1082 1121 1204 919 786 788 399 502 378 474 184 73 108 301 444 389 322 231 110 98 49 21 38 62 53 30 31 51 52 30
1543 1586 1758 1787 1942 1764 1631 1287 1016 1203 1089 1035 912 555 774 894 637 279 351 497 609 835 251 132 59 111 505 355 236 209 159 85 75 64 38 29 43 62 42 47 64 48 31
1313 1461 1904 1595 1624 1553 1428 1351 1187 1192 887 789 617 411 477 722 598 618 569 507 740 755 407 129 72 103 495 399 210 173 155 99 74 60 25 52 29 49 72 55 72 49 42
909 1326 1680 1652 1421 1452 1349 1361 1054 756 1107 614 447 466 477 400 545 454 346 369 580 396 93 69 23 69 60 234 169 148 137 98 44 30 62 55 46 27 41 77 93 48 39
405 979 1405 1286 1176 958 1195 1221 899 654 841 765 479 322 366 432 482 443 340 256 274 142 39 2 19 53 47 157 168 165 149 74 40 40 41 62 51 44 26 63 69 56 48
182 699 1151 1348 1110 665 704 1037 922 594 371 608 428 455 388 517 419 391 281 67 62 17 58 17 38 34 33 165 141 120 103 52 35 32 29 36 40 44 31 47 39 32 36
52 552 952 1102 1144 460 426 1046 825 361 445 216 192 488 504 295 384 428 302 8 17 20 19 26 10 14 47 142 107 112 94 51 44 42 22 36 32 39 41 60 33 35 25
0 405 819 1001 1190 390 662 758 524 235 66 319 154 169 274 397 287 262 110 5 4 15 30 19 13 9 52 67 72 33 77 53 28 44 22 40 49 20 35 37 27 38 19
0 112 621 870 1116 837 979 859 547 336 196 103 105 176 402 419 274 232 40 26 4 5 26 16 5 20 40 58 0 38 0 8 45 35 40 36 34 44 38 44 35 33 35
0 9 424 701 1056 888 974 791 474 347 67 88 61 1 81 312 176 35 29 20 34 1 11 3 6 21 0 0 54 0 0 0 15 27 40 30 41 35 35 46 43 21 18
0 0 231 514 895 858 968 740 366 184 75 77 40 1 7 50 47 48 41 43 7 2 4 25 10 8 4 0 63 80 58 40 23 53 19 21 26 28 37 33 29 23 25
0 7 292 475 772 848 958 706 500 457 318 102 18 9 8 28 60 54 23 30 18 43 25 22 14 7 2 13 35 116 83 65 59 37 13 20 20 35 33 24 20 39 34
0 14 454 533 774 831 840 711 614 523 237 30 8 11 18 19 24 29 67 8 30 14 36 12 14 2 5 32 115 183 47 42 46 0 0 0 89 83 34 23 72 55 60

GFSSE_con_mucape_105.txt.gz
CAPE
982 1176 1170 1502 1556 1606 1737 1854 1991 1994 2067 2084 2130 2164 2187 2207 2269 2329 2412 2476 2422 2492 2237 1928 1767 1764 1586 1361 1288 1759 1616 1426 1409 1496 1572 1385 1041 892 893 1063 935 798 1019
1137 1252 1015 1497 1531 1523 1651 1870 2025 2120 2173 2180 2217 2261 2245 2300 2366 2423 2502 2525 2453 2541 2191 1849 1744 1714 1658 1491 1837 1697 1528 1365 1310 1317 1344 1329 1244 1002 909 952 943 906 1046
1392 1437 1161 1392 1583 1702 1748 1936 2159 2297 2304 2338 2314 2322 2354 2429 2461 2454 2505 2465 2401 2471 2058 1881 1763 1817 1698 1724 1507 1580 1419 1331 1289 1293 1189 929 979 1099 1047 1087 1053 1077 1040
835 1596 1457 1280 1551 1763 1945 2161 2322 2437 2436 2421 2381 2424 2268 2524 2498 2433 2349 2225 1981 1927 2071 1919 1713 1786 1747 1677 1462 1432 1374 1283 1167 1092 970 841 915 1052 949 984 1102 1019 819
667 1317 1793 1119 1444 1676 1878 2128 2396 2443 2405 2395 2362 2523 2546 2567 2329 2080 2188 2056 1751 2082 1700 1593 1521 1638 1694 1418 1333 1293 1249 1012 963 982 938 848 764 928 993 908 808 893 669
641 998 1572 1022 1358 1580 1834 2105 2361 2405 2276 2254 2316 2499 2607 2341 1918 2069 1798 1964 1973 1807 2051 1995 1450 1348 1349 1197 1167 1065 984 977 722 837 821 782 726 822 728 810 585 496 415
892 1308 1910 1112 1338 1612 1759 2035 2199 2129 2146 2187 2337 2399 2498 2076 2100 1900 1638 1607 1747 1787 1699 1796 1741 1412 1189 1028 785 707 708 684 1034 433 755 767 719 686 640 434 443 322 161
1488 1706 2296 1250 1329 1522 1636 1678 1783 1762 1749 1957 2226 2241 1966 1886 1830 1584 1411 1388 1429 1479 1337 1535 1351 1270 1009 773 606 562 490 419 700 454 387 699 758 642 461 292 206 103 37
2027 2316 2547 1942 1610 1298 1381 1367 1399 1623 1605 1623 1875 1842 1586 1395 1163 1208 1060 966 958 1017 1309 1261 1028 857 708 577 456 462 383 255 305 232 266 377 685 511 300 60 35 23 32
2419 2554 2601 2425 2114 1993 1691 1253 1270 1318 1532 1596 1644 1721 1393 1028 904 1002 822 832 633 567 1029 1072 756 494 397 267 330 318 221 138 332 81 88 148 579 336 109 37 23 16 11
2222 2425 2481 2407 2248 2262 1981 1676 1161 1238 1285 1317 1519 1414 1361 1664 1468 1141 745 648 749 897 950 914 464 167 147 179 163 194 175 242 316 70 92 174 414 177 53 24 22 14 16
1759 2023 2067 2229 2170 2114 2098 2207 1969 1737 1809 1718 1452 1593 1753 1347 1483 1219 824 653 788 704 571 489 192 84 93 130 129 99 196 374 341 56 40 94 262 61 34 21 14 14 16
1217 1626 1776 2119 2218 2283 2168 2237 2170 2355 2411 2178 1844 1798 1775 1628 1833 1368 1540 676 721 494 606 228 121 170 38 50 207 252 367 379 126 69 20 72 130 39 31 25 20 27 21
1033 1470 1693 1935 2238 2315 1835 2166 1790 1987 2222 1962 1802 1771 1879 1806 1813 1616 1390 1018 1069 1065 729 803 492 115 10 74 169 428 295 266 46 52 27 39 95 76 29 29 32 26 37
746 1229 1812 1871 2224 2178 2112 1793 1627 1596 1751 1744 1712 1551 1684 1591 1453 1366 1219 1025 832 1111 775 641 405 39 39 68 148 308 299 359 87 50 32 28 48 72 35 40 38 34 40
398 1132 1835 1963 2046 2023 1976 1719 1526 1368 1109 1480 1438 1378 1478 1551 1472 1178 978 740 570 1014 884 760 305 68 50 45 238 421 181 147 97 111 33 34 32 45 51 63 47 45 36
2 540 1906 2143 2059 2030 1863 1844 1673 1295 1102 1085 945 1218 1182 1275 1190 897 687 576 641 1144 724 590 287 67 96 103 309 234 107 97 81 47 38 50 34 25 47 74 69 54 34
0 175 1362 1975 2117 1981 1834 1757 1577 1077 1041 1108 941 1125 1138 1116 1086 1029 908 858 802 800 436 262 130 40 45 93 80 183 94 57 54 66 30 59 61 36 29 44 67 54 46
0 0 838 1965 2152 1962 1817 1736 1640 1215 959 744 826 894 926 861 1000 897 818 774 919 599 81 38 69 48 59 64 72 118 66 69 42 17 57 48 58 36 28 25 24 20 53
0 0 423 1715 2140 2047 1589 1653 1533 1252 936 704 753 716 681 895 1074 793 674 558 500 177 48 12 11 25 35 50 93 68 82 122 52 46 29 58 39 41 44 30 30 16 21
0 0 468 1466 2005 1827 1079 1355 1502 1294 472 657 392 607 873 714 835 771 522 3 1 2 11 18 27 7 24 46 19 60 137 124 61 37 9 22 23 41 45 56 43 33 12
0 0 341 932 1477 1814 1095 1135 1380 1152 416 674 632 522 486 356 620 627 300 2 0 0 0 31 39 3 27 9 1 0 0 23 80 51 54 12 81 16 24 44 31 56 33
0 0 0 565 1079 1658 1105 1208 1319 1070 545 457 442 487 490 432 666 553 315 7 1 1 0 35 29 32 28 10 2 23 0 0 64 78 49 13 64 50 32 15 35 37 48
0 3 0 150 738 1300 1296 1313 1485 1081 787 578 607 190 372 443 350 383 124 7 11 0 3 5 11 30 7 0 1 52 24 13 0 6 74 41 31 39 72 68 55 52 40
0 4 44 17 416 1008 1497 1527 1710 1130 925 699 590 353 191 281 151 199 92 73 8 0 1 8 15 69 5 0 0 2 46 75 117 82 0 40 49 15 18 41 57 62 42
0 0 29 38 266 972 1404 1672 1790 1160 1029 842 661 280 56 138 146 146 95 21 16 9 0 8 15 40 52 25 0 39 39 54 54 66 79 70 55 31 34 109 80 94 100

GFSSE_con_mucape_108.txt.gz
CAPE
892 1006 1321 1522 1602 1682 1737 1894 1865 1750 1907 1995 2013 2056 2124 2194 2282 2360 2455 2472 2446 2480 2249 2014 2170 2004 1624 1487 1591 1687 1735 1614 1537 1537 1532 1540 1135 995 1180 1165 987 788 1134
935 1004 1219 1474 1620 1705 1789 1813 1940 1870 2034 2110 2124 2185 2169 2274 2360 2460 2509 2522 2607 2598 2193 1969 2191 2130 1581 1616 1770 1603 1500 1379 1322 1427 1508 1572 1190 1097 1075 1225 1010 1011 1168
1245 1109 1173 1357 1593 1723 1806 1943 2082 2160 2201 2216 2185 2239 2279 2349 2450 2528 2503 2444 2494 2004 2149 1966 1953 1891 1612 1786 1632 1564 1460 1362 1295 1122 1138 745 871 1217 1133 1178 1141 1089 1002
1323 1127 1240 1276 1506 1694 1840 2075 2241 2388 2346 2268 2233 2309 2349 2426 2371 2416 2475 2316 2136 2115 1924 1730 1866 1837 1818 1685 1528 1469 1406 1217 1155 1146 779 852 938 1219 1104 1108 1150 1026 1096
1315 1252 1355 1238 1376 1673 1820 2071 2218 2285 2264 2278 2220 2397 2441 2408 2242 2382 2220 2199 2063 2250 2291 1647 1735 1874 1682 1421 1335 1351 1233 1061 927 997 622 749 781 1050 1104 988 927 988 760
1052 1628 917 1130 1277 1646 1883 2139 2257 2206 2114 2149 2191 2356 2497 2296 2144 2274 2017 2067 2083 2125 2239 2128 2138 1743 1323 1218 1188 1182 1009 949 755 697 464 691 699 910 929 892 774 660 460
1871 1693 1124 1069 1217 1586 1904 2163 2228 2119 2051 2041 2207 2302 2364 2263 2227 1976 1857 1945 1891 1951 2261 2094 1847 1457 1191 1097 1072 947 881 751 662 548 494 526 533 874 779 529 564 479 250
2567 2341 1336 1134 1220 1365 1646 1823 1903 1997 1936 1776 1776 2105 2289 2088 1946 1804 1730 1785 1759 1705 1708 1639 1482 1262 1046 960 859 758 716 595 502 431 533 506 807 802 547 317 301 206 110
2660 2782 1932 1483 1318 1155 1149 1261 1535 1694 1700 1518 1601 1954 1960 1758 1702 1636 1529 1526 1512 1398 1282 1403 1235 1040 788 791 653 588 556 429 262 251 613 465 947 668 509 157 31 47 42
2886 3062 2302 1980 1605 1484 1303 963 1163 1408 1375 1534 1566 1728 1714 1508 1386 1153 1072 1119 1051 1106 1111 959 804 665 494 340 256 319 343 213 61 182 254 310 765 605 328 105 47 43 47
2725 2798 2870 2344 1950 1858 1622 1178 947 1047 1254 1303 1426 1507 1576 1421 1103 935 763 659 652 405 829 816 610 427 152 115 125 150 101 126 62 61 89 403 636 374 225 65 41 34 29
2502 2646 2600 2488 2207 2231 1514 1525 1368 1315 1240 1252 1489 1418 1538 1519 1392 1088 743 604 546 504 674 562 348 171 70 95 108 96 60 100 64 25 70 234 570 296 155 44 41 26 21
2063 2176 2158 2525 2454 2293 1577 2007 1687 1556 1516 1447 1432 1655 1593 1357 1363 1062 1045 496 555 579 618 320 137 46 34 44 60 47 63 112 78 54 80 205 396 169 61 41 33 20 22
1431 1755 1889 2189 2639 2167 1806 2185 2050 1818 1957 1855 1807 1581 1443 1290 1155 1129 1092 893 686 504 562 214 95 87 8 19 17 20 102 102 62 50 30 59 130 112 33 25 26 22 35
1025 1523 1699 2045 2317 2488 2647 2051 1768 1927 1894 1923 1672 1618 1402 1309 1140 1134 1001 1008 835 805 597 348 199 60 5 33 3 51 67 58 51 39 46 22 20 70 38 30 40 34 44
507 1261 1778 1881 2355 2401 2053 2355 1803 1746 1699 1471 1462 1292 1469 1308 1137 931 904 807 738 737 580 471 281 62 17 38 17 38 73 80 38 40 12 4 0 18 45 33 43 40 52
2 860 1900 1939 2511 2284 2097 2138 1692 1367 1051 1018 1108 1005 1590 1372 1073 775 803 754 659 605 609 368 317 73 40 50 26 40 69 68 64 14 8 0 5 12 30 51 57 69 46
0 5 2058 1999 2197 2309 2082 1952 1541 1556 1092 826 836 1011 999 1077 1149 900 740 770 370 531 434 406 268 182 67 46 15 35 82 48 53 38 1 0 0 4 23 38 55 61 59
0 0 2052 2022 2252 2120 2151 1835 1706 1684 1244 1022 672 671 1130 912 954 842 632 520 478 393 345 297 213 92 66 54 78 67 70 16 43 27 1 0 2 0 7 33 35 28 40
0 0 1829 2188 2337 2043 1942 1822 1627 1525 1017 907 703 739 749 655 904 953 706 499 316 312 220 137 51 57 30 35 129 121 24 40 17 16 27 17 19 13 12 12 25 18 20
0 0 1028 2131 2323 2025 1870 1723 1577 1399 1125 792 657 545 482 599 759 853 520 308 408 110 195 31 16 35 60 51 35 72 8 34 33 51 50 35 20 18 25 26 16 7 11
0 0 447 1967 2289 1972 1832 1579 1479 1392 1062 771 360 356 583 660 798 649 377 170 29 28 33 2 0 16 38 32 9 0 0 0 4 33 32 41 24 7 27 30 18 6 0
12 37 4 554 2125 1896 1596 1214 1148 1305 1119 805 467 336 373 539 461 538 244 72 17 0 2 1 3 9 68 19 13 0 0 0 0 35 32 51 26 6 4 3 18 8 5
24 85 6 69 1152 1802 1607 1175 882 1070 1033 822 458 225 304 306 425 415 156 51 1 0 0 0 0 0 21 5 37 9 0 0 0 0 38 41 36 32 9 0 7 9 17
0 0 71 23 336 1318 1529 1260 1003 1235 993 487 441 298 193 447 308 358 170 38 1 0 3 0 0 0 8 27 2 0 1 0 0 0 0 17 32 3 14 11 1 7 0
0 0 0 75 74 662 1512 1255 1255 1247 938 638 607 431 216 197 260 207 98 31 2 0 0 1 0 0 2 31 5 7 0 0 0 0 0 0 0 6 5 13 16 22 12

GFSSE_con_mucape_111.txt.gz
CAPE
904 1023 1127 1411 1544 1645 1605 1462 1447 1567 1697 1836 1861 1881 1960 2048 2126 2216 2237 2320 2463 2537 2158 1937 2091 2069 1731 1638 1796 1927 1788 1631 1357 1417 1568 1693 1310 1168 1304 1303 1118 1002 1326
909 1105 1161 1370 1475 1577 1728 1624 1477 1632 1844 1947 1970 1963 1976 2050 2197 2235 2310 2384 2553 2565 2138 1962 2131 1819 1753 1677 1767 1714 1675 1480 1365 1392 1357 1438 1633 1267 1160 1218 1120 1104 1242
905 1118 1231 1295 1447 1554 1673 1810 1760 1900 2027 2063 2046 2001 2079 2207 2280 2270 2291 2467 2606 2612 2137 1933 1890 1788 1805 1658 1662 1622 1528 1416 1275 1271 1139 866 1012 1446 1208 1299 1274 1273 1036
827 997 1075 1217 1390 1535 1630 1740 1913 2114 2127 2079 2120 2139 2209 2302 2296 2318 2213 2181 2148 2416 2372 2010 2068 1904 1746 1647 1549 1515 1447 1293 1126 1049 837 881 1015 1321 1205 1150 1154 1145 993
814 984 1134 1150 1332 1538 1669 1825 1961 2039 2017 2030 2099 2279 2349 2350 2319 2327 2080 1999 2096 2352 2415 1978 2113 1949 1657 1383 1336 1353 1281 1138 953 839 715 743 865 1130 1207 1089 1075 1074 881
1022 1116 1001 1091 1283 1557 1782 1910 1986 1759 1812 1895 2016 2283 2418 2340 2340 2195 1913 1947 2145 2373 2305 2299 1936 1836 1335 1179 1195 1154 1051 924 743 620 607 765 736 1069 1029 863 834 838 783
1328 875 921 1020 1245 1576 1918 2000 1944 1660 1828 1894 1996 2153 2309 2224 2230 1933 1787 1854 1932 2189 2280 2281 1991 1468 1183 1088 1074 969 837 735 591 556 544 449 666 1083 951 656 695 536 452
1384 859 891 1022 1204 1494 1820 1857 1821 1790 1814 1839 1952 2039 2169 2016 1875 1789 1740 1723 1685 1850 1916 1805 1505 1259 1111 1015 942 872 737 540 435 473 418 428 617 900 732 466 403 320 234
1280 846 942 1043 1088 1258 1474 1644 1727 1750 1631 1364 1409 1814 1964 1773 1585 1529 1619 1674 1596 1539 1528 1447 1237 1092 996 866 862 797 473 358 246 349 359 312 834 812 608 324 145 78 83
1690 1115 897 952 918 907 1039 1274 1440 1605 1426 1153 1159 1380 1829 1631 1467 1294 1331 1412 1423 1305 1325 1278 1020 921 724 740 657 548 425 238 77 207 360 448 903 732 462 193 62 33 34
2094 1751 1190 1040 959 880 792 899 1141 1248 1359 1346 1304 1552 1649 1518 1376 1213 1009 1013 1050 1009 1003 853 738 540 478 305 211 160 113 95 44 178 285 483 919 621 385 160 173 58 41
2515 2154 1618 1237 1135 1101 1052 820 777 923 1100 1159 1327 1423 1437 1295 1254 975 774 641 577 550 745 654 519 352 158 48 52 80 81 48 67 166 213 354 738 576 371 91 78 52 48
2238 2499 2145 1753 1472 1405 1373 1069 764 756 785 905 1146 1161 1218 1211 1091 835 577 444 256 152 444 548 400 303 104 37 53 66 19 64 69 93 144 251 498 548 285 104 37 33 32
2315 2357 2367 2077 1814 1762 1424 1360 1023 979 839 845 797 1094 1036 1133 1094 896 719 506 329 272 333 379 247 189 90 16 44 40 30 66 47 61 141 196 257 520 181 30 29 36 22
2038 2148 2196 2135 2006 1989 1716 1611 1442 1288 1089 1154 1031 988 1132 1044 862 858 929 673 455 351 309 267 116 93 74 14 0 11 34 31 40 44 90 146 202 328 202 31 38 31 28
1706 1868 1983 1969 2070 1889 1708 1779 1666 1630 1669 1585 1395 1327 1089 875 707 661 713 733 652 544 362 278 174 58 25 1 0 6 17 52 42 41 59 109 118 106 137 95 28 36 44
517 1562 1731 1826 2083 1923 1699 1820 1756 1340 1631 1624 1350 1220 1034 960 888 755 679 593 590 563 488 198 75 40 23 8 0 24 24 57 41 38 43 53 19 3 2 36 42 64 50
0 950 1510 1711 1918 2083 1752 1897 1813 1608 1188 1094 793 843 800 974 831 695 651 563 520 524 379 219 139 94 68 31 2 39 32 82 53 36 37 31 2 0 0 12 42 59 63
0 6 1439 1663 1906 2007 1913 1615 1562 1462 1206 894 735 720 573 784 939 717 526 532 514 437 340 240 205 102 102 23 39 45 9 58 48 32 35 7 0 0 0 0 31 35 48
0 0 1390 1581 1987 1981 1974 1683 1586 1490 1252 1108 663 542 434 442 733 677 548 487 369 321 215 151 79 84 82 32 68 39 12 48 27 36 17 4 0 0 0 4 30 22 33
0 0 1533 1581 1976 2013 1966 1649 1612 1312 1310 1102 812 541 302 400 587 610 594 413 357 313 260 443 157 98 108 41 50 75 23 44 5 5 8 0 0 0 0 16 22 11 17
0 0 1659 1747 1885 1905 1923 1614 1477 1382 1205 1080 771 556 385 391 501 725 695 482 358 208 181 45 305 175 39 16 48 86 25 10 23 25 22 3 4 6 7 5 17 17 6
0 0 1443 1875 2005 1868 1761 1731 1433 1438 1302 1045 874 635 467 404 384 478 638 416 199 184 45 20 162 64 25 30 47 34 9 0 8 19 42 4 15 10 12 17 17 6 1
0 0 448 2011 2040 1917 1754 1710 1475 1421 1275 1190 990 724 464 418 409 725 664 359 187 46 5 88 5 2 7 14 39 3 17 1 0 0 0 0 18 16 14 17 8 0 0
4 3 3 395 1929 1783 1771 1598 1515 1248 1091 1225 1181 1012 637 209 457 417 394 275 64 21 0 0 2 2 7 11 25 0 6 0 0 0 0 0 1 16 6 10 7 0 0
2 35 22 3 35 1401 1603 1523 1297 1150 1016 1028 1116 1092 722 256 241 335 304 187 23 15 0 0 0 1 5 11 10 28 26 2 0 25 0 0 0 11 29 1 0 2 4

GFSSE_con_mucape_114.txt.gz
CAPE
651 963 1312 1473 1431 1376 1322 1302 1301 1348 1543 1613 1605 1697 1845 1981 2005 2133 2246 2317 2395 2434 2031 1923 2203 2191 1829 1810 1954 2029 1806 1618 1582 1891 1933 1672 1524 1455 1379 1525 1385 1177 1556
732 959 1306 1505 1534 1459 1409 1374 1402 1497 1703 1721 1728 1751 1831 1976 2030 2163 2297 2406 2464 2366 1928 1981 1992 1899 1852 1832 1913 1911 1729 1508 1550 1560 1646 1606 1728 1332 1338 1374 1325 1327 1476
857 949 1181 1364 1577 1656 1574 1531 1634 1769 1823 1736 1815 1835 1959 2080 2128 2172 2298 2425 2518 2441 2024 1992 1969 1926 1752 1793 1830 1610 1644 1542 1517 1588 1602 1218 1261 1290 1277 1426 1414 1419 1211
998 1028 1094 1207 1388 1589 1676 1612 1745 1912 1889 1928 1916 1981 2090 2162 2167 2248 2264 2283 2521 2550 2064 2007 2014 1859 1701 1720 1568 1496 1531 1323 1176 1186 1015 1037 1125 1199 1371 1243 1327 1287 1109
1057 1092 1117 1171 1278 1447 1540 1692 1797 1930 1872 1899 1957 2135 2199 2272 2284 2237 2040 1822 2224 2647 2355 2213 2125 1791 1638 1423 1350 1348 1288 1103 997 868 816 861 1013 1253 1349 1285 1238 1126 1061
904 984 1149 1162 1280 1489 1642 1763 1829 1820 1700 1742 1920 2186 2297 2349 2389 2129 1847 1771 2193 2534 2533 2421 2156 1717 1273 1215 1224 1142 1014 855 770 727 776 1001 710 1321 1301 1036 1025 913 822
862 941 1041 1131 1313 1588 1860 1914 1760 1404 1578 1693 1930 2091 2220 2299 2333 1970 1744 1772 1986 2334 2404 2414 1945 1422 1158 1119 1109 900 824 672 605 625 720 579 631 1175 1080 845 924 853 783
794 857 881 1068 1349 1623 1808 1821 1525 1298 1393 1664 1857 1963 2074 2066 1994 1783 1714 1672 1710 1952 2018 1810 1508 1287 1100 1061 984 729 661 523 559 447 456 465 738 755 917 652 688 545 539
736 791 857 1034 1271 1565 1671 1728 1657 1531 1594 1640 1772 1867 1872 1702 1663 1605 1658 1600 1542 1650 1695 1553 1301 1155 1077 1038 886 581 561 290 434 367 311 474 936 737 762 442 342 280 141
684 740 815 950 1133 1348 1548 1630 1671 1678 1502 1323 1620 1752 1746 1562 1432 1448 1550 1464 1381 1496 1472 1392 1191 1096 1066 944 792 622 447 200 218 248 255 338 969 1057 718 390 218 114 30
804 681 767 823 891 1039 1312 1512 1601 1626 1370 1076 1127 1209 1710 1511 1365 1253 1350 1431 1242 1089 1217 1193 1080 1025 929 764 496 425 327 194 150 299 299 349 663 752 589 282 97 37 36
1142 813 770 785 721 759 883 1205 1372 1491 1269 1081 1112 1233 1602 1504 1316 1125 1051 1197 1183 916 1002 932 853 791 628 424 198 126 100 71 95 197 272 312 580 692 444 207 80 27 33
1690 1264 993 823 734 668 706 829 986 1130 1190 1219 1252 1354 1528 1388 1285 1086 838 785 661 728 728 711 601 403 275 71 19 14 25 26 70 107 177 258 448 523 416 122 12 25 38
2136 1875 1507 1003 878 822 849 555 607 754 835 902 1124 1209 1290 1260 1098 1038 725 498 401 361 506 516 463 289 153 36 47 5 0 5 55 115 175 227 298 654 330 91 4 13 29
2258 2249 1971 1497 1152 1091 1145 685 557 548 552 556 780 928 908 1111 1045 941 695 463 297 178 226 281 269 272 209 74 54 13 0 0 20 76 96 133 193 414 438 121 21 13 20
2115 2306 2190 2046 1695 1374 1388 1255 912 730 638 561 505 585 889 883 977 950 660 552 443 337 292 331 342 250 189 105 61 0 0 0 2 25 49 60 116 194 247 277 37 4 20
1969 2176 2321 2218 2020 1829 1632 1432 1224 1173 1014 924 885 803 847 939 863 812 850 794 759 389 389 352 308 335 212 66 0 0 0 16 23 15 36 45 89 136 117 164 144 75 30
1524 1962 2174 2269 2100 1983 1824 1710 1425 1451 1451 1503 1301 1193 1145 1074 871 732 575 613 633 548 472 416 336 235 89 0 0 21 0 19 19 26 20 53 58 77 67 35 41 46 62
0 1374 1852 2113 2112 2076 1908 1820 1547 1630 1757 1753 1636 1508 1344 992 831 815 654 568 517 506 504 490 344 253 123 23 50 45 16 47 47 87 50 45 45 41 13 7 7 21 35
0 2 1306 1822 1970 2031 1933 1819 1685 1789 1622 1621 1590 1294 1055 810 779 830 725 619 499 504 458 383 362 337 164 106 57 18 30 47 28 73 24 24 42 17 0 4 19 19 30
0 0 783 1384 1751 1952 1959 1798 1915 1921 1759 1485 1164 952 698 552 621 695 700 537 456 391 312 361 318 267 259 213 68 16 49 4 32 41 40 15 20 3 0 8 16 11 27
0 0 380 1130 1656 1860 1902 1901 1742 1598 1524 1420 1252 970 592 510 383 489 666 431 454 446 288 264 471 481 220 177 88 68 49 36 29 50 27 14 13 5 1 3 9 17 14
0 0 408 1132 1738 1813 1858 1767 1569 1488 1352 1354 1341 1142 751 524 331 425 618 497 442 385 271 413 112 381 299 66 114 78 20 15 10 51 29 14 5 1 0 1 16 30 16
0 0 104 1343 1612 1805 1834 1782 1672 1377 1224 1355 1380 1069 870 666 339 482 539 578 459 351 206 120 114 155 102 13 42 14 15 21 35 4 2 9 1 1 0 0 16 15 11
0 0 0 970 1714 1721 1651 1717 1770 1388 1146 1161 1189 1084 846 772 644 405 466 539 532 411 75 48 51 278 163 51 10 10 27 21 0 0 0 1 0 0 8 6 8 5 0
0 0 0 0 562 1357 1550 1412 1337 1298 1259 1206 1075 911 823 835 845 636 416 487 534 362 188 62 19 118 35 0 16 9 11 0 15 8 0 0 0 3 0 28 13 5 0

GFSSE_con_mucape_117.txt.gz
CAPE
616 1022 1167 1393 1473 1340 1236 1153 1149 1231 1358 1546 1694 1717 1762 1887 1988 2066 2145 2261 2289 2313 2008 1851 2214 2251 1862 1707 1786 1714 1770 1824 1928 2054 2078 1875 1676 1658 1602 1692 1511 1247 1436
692 1105 1207 1380 1461 1412 1351 1250 1254 1389 1481 1612 1712 1796 1776 1880 2038 2151 2241 2324 2349 2221 1941 1980 1996 1883 1821 1800 1920 1808 1754 1796 1846 1858 1903 1800 1644 1387 1482 1570 1515 1156 1427
847 1135 1222 1321 1442 1467 1504 1455 1506 1657 1634 1659 1683 1809 1883 2034 2167 2227 2281 2328 2336 2244 1998 2049 2014 1936 1872 1878 1791 1790 1778 1739 1647 1783 1766 1304 1542 1360 1499 1450 1394 1397 1328
925 1148 1250 1331 1427 1496 1501 1535 1623 1745 1705 1717 1742 1870 1993 2098 2196 2311 2332 2297 2352 2402 2054 2084 2038 1846 1844 1810 1717 1709 1652 1528 1510 1444 1255 1113 1416 1474 1514 1371 1334 1355 1344
938 1115 1215 1365 1477 1528 1483 1551 1655 1747 1685 1694 1779 1945 2090 2179 2258 2349 2199 2255 2438 2435 2159 1953 1743 1727 1633 1434 1471 1486 1386 1252 1225 1160 1092 939 1453 1279 1487 1436 1417 1376 1280
906 965 1166 1306 1438 1563 1590 1638 1691 1597 1490 1543 1736 1975 2188 2267 2323 2166 1774 1995 2452 2467 2420 1945 1745 1594 1269 1195 1259 1240 1075 1000 1010 934 984 913 853 1367 1354 1298 1338 1231 1148
960 933 1007 1107 1236 1478 1752 1772 1704 1504 1428 1506 1756 1930 2120 2285 2218 1893 1612 1834 2064 2453 2407 2286 1743 1337 1149 1131 1151 1023 912 810 758 784 835 658 785 1222 1181 1079 1074 1041 1079
875 943 985 1083 1198 1434 1663 1712 1608 1462 1426 1498 1661 1797 2020 2076 1968 1746 1647 1694 1877 2082 2076 1751 1358 1201 1084 1086 1002 946 728 729 630 554 477 528 714 871 966 897 925 869 802
762 896 1007 1079 1247 1485 1642 1600 1410 1408 1448 1475 1613 1637 1782 1784 1718 1600 1628 1605 1719 1735 1655 1443 1167 1050 1024 1021 916 827 688 592 564 417 403 475 912 510 477 644 645 647 596
683 768 896 1031 1245 1421 1548 1552 1264 1224 1508 1479 1566 1578 1588 1566 1580 1501 1532 1446 1493 1554 1511 1325 1091 1004 1013 988 848 695 592 466 469 344 380 408 735 970 908 664 553 384 214
634 740 830 945 1103 1243 1364 1588 1466 1429 1540 1504 1532 1586 1542 1381 1384 1409 1477 1372 1220 1348 1301 1157 1022 988 882 764 755 560 562 263 284 254 267 465 715 837 846 559 422 248 91
559 686 721 835 999 1198 1202 1583 1584 1627 1470 1337 1437 1519 1434 1326 1256 1228 1362 1378 1060 1148 1092 1017 930 914 793 550 429 429 454 210 157 256 232 357 815 876 856 481 233 149 66
523 547 674 729 848 1014 1106 1339 1545 1828 1359 1201 1211 1254 1511 1368 1209 1100 1068 1262 1090 821 818 801 775 691 558 473 236 143 132 190 130 226 269 373 793 865 727 369 161 79 37
860 642 695 713 699 799 824 871 977 1363 1350 1009 1094 1145 1407 1426 1222 1107 895 963 1094 826 610 569 478 413 247 194 32 12 19 14 22 126 227 288 531 942 588 317 114 15 17
1292 1063 846 693 600 620 665 678 707 774 1050 896 994 1145 1341 1257 1160 1110 928 725 691 676 555 383 312 275 115 72 35 13 7 0 4 97 114 219 171 428 597 320 114 19 5
1823 1704 1187 750 596 590 614 485 489 550 631 710 800 1020 1210 1043 1042 1012 962 732 516 338 338 232 154 199 191 135 65 40 18 1 0 41 108 162 68 262 371 530 195 34 8
1987 2170 1811 1240 794 724 717 571 393 412 457 505 545 707 910 906 980 918 913 790 578 393 291 203 184 192 244 198 162 64 4 3 0 0 19 48 67 154 141 170 219 157 48
1846 2182 2266 1924 1571 1042 874 927 736 555 496 437 434 428 596 755 743 863 843 731 576 491 402 347 273 256 237 235 193 81 7 0 0 0 2 22 52 58 83 99 135 144 91
1504 1971 2257 2284 2131 1833 1393 1167 1107 938 817 745 693 634 560 696 869 793 771 732 674 733 716 444 367 346 287 229 106 10 17 38 3 5 15 16 58 30 66 94 78 47 34
56 1401 1968 2228 2283 2180 2000 1705 1499 1359 1179 1102 952 1098 1063 1017 1083 1040 891 780 715 648 644 534 439 401 335 241 132 34 36 59 34 22 27 43 43 44 80 73 47 27 32
0 2 1365 1822 2101 2174 2132 2006 1825 1701 1585 1369 1491 1559 1436 1317 1319 1045 824 829 706 580 806 687 393 555 285 223 217 95 25 60 24 36 34 38 46 53 54 50 27 21 24
0 0 0 1189 1704 2028 2016 2047 1831 1789 1675 1555 1767 1756 1681 1532 1326 842 780 818 766 639 668 592 349 220 294 252 88 60 21 22 7 12 28 9 31 37 53 29 24 21 22
0 0 0 502 1125 1681 1968 1851 1830 1714 1630 1363 1443 1650 1627 1321 1066 751 656 702 704 576 811 248 243 194 119 130 124 222 24 11 25 22 9 12 25 35 54 10 17 24 29
0 0 52 660 1061 1557 1881 1838 1718 1709 1617 1333 1277 1326 1317 1174 749 669 554 559 616 532 381 152 218 157 92 21 75 101 35 9 46 11 5 10 31 30 9 2 7 22 32
0 0 178 794 1276 1709 1922 1847 1720 1595 1528 1200 1229 1209 1378 1224 987 702 535 426 608 536 440 374 286 198 189 18 78 68 62 39 16 19 8 2 34 28 13 14 0 16 29
0 0 0 316 1174 1350 2049 2292 1724 1640 1533 1210 1143 1043 1157 1258 1041 844 622 319 503 527 457 368 240 15 182 80 128 80 99 39 11 27 1 0 7 6 3 1 0 11 18

GFSSE_con_mucape_120.txt.gz
CAPE
457 916 1132 1431 1375 1241 1159 1108 1131 1271 1469 1695 1835 1901 1859 1887 1882 1945 2084 2211 2202 2200 1895 1782 2211 2196 2085 1778 1871 1838 1860 1902 1824 1863 2206 2034 1796 1721 1568 1738 1570 1295 1583
550 982 1145 1423 1397 1315 1227 1170 1182 1366 1581 1723 1750 1786 1831 1899 1964 2088 2215 2191 2237 2206 1843 1812 2166 2137 1770 1877 1818 1820 1800 1737 1627 1661 1681 1750 1699 1509 1622 1617 1505 1436 1521
883 1032 1145 1390 1430 1396 1358 1356 1371 1547 1703 1737 1718 1755 1879 1995 2061 2133 2195 2173 2187 2202 1938 1998 1897 1813 1760 1898 1735 1783 1886 1831 1660 1684 1823 1428 1525 1532 1641 1679 1664 1641 1461
1030 1052 1131 1345 1413 1473 1406 1458 1467 1622 1679 1730 1752 1833 1977 2084 2139 2193 2149 2072 2189 2252 2018 2042 1972 1845 1841 1752 1674 1750 1760 1695 1599 1440 1162 1252 1431 1630 1582 1512 1645 1647 1456
1023 1069 1144 1330 1376 1471 1448 1508 1531 1504 1513 1598 1727 1943 2077 2163 2237 2250 2051 2001 2224 2307 2083 1671 1796 1779 1606 1455 1477 1511 1478 1499 1378 1265 1027 983 1335 1488 1563 1550 1486 1579 1534
1029 1123 1223 1285 1346 1444 1530 1571 1617 1431 1344 1424 1644 1941 2113 2213 2284 2153 1965 2038 2269 2355 1759 1663 1612 1537 1235 1262 1273 1253 1281 1292 1252 1104 1005 1113 1080 1520 1354 1342 1363 1263 1213
1041 1138 1230 1287 1350 1430 1639 1681 1558 1342 1253 1374 1615 1814 1993 2162 2166 1869 1869 2073 2203 2265 2164 1962 1610 1233 1077 1141 1104 1042 1076 1074 1046 1000 887 873 744 1306 1331 1182 1226 1217 1176
1000 1124 1272 1357 1410 1460 1580 1603 1440 1261 1213 1339 1494 1688 1923 1956 1807 1570 1537 1766 1943 2030 1976 1621 1228 1115 1012 1017 938 867 851 859 800 823 788 635 699 936 1140 939 1113 1014 974
945 1024 1213 1346 1416 1487 1564 1562 1416 1277 1245 1301 1407 1546 1699 1670 1503 1439 1459 1583 1759 1837 1661 1277 1024 953 970 955 917 799 761 712 644 490 489 469 762 590 431 497 840 1021 1018
977 969 1035 1157 1218 1365 1488 1530 1461 1312 1282 1315 1338 1427 1479 1514 1412 1378 1340 1403 1524 1536 1429 1158 886 858 915 890 850 797 613 641 590 436 386 426 544 444 580 554 640 538 607
964 1007 1029 1044 1112 1181 1362 1441 1454 1384 1342 1362 1360 1368 1412 1347 1379 1332 1332 1263 1330 1338 1258 1023 858 819 862 860 746 701 609 451 489 383 362 436 406 414 406 564 437 462 393
759 875 959 960 1051 1266 1287 1432 1203 1188 1420 1365 1377 1367 1291 1258 1341 1301 1328 1225 1152 1148 1121 936 821 807 746 646 684 599 480 273 335 312 329 457 790 1031 874 661 602 371 253
543 660 829 872 1045 1257 1060 1519 1105 1527 1334 1412 1344 1389 1294 1190 1212 1227 1282 1318 989 1031 927 837 745 739 595 318 336 467 495 268 108 178 217 315 605 910 798 824 491 285 154
451 555 706 874 888 1026 932 1203 1658 1637 1882 1361 1363 1372 1365 1177 1161 1108 1162 1297 1088 905 740 694 585 600 406 268 151 119 128 152 157 106 198 230 406 932 864 756 374 201 144
389 491 655 814 875 929 880 906 1390 1423 1477 1059 1155 1301 1246 1213 1352 1076 999 1069 1138 888 605 500 399 346 298 151 96 32 3 0 0 4 123 206 225 471 664 517 249 115 17
1095 464 589 769 721 781 827 669 864 1052 1153 930 767 987 1166 1692 1788 1040 1015 857 933 966 724 485 323 196 143 59 101 62 27 13 0 0 37 89 104 158 338 499 257 134 16
1652 1103 729 729 708 684 653 628 508 469 730 1006 845 969 1608 1445 1509 1199 987 905 764 737 724 533 347 172 117 68 98 101 69 8 2 0 1 28 41 82 123 265 329 257 109
1680 1758 1435 898 740 635 593 534 456 460 429 422 498 656 1082 1240 1105 813 843 915 801 670 488 360 242 120 87 100 150 150 105 60 2 0 0 0 3 53 60 143 134 143 164
1558 1942 2102 1756 1130 783 834 908 730 638 456 436 469 513 645 759 912 895 837 747 843 729 573 438 338 242 175 152 185 147 137 64 6 0 0 0 0 15 66 91 77 63 87
1229 1711 2095 2215 2030 1586 1178 1058 997 831 726 477 432 429 439 595 702 732 724 743 693 704 588 511 437 439 333 270 231 186 123 47 21 1 4 1 15 45 45 61 34 89 68
0 807 1623 2172 2230 2065 1836 1645 1390 1235 1076 781 652 558 540 478 530 603 691 695 720 671 556 606 637 399 541 183 324 127 97 59 46 31 44 18 45 53 73 76 68 75 54
0 0 0 1050 2150 2161 2098 2008 1871 1678 1492 1256 938 896 771 778 861 793 955 994 929 796 666 600 285 129 215 159 125 48 55 13 52 18 16 31 32 42 35 20 72 79 30
0 0 0 0 1021 2065 2134 2059 1901 1893 1858 1733 1531 1365 1097 1203 1354 1119 1119 1173 772 776 660 530 124 278 31 35 26 44 49 19 12 17 11 11 20 49 12 47 79 58 18
0 0 0 0 138 1306 2009 1993 1870 1716 1545 1696 1874 1668 1336 1703 1625 1495 1383 1263 681 652 700 341 167 94 151 62 141 48 65 22 27 5 3 1 15 16 27 40 57 42 24
2 96 163 196 511 1024 1800 2031 1932 1683 1760 1488 1424 1493 1540 1414 1474 1609 1425 1205 752 597 565 359 157 281 84 90 74 14 107 64 57 43 8 15 27 25 27 31 35 27 24
14 111 287 719 832 988 1553 1724 1736 1790 1809 1693 1576 1413 1239 1110 1330 1454 1288 976 750 544 454 576 423 150 82 83 153 108 12 31 45 35 25 9 0 5 10 41 48 29 8

GFSSE_con_mucape_123.txt.gz
CAPE
696 1172 1192 1386 1324 1238 1148 1124 1194 1473 1760 1872 1682 1613 1681 1748 1785 1855 1963 2067 2082 2064 1882 1812 2162 2083 1976 2023 2196 1849 1937 1926 1828 2004 2212 2130 1909 1802 1705 1876 1714 1457 1908
968 1239 1250 1353 1380 1337 1255 1180 1230 1541 1824 1939 1810 1737 1738 1815 1881 1996 2075 2110 2104 2165 1792 1827 2189 2108 1779 1914 1844 1787 1776 1668 1715 1700 2055 1951 1806 1786 1726 1682 1531 1671 1832
1285 1344 1476 1313 1393 1399 1353 1340 1419 1741 1918 1959 1893 1814 1859 1968 2081 2095 2056 2067 2138 2168 1805 1765 1841 1705 1635 1813 1726 1763 1700 1634 1713 1809 1946 1713 1719 1744 1668 1719 1470 1883 1810
1318 1435 1570 1310 1356 1445 1360 1413 1546 1806 1896 1861 1877 1917 1980 2088 2156 2125 2026 1958 2099 2252 1962 1894 1854 1788 1778 1608 1629 1741 1696 1561 1539 1599 1824 1742 1522 1687 1614 1578 1762 1767 1720
1305 1419 1653 1371 1358 1451 1450 1463 1558 1673 1652 1694 1813 2028 2076 2140 2214 2140 1870 1871 2111 2314 2046 1945 1919 1799 1562 1361 1439 1538 1544 1393 1337 1421 1568 1597 1653 1443 1526 1409 1595 1653 1432
1366 1397 1426 1415 1390 1440 1555 1568 1570 1497 1461 1549 1743 2010 2134 2180 2222 2017 1768 1871 2117 2274 1778 1661 1817 1582 1227 1185 1258 1348 1364 1287 1202 1626 1572 1426 1561 1218 1549 1439 1535 1470 1411
1503 1522 1658 1465 1460 1492 1691 1709 1508 1359 1375 1562 1799 1935 2071 2173 2141 1894 1731 1801 1944 2038 1769 1692 1673 1224 1090 1079 1103 1164 1218 1146 1582 1592 1517 1441 1454 1283 1244 1104 1186 1288 1348
1630 1658 1767 1481 1503 1557 1629 1637 1363 1239 1282 1532 1761 1870 2032 2044 1898 1806 1753 1762 1814 1795 1725 1578 1168 1042 998 980 929 968 975 995 1226 1522 1491 1339 855 581 658 814 615 743 1033
1523 1736 1833 1908 1684 1550 1605 1580 1319 1186 1233 1406 1633 1779 1903 1856 1693 1664 1743 1789 1807 1725 1490 1159 955 861 901 848 704 738 768 783 1357 1472 1311 1242 747 345 226 313 507 625 906
1501 1685 1788 1905 1987 1997 1946 1571 1350 1189 1195 1283 1453 1639 1705 1598 1516 1323 1485 1649 1630 1628 1323 1035 793 814 832 750 658 615 580 579 1169 1088 1185 1253 598 688 591 460 434 502 497
1388 1606 1730 1820 1891 1975 1783 1786 1438 1294 1184 1237 1326 1473 1626 1787 1837 1538 1370 1439 1503 1442 1144 880 696 752 784 735 700 516 434 1132 1126 1089 1114 408 609 379 224 256 395 416 528
1372 1413 1548 1786 1757 1747 1472 1505 1835 1803 1665 1634 1664 1762 1879 1924 1950 1669 1385 1255 1332 1271 1048 808 667 673 784 954 885 594 853 924 1014 1085 1011 354 615 482 261 216 468 344 251
1094 1339 1374 1560 1656 1465 1376 1336 1632 1624 1483 1504 1632 1902 1929 1789 1872 1869 2065 1642 1768 1161 1520 1006 980 1051 564 515 1065 1096 795 632 867 953 820 245 434 515 513 590 580 474 509
627 1038 1286 1384 1418 1383 1462 1271 1279 1232 1750 1740 1757 1579 1314 1453 1795 1916 1956 1944 1803 1614 1603 1330 1145 513 1008 724 793 930 860 788 669 730 695 196 190 483 586 437 529 457 303
934 719 1022 991 1114 1043 1307 1286 1164 1044 1449 1801 1513 1479 1348 1265 1278 1562 1767 1665 1761 1718 1467 1229 885 1033 937 635 472 407 396 513 622 633 776 199 115 322 742 786 485 294 247
1394 998 995 1080 1278 1170 1177 1235 998 1098 1161 1824 1495 1328 1839 1432 1154 1122 1317 1500 1259 1487 1297 1122 764 850 907 622 301 19 111 250 293 373 566 577 108 121 274 672 368 244 188
1118 1636 1048 1148 1274 1419 1345 1271 1000 889 877 1380 1058 1328 1588 1609 1228 966 1006 1137 1278 1034 963 673 342 204 680 259 86 6 141 171 179 153 318 559 319 68 98 185 273 332 145
492 1915 1435 1056 1182 1313 1506 1388 962 844 788 872 661 846 1650 1745 1510 1478 1464 891 993 859 921 775 534 358 535 492 419 234 169 122 142 69 75 199 385 444 176 83 118 226 188
225 1659 1964 1402 1290 1421 1473 1416 1275 947 618 780 918 1071 1178 1400 1415 1383 1437 925 821 778 764 710 608 375 202 112 319 302 131 72 117 41 49 70 138 190 292 137 83 87 79
0 1376 2142 1995 1623 1484 1372 1335 1202 1060 1001 1001 800 881 812 1124 1310 1435 876 754 634 762 721 633 488 374 288 252 153 120 141 105 79 148 90 85 152 178 264 320 425 103 43
0 421 1946 2221 1932 1609 1338 1492 1323 1220 1163 1051 915 944 986 1034 1127 969 778 662 560 587 690 648 587 404 405 215 320 177 194 112 97 39 121 102 131 154 252 210 430 84 51
0 5 998 1774 2410 1978 1768 1793 1691 1583 1402 1380 1110 969 1015 1068 1095 1050 772 515 480 518 622 473 413 316 403 161 123 49 19 22 12 104 34 71 198 292 196 208 132 64 77
0 1 57 444 1788 2501 2365 2226 1868 1803 1683 1469 1402 1234 1057 995 1016 993 919 654 420 519 821 561 411 695 297 80 188 364 51 114 13 5 39 87 90 127 152 126 104 21 51
0 0 0 0 0 1125 2720 2430 2241 1901 1810 1794 1767 1666 1471 1118 1197 1126 885 586 511 700 671 630 405 635 458 145 86 149 128 47 80 74 30 42 62 134 67 84 105 15 57
9 35 8 1 0 48 909 2231 2398 2349 2412 2171 1838 1900 1762 1563 1245 1026 744 1055 845 872 785 365 414 644 437 347 126 66 65 18 24 60 86 36 45 46 73 30 131 32 51
38 78 162 96 74 245 889 1230 1796 2030 1997 1991 1890 1550 1420 1331 1441 1330 945 1083 1088 752 806 512 644 666 403 256 235 143 80 62 37 37 15 37 21 30 80 23 11 27 18

GFSSE_con_mucape_126.txt.gz
CAPE
1049 1682 1237 1345 1412 1405 1326 1431 1564 1675 1747 1672 1698 1727 1748 1774 1750 1806 2029 2119 2093 2153 1876 1634 1982 2004 1625 1765 2192 1898 2023 1931 1868 1983 2196 1962 1751 1582 1613 1874 1363 1457 1715
1021 1666 1212 1310 1376 1399 1386 1409 1605 1800 1995 1847 1742 1749 1772 1795 1851 1975 2108 2113 2109 2180 1750 1660 1831 1774 1666 2299 1861 1800 1842 1718 1822 2071 2008 1822 1749 1842 1624 1613 1563 1551 1747
1239 1758 1612 1264 1363 1422 1464 1526 1786 2050 2174 1978 1854 1848 1902 1970 2015 2081 2091 2076 2171 2262 1855 1688 1695 1563 1646 1901 1726 1729 1668 1665 1630 2003 2055 1491 1644 1807 1504 1480 1584 1683 1936
1477 1908 1693 1275 1371 1414 1436 1530 1849 2186 2219 2090 2002 1989 2061 2128 2147 2162 2074 2039 2177 2276 1978 1747 1708 1685 1648 1701 1662 1639 1616 1611 1574 1729 1777 1488 1382 1663 1590 1294 1873 1767 1751
1617 1845 1898 1383 1392 1433 1422 1548 1780 2016 2006 2025 2003 2144 2261 2302 2263 2175 1928 1952 2219 2361 2081 1877 1835 1754 1524 1429 1518 1521 1467 1372 1426 1438 1630 1451 1496 1545 1536 1329 1309 1362 1207
1657 1785 1690 1414 1452 1509 1545 1595 1743 1752 1765 1821 1964 2231 2370 2413 2361 2074 1810 1964 2291 2394 2368 2071 1911 1532 1210 1221 1342 1348 1191 1202 1227 1518 1415 1422 1346 1630 1525 1475 1107 1215 1173
1869 1993 2088 1441 1490 1607 1713 1700 1646 1531 1573 1759 1994 2125 2248 2352 2287 1921 1765 1902 2165 2182 1924 2086 1743 1281 1105 1087 1194 1183 1118 1063 1576 1234 1424 1449 1382 1383 1187 855 697 811 1429
2189 2270 2245 1509 1540 1636 1693 1625 1431 1368 1461 1702 1939 2051 2198 2206 2029 1841 1746 1792 1906 1731 1562 1695 1282 1135 1021 988 1024 1079 1008 939 1240 1395 1161 1310 1004 878 631 387 384 555 781
2460 2595 2600 2176 1836 1611 1675 1523 1315 1287 1398 1635 1853 1998 2106 2027 1810 1778 1739 1720 1801 1603 1563 1365 1036 925 937 836 859 860 831 860 1401 1278 1120 1317 912 304 149 214 305 403 608
2604 2738 2822 2534 2294 2206 2090 1512 1256 1225 1330 1575 1755 1894 1975 1862 1752 1746 1718 1680 1751 1606 1404 1113 861 804 843 679 658 658 624 632 1372 1151 1099 1256 274 143 79 413 475 816 835
2466 2654 2821 2722 2548 2517 2391 2020 1353 1185 1237 1446 1636 1771 1981 1948 2166 2080 1732 1731 1736 1590 1172 937 763 765 744 570 513 460 408 1073 1164 1098 1260 394 322 332 371 441 477 629 690
2375 2520 2631 2696 2673 2673 2330 2452 2208 1973 1703 1706 1828 2054 1995 1888 2043 1743 1535 1582 1525 1457 1122 780 701 733 782 1260 1024 384 998 1049 1114 1033 1261 412 911 670 483 311 458 424 681
1865 2192 2361 2635 2653 2581 2337 2320 2192 2201 2042 1989 2012 2145 2054 2132 2144 1959 2040 1881 1902 1236 1631 1055 1053 1235 1185 1282 1231 1103 1000 1148 854 860 963 298 676 459 395 191 212 331 372
401 1891 2092 2320 2568 2576 2235 2159 2303 2240 2124 2159 2102 2381 2299 2309 2267 1992 2010 1849 1794 1789 1627 1408 1341 1236 1461 1411 1222 1206 1131 912 681 672 980 222 330 474 462 172 240 325 307
0 1198 1731 2108 2342 2348 2338 2063 2088 2135 2133 1834 1814 2062 2261 2212 2238 2192 2200 2012 1953 1836 1729 1575 1400 1527 1382 1214 1110 1067 1045 959 779 646 743 176 157 167 555 337 486 335 195
0 332 1707 1891 2037 2046 2108 2136 2158 2091 1926 1896 1669 1750 1931 2140 2203 2197 2243 2109 2143 2082 1793 1625 1447 1397 1208 1074 979 857 690 598 606 519 552 713 64 70 253 655 479 351 183
0 0 992 1789 2036 2045 1858 2115 2111 1870 1896 1833 1853 1821 1818 2175 2243 1864 2015 2082 1874 1932 1884 1750 1493 1324 1180 1050 892 861 626 529 427 510 508 550 363 36 78 222 550 243 164
0 0 0 1369 1776 2087 1958 1887 1928 1868 1717 1830 1871 2025 2109 1994 2031 1829 1647 1763 2109 2073 1959 1629 1391 1163 1246 1111 1044 905 704 615 638 568 491 453 527 495 108 60 127 204 191
0 0 0 1042 1855 1998 2043 1877 1849 1853 1542 1674 1763 1755 1856 1887 1951 1671 1400 1364 1945 1327 1670 1392 1041 1251 1180 1296 1038 969 819 698 694 527 460 353 430 346 393 94 44 74 99
0 0 0 293 2061 2088 2069 1987 1780 1827 1690 1612 1425 1330 1421 1372 1479 1567 1258 1220 1451 1479 1550 1346 882 709 1185 1241 837 825 799 792 690 657 515 340 243 333 470 430 432 177 49
0 0 0 50 1850 2403 1991 1759 1758 1767 1900 1609 1640 1552 1603 1225 1772 1441 1455 1287 1139 1348 1157 1153 908 1013 878 944 914 601 456 555 483 459 684 454 378 394 448 421 592 607 253
0 0 0 119 982 2452 2242 1791 1703 1785 1648 1705 1720 1661 1675 1751 1513 1394 1377 1161 1112 1462 1284 1146 1155 938 912 678 480 425 627 474 299 165 488 460 586 488 412 448 576 419 422
1 0 0 10 1474 2312 2510 2355 1846 1750 1808 1854 1917 1819 1751 1703 1789 1551 1752 1876 1503 1408 1127 1042 945 691 570 463 843 442 394 216 183 359 184 397 388 402 379 323 352 307 384
0 0 0 10 284 1839 2275 2297 2464 2358 2436 2515 2472 2277 1996 1737 1686 1791 1755 1796 1669 1135 1367 912 792 831 729 358 506 837 487 374 204 160 352 59 81 155 184 245 274 277 178
1 0 0 0 0 1217 1959 1728 1813 2485 2623 2740 2465 2296 2066 1701 1707 1721 1817 2048 1857 1182 1269 1053 672 831 1183 1383 942 619 558 680 450 217 205 370 160 172 275 257 151 178 181
105 66 0 2 0 0 1118 1432 1462 1753 2669 2475 2671 2413 2315 1851 1646 1988 2172 1970 1646 1288 1140 1250 876 1077 1319 1548 1156 639 453 469 314 229 193 194 173 134 148 202 154 308 331